[[{"header":{"parameterUnit":"m.s-1","parameterCategory":1,"la1":30.6,"la2":28.766,"lo1":-90.7593,"lo2":-88.6598,"dy":0.0162,"dx":0.0183,"nx":116,"ny":114,"refTime":"2024-04-19T00:00:00:Z","depth":0,"parameterNumber":2,"parameterNumberName":"U-component_of_WINDS"},"data":[0.0,0.0,0.0,0.0,0.0,0.0,0.0,0.0,0.0,0.0,0.0,0.0,0.0,0.0,0.0,0.0,0.0,0.0,0.0,0.0,0.0,0.0,0.0,0.0,0.0,0.0,0.0,0.0,0.0,0.0,0.0,0.0,0.0,0.0,0.0,0.0,0.0,0.0,0.0,0.0,0.0,0.0,0.0,0.0,0.0,0.0,0.0,0.0,0.0,0.0,0.0,0.0,0.0,0.0,0.0,0.0,0.0,0.0,0.0,0.0,0.0,0.0,0.0,0.0,0.0,0.0,0.0,0.0,0.0,0.0,0.0,0.0,0.0,0.0,0.0,0.0,0.0,0.0,0.0,0.0,0.0,0.0,0.0,0.0,0.0,0.0,0.0,0.0,0.0,0.0,0.0,0.0,0.0,0.0,0.0,0.0,0.0,0.0,0.0,0.0,0.0,0.0,0.0,0.0,0.0,0.0,0.0,0.0,0.0,0.0,0.0,0.0,0.0,0.0,0.0,0.0,0.0,0.0,0.0,0.0,0.0,0.0,0.0,0.0,0.0,0.0,0.0,0.0,0.0,0.0,0.0,0.0,0.0,0.0,0.0,0.0,0.0,0.0,0.0,0.0,0.0,0.0,0.0,0.0,0.0,0.0,0.0,0.0,0.0,0.0,0.0,0.0,0.0,0.0,0.0,0.0,0.0,0.0,0.0,0.0,0.0,0.0,0.0,0.0,0.0,0.0,0.0,0.0,0.0,0.0,0.0,0.0,0.0,0.0,0.0,0.0,0.0,0.0,0.0,0.0,0.0,0.0,0.0,0.0,0.0,0.0,0.0,0.0,0.0,0.0,0.0,0.0,0.0,0.0,0.0,0.0,0.0,0.0,0.0,0.0,0.0,0.0,0.0,0.0,0.0,0.0,0.0,0.0,0.0,0.0,0.0,0.0,0.0,0.0,0.0,0.0,0.0,0.0,0.0,0.0,0.0,0.0,0.0,0.0,0.0,0.0,0.0,0.0,0.0,0.0,0.0,0.0,0.0,0.0,0.0,0.0,0.0,0.0,0.0,0.0,0.0,0.0,0.0,0.0,0.0,0.0,0.0,0.0,0.0,0.0,0.0,0.0,0.0,0.0,0.0,0.0,0.0,0.0,0.0,0.0,0.0,0.0,0.0,0.0,0.0,0.0,0.0,0.0,0.0,0.0,0.0,0.0,0.0,0.0,0.0,0.0,0.0,0.0,0.0,0.0,0.0,0.0,0.0,0.0,0.0,0.0,0.0,0.0,0.0,0.0,0.0,0.0,0.0,0.0,0.0,0.0,0.0,0.0,0.0,0.0,0.0,0.0,0.0,0.0,0.0,0.0,0.0,0.0,0.0,0.0,0.0,0.0,0.0,0.0,0.0,0.0,0.0,0.0,0.0,0.0,0.0,0.0,0.0,0.0,0.0,0.0,0.0,0.0,0.0,0.0,0.0,0.0,0.0,0.0,0.0,0.0,0.0,0.0,0.0,0.0,0.0,0.0,0.0,0.0,0.0,0.0,0.0,0.0,0.0,0.0,0.0,0.0,0.0,0.0,0.0,0.0,0.0,0.0,0.0,0.0,0.0,0.0,0.0,0.0,0.0,0.0,0.0,0.0,0.0,0.0,0.0,0.0,0.0,0.0,0.0,0.0,0.0,0.0,0.0,0.0,0.0,0.0,0.0,0.0,0.0,0.0,0.0,0.0,0.0,0.0,0.0,0.0,0.0,0.0,0.0,0.0,0.0,0.0,0.0,0.0,0.0,0.0,0.0,0.0,0.0,0.0,0.0,0.0,0.0,0.0,0.0,0.0,0.0,0.0,0.0,0.0,0.0,0.0,0.0,0.0,0.0,0.0,0.0,0.0,0.0,0.0,0.0,0.0,0.0,0.0,0.0,0.0,0.0,0.0,0.0,0.0,0.0,0.0,0.0,0.0,0.0,0.0,0.0,0.0,0.0,0.0,0.0,0.0,0.0,0.0,0.0,0.0,0.0,0.0,0.0,0.0,0.0,0.0,0.0,0.0,0.0,0.0,0.0,0.0,0.0,0.0,0.0,0.0,0.0,0.0,0.0,0.0,0.0,0.0,0.0,0.0,0.0,0.0,0.0,0.0,0.0,0.0,0.0,0.0,0.0,0.0,0.0,0.0,0.0,0.0,0.0,0.0,0.0,0.0,0.0,0.0,0.0,0.0,0.0,0.0,0.0,0.0,0.0,0.0,0.0,0.0,0.0,0.0,0.0,0.0,0.0,0.0,0.0,0.0,0.0,0.0,0.0,0.0,0.0,0.0,0.0,0.0,0.0,0.0,0.0,0.0,0.0,0.0,0.0,0.0,0.0,0.0,0.0,0.0,0.0,0.0,0.0,0.0,0.0,0.0,0.0,0.0,0.0,0.0,0.0,0.0,0.0,0.0,0.0,0.0,0.0,0.0,0.0,0.0,0.0,0.0,0.0,0.0,0.0,0.0,0.0,0.0,0.0,0.0,0.0,0.0,0.0,0.0,0.0,0.0,0.0,0.0,0.0,0.0,0.0,0.0,0.0,0.0,0.0,0.0,0.0,0.0,0.0,0.0,0.0,0.0,0.0,0.0,0.0,0.0,0.0,0.0,0.0,0.0,0.0,0.0,0.0,0.0,0.0,0.0,0.0,0.0,0.0,0.0,0.0,0.0,0.0,0.0,0.0,0.0,0.0,0.0,0.0,0.0,0.0,0.0,0.0,0.0,0.0,0.0,0.0,0.0,0.0,0.0,0.0,0.0,0.0,0.0,0.0,0.0,0.0,0.0,0.0,0.0,0.0,0.0,0.0,0.0,0.0,0.0,0.0,0.0,0.0,0.0,0.0,0.0,0.0,0.0,0.0,0.0,0.0,0.0,0.0,0.0,0.0,0.0,0.0,0.0,0.0,0.0,0.0,0.0,0.0,0.0,0.0,0.0,0.0,0.0,0.0,0.0,0.0,0.0,0.0,0.0,0.0,0.0,0.0,0.0,0.0,0.0,0.0,0.0,0.0,0.0,0.0,0.0,0.0,0.0,0.0,0.0,0.0,0.0,0.0,0.0,0.0,0.0,0.0,0.0,0.0,0.0,0.0,0.0,0.0,0.0,0.0,0.0,0.0,0.0,0.0,0.0,0.0,0.0,0.0,0.0,0.0,0.0,0.0,0.0,0.0,0.0,0.0,0.0,0.0,0.0,0.0,0.0,0.0,0.0,0.0,0.0,0.0,0.0,0.0,0.0,0.0,0.0,0.0,0.0,0.0,0.0,0.0,0.0,0.0,0.0,0.0,0.0,0.0,0.0,0.0,0.0,0.0,0.0,0.0,0.0,0.0,0.0,0.0,0.0,0.0,0.0,0.0,0.0,0.0,0.0,0.0,0.0,0.0,0.0,0.0,0.0,0.0,0.0,0.0,0.0,0.0,0.0,0.0,0.0,0.0,0.0,0.0,0.0,0.0,0.0,0.0,0.0,0.0,0.0,0.0,0.0,0.0,0.0,0.0,0.0,0.0,0.0,0.0,0.0,0.0,0.0,0.0,0.0,0.0,0.0,0.0,0.0,0.0,0.0,0.0,0.0,0.0,0.0,0.0,0.0,0.0,0.0,0.0,0.0,0.0,0.0,0.0,0.0,0.0,0.0,0.0,0.0,0.0,0.0,0.0,0.0,0.0,0.0,0.0,0.0,0.0,0.0,0.0,0.0,0.0,0.0,0.0,0.0,0.0,0.0,0.0,0.0,0.0,0.0,0.0,0.0,0.0,0.0,0.0,0.0,0.0,0.0,0.0,0.0,0.0,0.0,0.0,0.0,0.0,0.0,0.0,0.0,0.0,0.0,0.0,0.0,0.0,0.0,0.0,0.0,0.0,0.0,0.0,0.0,0.0,0.0,0.0,0.0,0.0,0.0,0.0,0.0,0.0,0.0,0.0,0.0,0.0,0.0,0.0,0.0,0.0,0.0,0.0,0.0,0.0,0.0,0.0,0.0,0.0,0.0,0.0,0.0,0.0,0.0,0.0,0.0,0.0,0.0,0.0,0.0,0.0,0.0,0.0,0.0,0.0,0.0,0.0,0.0,0.0,0.0,0.0,0.0,0.0,0.0,0.0,0.0,0.0,0.0,0.0,0.0,0.0,0.0,0.0,0.0,0.0,0.0,0.0,0.0,0.0,0.0,0.0,0.0,0.0,0.0,0.0,0.0,0.0,0.0,0.0,0.0,0.0,0.0,0.0,0.0,0.0,0.0,0.0,0.0,0.0,0.0,0.0,0.0,0.0,0.0,0.0,0.0,0.0,0.0,0.0,0.0,0.0,0.0,0.0,0.0,0.0,0.0,0.0,0.0,0.0,0.0,0.0,0.0,0.0,0.0,0.0,0.0,0.0,0.0,0.0,0.0,0.0,0.0,0.0,0.0,0.0,0.0,0.0,0.0,0.0,0.0,0.0,0.0,0.0,0.0,0.0,0.0,0.0,0.0,0.0,0.0,0.0,0.0,0.0,0.0,0.0,0.0,0.0,0.0,0.0,0.0,0.0,0.0,0.0,0.0,0.0,0.0,0.0,0.0,0.0,0.0,0.0,0.0,0.0,0.0,0.0,0.0,0.0,0.0,0.0,0.0,0.0,0.0,0.0,0.0,0.0,0.0,0.0,0.0,0.0,0.0,0.0,0.0,0.0,0.0,0.0,0.0,0.0,0.0,0.0,0.0,0.0,0.0,0.0,0.0,0.0,0.0,0.0,0.0,0.0,0.0,0.0,0.0,0.0,0.0,0.0,0.0,0.0,0.0,0.0,0.0,0.0,0.0,0.0,0.0,0.0,0.0,0.0,0.0,0.0,0.0,0.0,0.0,0.0,0.0,0.0,0.0,0.0,0.0,0.0,0.0,0.0,0.0,0.0,0.0,0.0,0.0,0.0,0.0,0.0,0.0,0.0,0.0,0.0,0.0,0.0,0.0,0.0,0.0,0.0,0.0,0.0,0.0,0.0,0.0,0.0,0.0,0.0,0.0,0.0,0.0,0.0,0.0,0.0,0.0,0.0,0.0,0.0,0.0,0.0,0.0,0.0,0.0,0.0,0.0,0.0,0.0,0.0,0.0,0.0,0.0,0.0,0.0,0.0,0.0,0.0,0.0,0.0,0.0,0.0,0.0,0.0,0.0,0.0,0.0,0.0,0.0,0.0,0.0,0.0,0.0,0.0,0.0,0.0,0.0,0.0,0.0,0.0,0.0,0.0,0.0,0.0,0.0,0.0,0.0,0.0,0.0,0.0,0.0,0.0,0.0,0.0,0.0,0.0,0.0,0.0,0.0,0.0,0.0,0.0,0.0,0.0,0.0,0.0,0.0,0.0,0.0,0.0,0.0,0.0,0.0,0.0,0.0,0.0,0.0,0.0,0.0,0.0,0.0,0.0,0.0,0.0,0.0,0.0,0.0,0.0,0.0,0.0,0.0,0.0,0.0,0.0,0.0,0.0,0.0,0.0,0.0,0.0,0.0,0.0,0.0,0.0,0.0,0.0,0.0,0.0,0.0,0.0,0.0,0.0,0.0,0.0,0.0,0.0,0.0,0.0,0.0,0.0,0.0,0.0,0.0,0.0,0.0,0.0,0.0,0.0,0.0,0.0,0.0,0.0,0.0,0.0,0.0,0.0,0.0,0.0,0.0,0.0,0.0,0.0,0.0,0.0,0.0,0.0,0.0,0.0,0.0,0.0,0.0,0.0,0.0,0.0,0.0,0.0,0.0,0.0,0.0,0.0,0.0,0.0,0.0,0.0,0.0,0.0,0.0,0.0,0.0,0.0,0.0,0.0,0.0,0.0,0.0,0.0,0.0,0.0,0.0,0.0,0.0,0.0,0.0,0.0,0.0,0.0,0.0,0.0,0.0,0.0,0.0,0.0,0.0,0.0,0.0,0.0,0.0,0.0,0.0,0.0,0.0,0.0,0.0,0.0,0.0,0.0,0.0,0.0,0.0,0.0,0.0,0.0,0.0,0.0,0.0,0.0,0.0,0.0,0.0,0.0,0.0,0.0,0.0,0.0,0.0,0.0,0.0,0.0,0.0,0.0,0.0,0.0,0.0,0.0,0.0,0.0,0.0,0.0,0.0,-1.9425,0.0,0.0,0.0,0.0,0.0,0.0,0.0,0.0,0.0,0.0,0.0,0.0,0.0,0.0,0.0,0.0,0.0,0.0,0.0,0.0,0.0,0.0,0.0,0.0,-1.0869,-1.0987,-1.0543,-1.1244,-1.1637,-1.1483,0.0,0.0,0.0,0.0,0.0,-1.0349,-1.0187,-1.0097,-1.011,-1.12,-1.1998,-1.2533,-1.2472,-1.3227,-1.4649,0.0,0.0,0.0,0.0,0.0,0.0,0.0,0.0,0.0,0.0,0.0,0.0,0.0,0.0,0.0,0.0,0.0,0.0,0.0,0.0,0.0,0.0,0.0,0.0,0.0,0.0,0.0,0.0,0.0,0.0,0.0,0.0,0.0,0.0,0.0,0.0,0.0,0.0,0.0,0.0,0.0,0.0,0.0,0.0,0.0,0.0,0.0,0.0,0.0,0.0,0.0,0.0,0.0,0.0,0.0,0.0,0.0,0.0,0.0,0.0,0.0,0.0,0.0,0.0,0.0,0.0,0.0,0.0,0.0,0.0,0.0,-2.0482,0.0,0.0,0.0,0.0,0.0,0.0,0.0,0.0,0.0,0.0,0.0,0.0,0.0,0.0,0.0,0.0,0.0,0.0,0.0,0.0,0.0,-1.0122,-1.0097,-1.0619,-1.0787,-1.036,-1.1167,-1.1579,-1.1256,-1.1431,-1.1423,-1.1071,-1.0715,-1.0373,-1.0046,-0.9991,-0.9872,-0.9724,-1.0716,-1.1893,-1.3161,-1.2967,-1.3498,-1.462,-1.5035,0.0,0.0,0.0,0.0,0.0,0.0,0.0,0.0,0.0,0.0,0.0,0.0,0.0,0.0,0.0,0.0,0.0,0.0,0.0,0.0,0.0,0.0,0.0,0.0,0.0,0.0,0.0,0.0,0.0,0.0,0.0,0.0,0.0,0.0,0.0,0.0,0.0,0.0,0.0,0.0,0.0,0.0,0.0,0.0,0.0,0.0,0.0,0.0,0.0,0.0,0.0,0.0,0.0,0.0,0.0,0.0,0.0,0.0,0.0,0.0,0.0,0.0,0.0,-2.2901,-2.3035,-2.3218,-2.3062,-2.3133,-2.3353,-2.2396,-2.1912,-2.1784,-2.1081,0.0,0.0,0.0,0.0,0.0,0.0,0.0,0.0,0.0,0.0,0.0,0.0,0.0,0.0,0.0,0.0,0.0,0.0,0.0,-1.0008,-1.0386,-1.0656,-1.0907,-1.1113,-1.1343,-1.1549,-1.1779,-1.1571,-1.1409,-1.1355,-1.0589,-1.0046,-0.9762,-1.0027,-0.9917,-0.9461,-1.0629,-1.2121,-1.3875,-1.3367,-1.3684,-1.4621,-1.5074,0.0,0.0,0.0,0.0,0.0,0.0,0.0,0.0,0.0,0.0,0.0,0.0,0.0,0.0,0.0,0.0,0.0,0.0,0.0,0.0,0.0,0.0,0.0,0.0,0.0,0.0,0.0,0.0,0.0,0.0,0.0,0.0,0.0,0.0,0.0,0.0,0.0,0.0,0.0,0.0,0.0,0.0,0.0,-1.6168,-1.5871,0.0,0.0,0.0,0.0,0.0,0.0,0.0,0.0,0.0,0.0,0.0,0.0,0.0,-2.1807,-2.2112,-2.3057,-2.356,-2.3645,-2.4339,-2.4752,-2.487,-2.4044,-2.4195,-2.5035,-2.4191,0.0,-2.2819,-2.2757,0.0,0.0,0.0,0.0,0.0,0.0,0.0,0.0,0.0,0.0,0.0,0.0,0.0,0.0,0.0,0.0,0.0,0.0,0.0,0.0,0.0,-1.0608,-1.1075,-1.1489,-1.1964,-1.2371,-1.267,-1.2584,-1.2332,-1.192,-1.1234,-1.0715,-1.0333,-1.0541,-1.0894,-1.1429,-1.1531,-1.2248,-1.3534,-1.2774,-1.2816,-1.3564,-1.4298,-1.5615,-1.7289,-1.7591,0.0,0.0,0.0,0.0,0.0,0.0,0.0,0.0,0.0,0.0,0.0,0.0,0.0,0.0,0.0,0.0,0.0,0.0,0.0,0.0,0.0,0.0,0.0,0.0,0.0,0.0,0.0,0.0,0.0,0.0,0.0,0.0,0.0,0.0,0.0,0.0,0.0,0.0,0.0,-1.501,-1.7263,-1.7151,-1.8862,-1.9878,0.0,0.0,0.0,0.0,0.0,0.0,0.0,0.0,0.0,-2.1914,-2.2439,-2.2794,-2.2972,-2.3832,-2.4261,-2.4238,-2.4496,-2.4418,-2.4061,-2.3574,-2.3502,-2.3752,-2.3441,-2.3472,-2.3741,-2.3794,-2.3049,-2.1815,0.0,0.0,0.0,0.0,-1.7507,-1.7101,0.0,0.0,0.0,0.0,0.0,0.0,0.0,0.0,0.0,0.0,0.0,0.0,-0.9841,-1.0532,-1.1179,-1.179,-1.2551,-1.3143,-1.3458,-1.345,-1.3112,-1.2416,-1.1846,-1.1314,-1.0804,-1.0781,-1.1443,-1.2764,-1.1953,-1.1969,-1.2696,-1.1992,-1.1879,-1.2337,-1.3189,-1.4658,-1.6499,-1.7201,-1.7612,0.0,0.0,0.0,0.0,0.0,0.0,0.0,0.0,0.0,0.0,0.0,0.0,0.0,0.0,0.0,0.0,0.0,0.0,0.0,0.0,0.0,0.0,0.0,0.0,0.0,0.0,0.0,0.0,0.0,0.0,0.0,0.0,0.0,0.0,0.0,0.0,0.0,0.0,-1.595,-1.7864,-1.8184,-1.9314,-2.0144,0.0,0.0,0.0,0.0,0.0,0.0,-2.2263,-2.2399,-2.2556,-2.2712,-2.334,-2.3704,-2.3766,-2.4386,-2.4631,-2.451,-2.4173,-2.3689,-2.3022,-2.265,-2.2322,-2.206,-2.2046,-2.252,-2.3402,-2.4101,-2.4023,-2.3364,-2.2708,-2.221,-2.1703,-2.0299,-1.9632,-1.9318,0.0,0.0,0.0,0.0,0.0,0.0,0.0,0.0,0.0,0.0,0.0,-0.9286,-0.9765,-1.0405,-1.1187,-1.2111,-1.2856,-1.3467,-1.3931,-1.3666,-1.3263,-1.2706,-1.2038,-1.1387,-1.0729,-1.0399,-1.0873,-1.2134,-1.1162,-1.0919,-1.1389,-1.1338,-1.1267,-1.1216,-1.1907,-1.3554,-1.5871,-1.6219,-1.6817,-1.738,0.0,0.0,0.0,0.0,0.0,0.0,0.0,0.0,0.0,0.0,0.0,0.0,0.0,0.0,0.0,0.0,0.0,0.0,0.0,0.0,0.0,0.0,0.0,0.0,0.0,0.0,0.0,0.0,0.0,0.0,0.0,0.0,0.0,0.0,0.0,0.0,0.0,0.0,0.0,-1.8596,-1.9382,0.0,0.0,0.0,0.0,-2.2179,-2.2794,-2.3182,-2.3228,-2.3786,-2.4174,-2.4372,-2.4352,-2.4422,-2.4545,-2.458,-2.4515,-2.4303,-2.3593,-2.3038,-2.2605,-2.1583,-2.1029,-2.0876,-2.0554,-2.0568,-2.0969,-2.3391,-2.4377,-2.4319,-2.4222,-2.3556,-2.2626,-2.247,-2.2161,-2.1665,0.0,0.0,0.0,0.0,0.0,-0.777,-0.8446,-0.8198,-0.8328,-0.948,-0.967,-0.992,-1.0566,-1.0897,-1.1599,-1.2919,-1.324,-1.3684,-1.4404,-1.413,-1.3756,-1.33,-1.244,-1.177,-1.1429,-1.1388,-1.1575,-1.2039,-1.1321,-1.1018,-1.1095,-1.0938,-1.0784,-1.0695,-1.157,-1.2485,-1.343,-1.46,-1.5361,-1.5806,-1.5457,-1.5103,0.0,0.0,0.0,0.0,0.0,0.0,0.0,0.0,0.0,0.0,0.0,0.0,0.0,0.0,0.0,0.0,0.0,0.0,0.0,0.0,0.0,0.0,0.0,0.0,0.0,0.0,0.0,0.0,0.0,0.0,0.0,0.0,0.0,0.0,0.0,0.0,0.0,-1.873,-1.9841,0.0,-2.1359,-2.2393,-2.3067,-2.3183,-2.3884,-2.4238,-2.4083,-2.428,-2.4447,-2.4497,-2.4478,-2.4528,-2.4666,-2.4666,-2.4219,-2.3327,-2.2751,-2.1721,-2.0257,-1.9618,-1.9122,-1.8797,-1.8696,-1.9261,-2.0362,-2.1352,-2.2173,-2.2896,-2.3857,-2.3657,-2.2809,-2.2761,-2.2199,-2.1325,0.0,0.0,0.0,0.0,0.0,-0.7301,-0.8124,-0.7897,-0.806,-0.9217,-0.9552,-0.9885,-1.043,-1.089,-1.1639,-1.2845,-1.3242,-1.3665,-1.4324,-1.41,-1.3826,-1.3517,-1.26,-1.1969,-1.1703,-1.1601,-1.1546,-1.1526,-1.0916,-1.0659,-1.0759,-1.0168,-0.9819,-0.9753,-1.0469,-1.0781,-1.0883,-1.2366,-1.354,-1.4367,-1.4551,-1.4482,-1.4264,0.0,0.0,0.0,0.0,0.0,0.0,0.0,0.0,0.0,0.0,0.0,0.0,0.0,0.0,0.0,0.0,0.0,0.0,0.0,0.0,0.0,0.0,0.0,0.0,0.0,0.0,0.0,0.0,0.0,0.0,0.0,0.0,0.0,0.0,0.0,-1.8626,-1.8855,-1.981,-2.0682,-2.1278,-2.267,-2.3575,-2.3664,-2.4374,-2.4716,-2.4512,-2.4481,-2.4464,-2.4497,-2.4495,-2.4564,-2.4666,-2.4404,-2.381,-2.2887,-2.1792,-2.0443,-1.8912,-1.8003,-1.7405,-1.7031,-1.7225,-1.8037,-1.9246,-1.9623,-2.0299,-2.1315,-2.3007,-2.3338,-2.2883,-2.2791,-2.2288,-2.1487,0.0,0.0,0.0,0.0,0.0,-0.7129,-0.7252,-0.7475,-0.7714,-0.8035,-0.8662,-0.915,-0.9298,-1.0282,-1.1186,-1.1791,-1.2768,-1.3406,-1.3625,-1.3514,-1.3392,-1.3218,-1.2495,-1.1891,-1.1468,-1.0954,-1.0649,-1.0575,-0.9846,-0.9724,-1.0164,-0.8994,-0.8368,-0.8296,-0.8428,-0.8437,-0.8426,-0.9667,-1.1333,-1.3146,-1.3055,-1.3294,-1.3732,0.0,0.0,0.0,0.0,0.0,0.0,0.0,0.0,0.0,0.0,0.0,0.0,0.0,0.0,0.0,0.0,0.0,0.0,0.0,0.0,0.0,0.0,0.0,0.0,0.0,0.0,0.0,0.0,0.0,0.0,0.0,0.0,0.0,-1.684,-1.7659,-1.8395,-1.8925,-1.9258,-1.9886,-2.1081,-2.2068,-2.2894,-2.3555,-2.4231,-2.4559,-2.4495,-2.4429,-2.443,-2.45,-2.4497,-2.4528,-2.4615,-2.3833,-2.3305,-2.3044,-2.0793,-1.9379,-1.8713,-1.697,-1.5992,-1.5745,-1.6247,-1.6864,-1.7539,-1.8318,-1.9048,-1.9867,-2.1789,-2.2669,-2.2802,-2.2699,-2.2554,-2.2246,0.0,0.0,0.0,-0.6602,-0.6615,-0.6783,-0.7,-0.734,-0.764,-0.7775,-0.854,-0.9079,-0.9224,-0.9512,-1.0059,-1.1033,-1.141,-1.1755,-1.2162,-1.2148,-1.1929,-1.1508,-1.1785,-1.1564,-1.0787,-1.0581,-1.0225,-0.9656,-0.9168,-0.8542,-0.782,-0.7109,-0.6487,-0.6006,-0.5949,-0.6269,-0.6928,-0.7677,-0.8725,-0.9995,-1.1239,-1.2173,-1.284,0.0,0.0,0.0,0.0,0.0,0.0,0.0,0.0,0.0,0.0,0.0,0.0,0.0,0.0,0.0,0.0,0.0,0.0,0.0,0.0,0.0,0.0,0.0,0.0,0.0,0.0,0.0,0.0,0.0,0.0,0.0,-1.6959,-1.6952,-1.703,-1.7703,-1.8325,-1.868,-1.955,-2.0352,-2.0928,-2.2401,-2.3372,-2.3531,-2.4139,-2.4495,-2.4429,-2.4321,-2.4321,-2.45,-2.4444,-2.4493,-2.4676,-2.4451,-2.3627,-2.2224,-2.1971,-2.0611,-1.8297,-1.8144,-1.729,-1.5992,-1.6338,-1.6667,-1.6969,-1.7562,-1.8377,-1.9353,-2.0903,-2.1232,-2.088,-2.1512,-2.1242,-2.0462,0.0,0.0,0.0,-0.6693,-0.6512,-0.6515,-0.6738,-0.7155,-0.7363,-0.7163,-0.7952,-0.8472,-0.8423,-0.8643,-0.9059,-0.9745,-0.9991,-1.0299,-1.0656,-1.1024,-1.1045,-1.0651,-1.1201,-1.1162,-1.0385,-1.0109,-0.9713,-0.9166,-0.8773,-0.7946,-0.6715,-0.5939,-0.4965,-0.3923,-0.3713,-0.3914,-0.4454,-0.5264,-0.6147,-0.7149,-0.8346,-1.001,-1.1831,-1.2174,-1.2871,-1.3655,-1.3918,-1.4232,-1.4588,-1.4812,0.0,0.0,0.0,0.0,0.0,0.0,0.0,0.0,0.0,0.0,0.0,0.0,0.0,0.0,0.0,0.0,0.0,0.0,0.0,0.0,0.0,0.0,0.0,0.0,-1.7023,-1.7175,-1.7296,-1.78,-1.8287,-1.8641,-1.9427,-2.0037,-2.028,-2.1948,-2.2971,-2.2836,-2.3826,-2.4393,-2.4358,-2.4284,-2.4321,-2.4479,-2.4461,-2.4528,-2.4695,-2.4339,-2.3587,-2.2476,-2.1733,-2.0384,-1.8565,-1.8535,-1.7525,-1.5862,-1.6809,-1.6983,-1.6624,-1.737,-1.8087,0.0,0.0,0.0,0.0,0.0,-2.0259,-1.9638,0.0,0.0,0.0,-0.6858,-0.6565,-0.6365,-0.6528,-0.6889,-0.6952,-0.6357,-0.7051,-0.748,-0.7086,-0.7512,-0.7897,-0.8052,-0.8518,-0.8952,-0.9243,-1.0008,-1.0386,-1.0239,-1.0617,-1.061,-1.0083,-0.9546,-0.9131,-0.8806,-0.8345,-0.7391,-0.6032,-0.4893,-0.3512,-0.1916,-0.1525,-0.146,-0.1656,-0.2776,-0.3827,-0.4741,-0.5239,-0.7457,-1.0538,-1.1213,-1.1897,-1.2544,-1.2938,-1.3372,-1.3849,-1.4325,0.0,0.0,0.0,0.0,0.0,0.0,0.0,0.0,0.0,0.0,0.0,0.0,0.0,0.0,0.0,0.0,0.0,0.0,0.0,0.0,0.0,0.0,0.0,0.0,-1.6465,-1.7256,-1.7689,-1.7966,-1.8275,-1.8734,-1.9079,-1.9328,-1.9471,-2.1115,-2.2066,-2.1863,-2.3344,-2.4266,-2.4284,0.0,0.0,0.0,0.0,-2.4596,-2.4729,-2.3933,-2.3419,-2.3154,-2.097,-1.966,-1.9164,-1.8585,-1.7255,-1.5518,-1.7208,-1.7258,-1.6232,-1.7216,-1.7895,-1.832,-1.9073,-1.9518,-1.9701,-1.9645,-1.9572,-1.9456,0.0,0.0,0.0,-0.7511,-0.7184,-0.6759,-0.6269,-0.6624,-0.6607,-0.5631,-0.6076,-0.6271,-0.5583,-0.5524,-0.5622,-0.5873,-0.6584,-0.7427,-0.8376,-0.8795,-0.9045,-0.9097,-0.9586,-0.9664,-0.9242,-0.8706,-0.8189,-0.7724,-0.6755,-0.5311,-0.3423,-0.2261,-0.0941,0.0467,0.0955,0.0618,-0.042,-0.1385,-0.2443,-0.3537,-0.4587,-0.6404,-0.8477,-0.8693,-0.9751,-1.1201,-1.156,-1.2261,-1.3095,-1.3549,-1.4005,-1.4399,-1.4701,0.0,0.0,0.0,0.0,0.0,0.0,0.0,0.0,0.0,0.0,0.0,0.0,0.0,0.0,0.0,0.0,0.0,0.0,0.0,0.0,-1.7572,-1.7397,-1.7535,-1.8589,-1.8356,-1.8275,-1.8735,-1.8998,-1.9212,-1.9405,-2.086,-2.173,-2.1588,-2.3066,-2.4019,-2.4135,-2.4192,-2.4389,-2.4726,-2.4734,-2.4808,-2.4926,-2.455,-2.3708,-2.2412,0.0,0.0,-1.9058,-1.952,-1.8194,-1.5586,-1.6117,-1.5726,-1.4786,-1.566,-1.6813,-1.8014,-1.8461,-1.8818,-1.9158,-1.9206,-1.9306,-1.9394,0.0,0.0,0.0,-0.7195,-0.6762,-0.6339,-0.6141,-0.6313,-0.6155,-0.527,-0.5457,-0.535,-0.4553,-0.4379,-0.4378,-0.4518,-0.534,-0.6136,-0.6835,-0.7619,-0.8023,-0.7939,-0.8502,-0.8599,-0.8168,-0.7415,-0.6998,-0.6907,-0.5805,-0.4205,-0.2232,-0.1231,0.0343,0.2323,0.2656,0.2377,0.1605,0.0654,-0.0457,-0.1635,-0.2608,-0.3738,-0.4986,-0.6346,-0.7703,-0.8946,-0.9229,-0.9693,-1.0333,-1.1534,-1.2354,-1.3018,-1.3908,-1.4804,-1.5503,0.0,0.0,0.0,0.0,0.0,0.0,0.0,0.0,0.0,0.0,0.0,0.0,0.0,0.0,-1.6855,-1.7438,0.0,-1.7387,-1.7657,-1.7453,-1.7588,-1.8525,-1.8419,-1.8203,-1.8026,-1.8167,-1.8301,-1.8285,-1.9854,-2.0972,-2.1272,-2.3009,-2.4058,-2.4099,-2.4317,-2.4351,-2.4166,-2.4186,-2.4228,-2.4241,-2.3681,-2.3169,-2.27,-2.2179,-2.1103,-1.9561,-1.9939,-1.8444,-1.5622,-1.6243,-1.5227,-1.3234,-1.4441,-1.5991,-1.7557,-1.7614,-1.8052,-1.8646,-1.8664,-1.861,-1.8556,0.0,0.0,0.0,-0.6775,-0.6256,-0.5844,-0.5934,-0.59,-0.5621,-0.499,-0.4853,-0.4517,-0.3752,-0.3545,-0.3518,-0.3633,-0.4323,-0.4928,0.0,-0.6361,-0.685,-0.6739,-0.7165,-0.723,-0.6788,-0.5841,-0.5414,-0.5631,-0.4453,-0.2996,-0.1287,-0.0442,0.1196,0.3434,0.3602,0.3536,0.3233,0.2326,0.1279,0.0167,-0.0541,-0.1071,-0.1694,-0.3606,-0.5052,-0.6128,-0.6409,-0.6592,-0.6963,-0.8754,-0.9857,-1.0694,-1.2104,-1.3677,-1.4962,-1.4787,-1.5214,0.0,0.0,0.0,0.0,0.0,0.0,0.0,0.0,0.0,-1.5188,-1.6375,-1.6653,-1.6797,-1.7245,-1.732,-1.7296,-1.7313,-1.7344,-1.7608,-1.822,-1.8356,-1.8069,-1.7233,-1.7475,-1.7603,-1.7282,-1.9051,-2.0486,-2.1093,-2.3048,-2.4192,-2.421,-2.4535,-2.4436,-2.385,-2.3733,-2.372,-2.3803,-2.2727,-2.2466,-2.2978,-2.1612,-2.0682,-2.0192,-2.0155,-1.8534,-1.5798,-1.6135,-1.4847,-1.2589,-1.3987,-1.5545,-1.7018,-1.6863,-1.7256,-1.7937,-1.799,-1.7885,-1.7674,0.0,0.0,0.0,0.0,0.0,-0.606,-0.555,-0.5217,-0.4887,-0.4531,-0.4108,-0.3679,-0.3222,-0.2835,-0.2762,-0.3083,-0.3086,-0.3522,-0.4623,-0.4739,-0.4983,-0.5468,-0.539,-0.5204,-0.4901,-0.3876,-0.3179,-0.2849,-0.1573,-0.0469,0.0526,0.1285,0.2192,0.3241,0.3504,0.3471,0.315,0.239,0.1641,0.094,0.0352,-0.0035,-0.023,0.0324,-0.0882,-0.2865,-0.3278,-0.3601,-0.4041,-0.529,-0.6141,-0.6917,-0.8107,-1.0006,-1.183,-1.193,0.0,-1.5498,-1.5324,-1.6212,-1.7117,-1.6924,-1.7084,-1.73,0.0,0.0,-1.7246,-1.7363,-1.7332,-1.7325,-1.7368,-1.7353,-1.7377,-1.7618,-1.7704,-1.7866,-1.8249,-1.827,-1.7898,-1.7044,-1.789,-1.8276,-1.7535,-1.9602,-2.1054,-2.127,-2.3086,-2.4301,-2.4529,-2.4695,-2.4854,-2.5015,-2.4274,-2.4209,-2.4905,-2.3056,-2.2181,-2.2318,-2.1953,-2.1348,-2.0533,-2.0365,-1.8868,-1.6277,-1.4256,-1.3703,-1.4265,-1.5108,-1.5866,-1.649,-1.6452,-1.6517,-1.667,-1.7142,-1.7432,-1.7552,0.0,0.0,0.0,0.0,0.0,-0.589,-0.5522,-0.5213,-0.4906,-0.4557,-0.4214,-0.3798,-0.3316,-0.2803,-0.2589,-0.2747,-0.2885,-0.3207,-0.3751,-0.4061,-0.4127,-0.3988,-0.3656,-0.3232,-0.2676,-0.1495,-0.1013,-0.1179,0.0221,0.0975,0.1113,0.1992,0.271,0.327,0.3348,0.3289,0.3155,0.2591,0.2172,0.1869,0.1452,0.1595,0.2125,0.2664,0.2614,0.2021,0.04,-0.022,0.0,0.0,-0.3122,-0.4158,-0.5648,-0.8249,-1.0749,-1.055,-1.2762,0.0,-1.6081,-1.7043,0.0,0.0,-1.7727,-1.7816,-1.7519,-1.7455,-1.7448,-1.7354,-1.7338,-1.7345,-1.7345,-1.7401,-1.7542,0.0,-1.7856,-1.8074,-1.8469,-1.8351,-1.7915,-1.7209,-1.7462,-1.737,-1.6547,-1.8574,-2.0077,-2.046,-2.2902,-2.4441,-2.4595,-2.4872,-2.4851,-2.446,-2.3564,-2.3457,-2.422,-2.2323,-2.1842,-2.2756,-2.1078,-2.0553,-2.0989,-1.8671,-1.707,-1.6004,-1.357,-1.3721,-1.5643,-1.5254,-1.5606,-1.6398,-1.6355,-1.6328,-1.6367,-1.6638,-1.6606,-1.6428,0.0,0.0,0.0,0.0,0.0,-0.5804,-0.5554,-0.5281,-0.5034,-0.4858,-0.4529,-0.4123,-0.356,-0.2965,-0.258,-0.2531,-0.262,-0.2687,-0.2583,-0.2962,-0.2818,-0.2075,-0.1548,-0.0969,-0.025,0.0848,0.1226,0.0899,0.1985,0.2335,0.1906,0.2589,0.3018,0.3176,0.3134,0.3173,0.3217,0.2847,0.2727,0.2799,0.2766,0.33,0.4167,0.458,0.5404,0.6052,0.3967,0.3241,0.0,0.0,0.0257,-0.1123,-0.3239,-0.6243,-0.9042,-0.9131,-1.1778,-1.4999,-1.6466,0.0,0.0,-1.7861,-1.7856,-1.7794,-1.7455,-1.7384,-1.7377,-1.7257,-1.7093,-1.706,-1.7273,-1.7269,-1.7372,-1.7755,-1.7614,-1.7597,-1.7976,-1.7589,-1.7117,-1.6783,-1.6581,-1.62,-1.5512,-1.7469,-1.9081,-1.9872,-2.2472,-2.4238,-2.4695,-2.5056,-2.4941,-2.4298,-2.3384,-2.3255,-2.3979,-2.1827,-2.1428,-2.2774,-2.0309,-1.98,-2.0933,-1.7729,-1.6282,-1.6205,-1.3947,-1.4286,-1.6345,-1.5416,-1.5563,-1.6332,-1.6419,-1.644,-1.6412,-1.6397,-1.6061,-1.5623,0.0,0.0,0.0,0.0,0.0,-0.5944,-0.5554,-0.5289,-0.5181,-0.5439,-0.4966,-0.4392,-0.3858,-0.3253,-0.2736,-0.2335,-0.1962,-0.154,-0.0982,-0.088,-0.0464,0.0355,0.1101,0.1743,0.2376,0.3072,0.357,0.3882,0.4043,0.3899,0.3424,0.3255,0.3098,0.2903,0.2907,0.3062,0.3282,0.3195,0.3326,0.3613,0.4324,0.4942,0.5531,0.6319,0.7376,0.8247,0.7155,0.0,0.0,0.55,0.4306,0.2607,-0.0384,-0.3276,0.0,-0.7172,-1.0408,-1.3986,0.0,0.0,-1.7591,-1.7439,-1.7612,-1.7726,-1.7455,-1.7384,-1.7377,-1.7314,-1.6724,-1.6469,-1.7239,-1.6818,-1.6691,-1.7737,-1.6857,-1.6129,-1.6349,-1.553,-1.5018,-1.5306,-1.5191,-1.4985,0.0,-1.6711,-1.8526,-1.9883,-2.1765,-2.3511,-2.501,-2.522,-2.5283,-2.5264,-2.4418,-2.4277,-2.4956,-2.2058,-2.1012,-2.1821,-2.0044,-1.9546,-2.0094,-1.8485,-1.7611,-1.7272,-1.5692,-1.5477,-1.6186,-1.6023,-1.6024,-1.6157,-1.6681,-1.6789,-1.6651,-1.648,-1.6083,-1.5594,0.0,0.0,0.0,0.0,0.0,0.0,-0.7005,-0.6326,-0.6052,-0.6631,-0.6021,0.0,0.0,0.0,0.0,0.0,-0.2869,-0.2483,-0.1922,-0.129,-0.0457,0.0692,0.2326,0.3533,0.4213,0.542,0.5761,0.5198,0.5823,0.5431,0.4087,0.433,0.4049,0.3316,0.3345,0.3421,0.3519,0.3967,0.4295,0.4684,0.5625,0.6818,0.7989,0.8318,0.9267,1.0338,0.0,0.0,0.0,0.5464,0.3894,0.228,0.026,-0.255,-0.5775,-0.946,-1.1597,-1.3275,0.0,0.0,-1.6953,-1.7947,-1.7893,-1.7683,-1.7938,-1.7485,-1.7034,-1.7141,-1.6484,-1.583,-1.5645,-1.5045,-1.4621,-1.4712,-1.4443,-1.4414,-1.5028,-1.5587,-1.6247,-1.7046,-1.6808,0.0,0.0,0.0,0.0,-1.92,-2.1516,-2.3492,-2.4962,-2.5198,-2.5302,-2.5303,-2.4417,-2.4274,-2.4987,-2.2644,-2.1706,-2.2182,-2.0216,-1.8054,-1.59,-1.6651,-1.6584,-1.5842,-1.536,-1.5637,-1.6388,-1.6397,-1.6203,-1.599,-1.6781,-1.6848,-1.6448,-1.6049,-1.5777,-1.5521,0.0,0.0,0.0,0.0,0.0,0.0,0.0,0.0,0.0,0.0,0.0,0.0,0.0,0.0,0.0,0.0,0.0,-0.2736,-0.2206,-0.1058,0.0137,0.129,0.317,0.4521,0.5226,0.6301,0.6526,0.5919,0.6367,0.5951,0.4769,0.4765,0.4483,0.3943,0.3878,0.4053,0.4424,0.5004,0.561,0.6349,0.7482,0.872,0.987,0.9702,1.0344,0.0,0.0,0.0,0.6848,0.5731,0.4045,0.2074,0.0043,-0.293,-0.6456,-1.0463,-1.1787,-1.245,0.0,-1.5722,-1.6327,-1.7332,-1.751,-1.7524,-1.7838,-1.7416,-1.6975,-1.7083,-1.641,-1.5584,-1.4831,-1.4138,-1.3572,-1.316,-1.2781,-1.2826,-1.3597,-1.4573,-1.5668,-1.6876,-1.73,-1.8093,0.0,0.0,0.0,-1.9901,-2.18,-2.3548,-2.4955,-2.5228,-2.5312,-2.5264,-2.4696,-2.4602,-2.5024,-2.2685,-2.0982,-1.9962,-1.8831,-1.6916,-1.4378,-1.5861,-1.6151,-1.5478,-1.5517,-1.5844,-1.6308,-1.6182,-1.5965,-1.5772,-1.6743,-1.6891,-1.6576,-1.6098,-1.5875,-1.5661,0.0,0.0,0.0,0.0,0.0,0.0,0.0,0.0,0.0,0.0,0.0,0.0,0.0,0.0,0.0,0.0,0.0,0.0,-0.1818,0.0,0.0,0.1993,0.3602,0.4774,0.5448,0.5809,0.5995,0.6055,0.5768,0.5556,0.5308,0.4552,0.4379,0.4716,0.4442,0.4843,0.5786,0.6247,0.712,0.8359,0.9618,1.05,1.1002,1.0398,0.0,0.0,0.0,0.0,0.0,0.0,0.0,0.1866,-0.0957,-0.4252,-0.7594,-1.0059,-1.092,-1.156,-1.3563,-1.4897,-1.5777,-1.5809,-1.6644,-1.7403,-1.7297,-1.7231,-1.7174,-1.7108,-1.65,-1.5699,0.0,0.0,-1.3501,-1.3024,-1.1965,-1.1447,-1.2279,-1.2746,-1.3579,0.0,0.0,0.0,0.0,0.0,0.0,-2.2007,0.0,-2.3615,-2.5031,-2.5292,-2.5341,-2.5222,-2.5264,-2.5224,-2.5038,-2.2149,-1.8989,-1.5622,-1.6173,-1.6062,-1.5393,-1.6132,-1.631,-1.6121,-1.6094,-1.6035,-1.5898,-1.5496,-1.5387,-1.5565,-1.6522,-1.6955,-1.6927,-1.6564,-1.628,-1.5852,0.0,0.0,0.0,0.0,0.0,0.0,0.0,0.0,0.0,0.0,0.0,0.0,0.0,0.0,0.0,0.0,0.0,0.0,0.0,0.0,0.0,0.0,0.0,0.0,0.0,0.0,0.0,0.0,0.5072,0.4707,0.4135,0.4031,0.3882,0.3701,0.4271,0.4797,0.5276,0.6366,0.7133,0.7724,0.0,0.9991,1.0855,0.0,0.0,0.0,0.0,0.0,0.0,0.0,0.0,0.0,0.0,-0.605,-0.7966,-0.9741,-1.0909,-1.1976,-1.3661,-1.5259,-1.6621,-1.7452,-1.793,-1.8186,-1.8111,-1.7508,-1.6942,-1.6882,-1.6321,-1.5211,0.0,0.0,0.0,-1.1031,-1.0825,0.0,-1.339,-1.4169,0.0,-1.7659,0.0,-1.9994,-2.2417,-2.2137,0.0,0.0,-2.373,-2.3827,-2.5046,-2.5293,-2.5351,-2.5274,-2.5341,-2.4995,-2.4213,-2.0916,-1.8107,-1.5886,-1.5459,-1.5156,-1.5051,-1.5566,-1.5494,-1.4952,-1.5548,-1.5534,-1.5124,-1.5467,-1.5375,-1.5182,-1.6656,-1.6912,-1.6423,-1.6064,-1.5795,-1.5475,0.0,0.0,0.0,0.0,0.0,0.0,0.0,0.0,0.0,0.0,0.0,0.0,0.0,0.0,0.0,0.0,0.0,0.0,0.0,0.0,0.0,0.0,0.0,0.0,0.0,0.0,0.0,0.0,0.0,0.0,0.2544,0.28,0.2983,0.3181,0.4018,0.4754,0.5499,0.6585,0.0,0.0,0.0,0.0,0.0,0.0,0.0,0.0,0.0,0.0,0.0,0.0,0.0,-0.2879,-0.4915,-0.6484,-0.7921,-0.9532,0.0,-1.1623,-1.3031,-1.4836,-1.6411,-1.6834,-1.7741,-1.841,-1.8004,-1.7469,-1.7052,-1.6959,-1.6618,0.0,-1.23,-1.2679,0.0,0.0,0.0,0.0,-1.4311,-1.5567,-1.708,0.0,-1.9881,0.0,-2.3645,-2.3395,-2.3713,0.0,-2.4626,-2.4473,-2.5154,-2.5313,-2.5379,-2.5351,-2.5351,-2.4328,-2.217,-1.9875,-1.7625,-1.5474,-1.5291,-1.5074,-1.4918,-1.5463,-1.5358,-1.4735,0.0,-1.5401,-1.51,-1.5287,-1.5261,-1.5153,-1.6152,-1.647,-1.628,-1.5991,-1.5734,-1.538,0.0,0.0,0.0,0.0,0.0,0.0,0.0,0.0,0.0,0.0,-0.9537,-0.8826,0.0,0.0,0.0,0.0,0.0,0.0,0.0,0.0,0.0,0.0,0.0,0.0,0.0,0.0,0.0,0.0,0.0,0.0,0.0,0.0,0.0,0.0,0.0,0.0,0.0,0.0,0.0,0.0,0.0,0.0,0.0,0.0,0.0,0.0,0.0,0.0,0.0,0.0,-0.1663,-0.2887,-0.4696,-0.6151,-0.7548,-0.9366,-1.0293,-1.1009,-1.2263,-1.4185,-1.5787,-1.5433,-1.6941,-1.8294,-1.7542,-1.7337,-1.7264,-1.7117,0.0,-1.5945,-1.2419,-1.3232,-1.3523,-1.0735,0.0,-1.44,-1.5554,-1.6992,-1.842,-1.9822,-2.0606,-2.1727,-2.3467,-2.3811,-2.427,-2.5146,-2.5206,-2.5233,-2.5303,-2.5341,-2.5341,-2.5332,-2.499,-2.322,-1.9893,-1.8944,-1.7246,-1.4808,-1.5315,-1.5388,-1.5122,-1.5684,-1.5684,-1.5188,-1.5446,-1.5492,-1.5418,-1.5165,-1.5149,-1.5341,-1.558,-1.5909,-1.6192,-1.605,-1.5761,-1.5401,0.0,0.0,0.0,0.0,0.0,0.0,0.0,0.0,0.0,0.0,-1.0805,-1.0166,0.0,0.0,0.0,0.0,0.0,0.0,0.0,0.0,0.0,0.0,0.0,0.0,0.0,0.0,0.0,0.0,0.0,0.0,0.0,0.0,0.0,0.0,0.0,0.0,0.0,0.0,0.0,0.0,0.0,0.0,0.0,0.0,0.0,0.0,0.0,0.0,0.0,0.0,-0.1518,-0.2818,-0.4853,-0.6048,-0.7103,-0.9347,-1.0381,-1.1189,-1.2678,-1.4634,-1.626,-1.6157,-1.7354,-1.8443,-1.7866,-1.7542,0.0,0.0,-1.7,-1.6418,-1.4195,-1.5096,-1.5766,-1.4501,-1.5101,-1.6442,-1.8669,-1.8369,-1.8542,0.0,-2.0276,-2.0557,-2.1673,-2.248,0.0,0.0,-2.4839,-2.522,-2.5292,-2.5201,-2.5072,-2.4917,-2.3169,-2.1368,-1.9585,-1.7748,-1.6113,-1.4714,-1.4825,-1.5281,-1.6065,-1.6241,-1.6303,-1.6241,-1.6272,0.0,-1.5536,-1.5404,-1.5389,-1.5492,-1.5808,-1.5896,-1.5843,-1.5538,-1.5318,-1.5071,0.0,0.0,0.0,0.0,0.0,0.0,0.0,-0.9707,-1.0294,-1.0888,-1.1219,-1.1242,-1.0919,-0.9964,-0.9193,0.0,0.0,0.0,0.0,0.0,0.0,0.0,0.0,0.0,0.0,0.0,0.0,0.0,0.0,0.0,0.0,0.0,0.0,0.0,0.0,0.0,0.0,0.0,0.0,0.0,0.0,0.0,0.0,0.0,0.0,0.0,0.0,0.0,0.0,0.0,-0.1179,-0.2259,-0.4066,-0.5429,-0.6633,-0.8245,-0.9614,-1.0845,-1.1765,-1.4058,-1.611,-1.5816,-1.7164,-1.8418,-1.7895,0.0,0.0,0.0,-1.71,-1.6522,-1.4424,-1.5384,0.0,-1.4685,-1.6171,-1.7924,-1.9069,-1.9219,0.0,-2.0292,-2.0041,-2.0183,0.0,-2.1833,-2.27,-2.3965,-2.4341,-2.4752,-2.5214,-2.4998,-2.4598,-2.4044,-2.2776,-2.1218,-1.9307,-1.8188,-1.6886,-1.5433,-1.5772,-1.6157,-1.6573,-1.6939,-1.7197,-1.7299,-1.7299,-1.7015,-1.6528,-1.6278,-1.601,-1.577,-1.5755,-1.5828,-1.5923,-1.5726,-1.5494,-1.5216,0.0,0.0,0.0,0.0,0.0,0.0,-0.8639,-0.9389,-1.0067,-1.0497,-1.1475,-1.2064,-1.1886,-1.095,-1.0184,0.0,0.0,0.0,0.0,0.0,0.0,0.0,0.0,0.0,0.0,0.0,0.0,0.0,0.0,0.0,0.0,0.0,0.0,0.0,0.0,0.0,0.0,0.0,0.0,0.0,0.0,0.0,0.0,0.0,0.0,0.0,0.0,0.0,0.0,0.0,-0.088,-0.1637,-0.3024,-0.4568,-0.6129,-0.7276,-0.8779,-1.0173,-1.0805,-1.3191,-1.5419,-1.5168,-1.6689,-1.8186,-1.7924,-1.7631,0.0,0.0,-1.7117,-1.646,-1.479,0.0,-1.6056,0.0,-1.6829,-1.8695,-1.906,-1.9638,-2.0101,0.0,-1.993,0.0,-2.09,-2.1386,0.0,-2.3676,-2.3945,-2.4335,-2.501,-2.4672,-2.4123,-2.343,-2.2718,-2.1395,-1.9438,-1.8909,-1.7945,-1.6561,-1.6995,-1.7227,-1.7303,-1.7874,-1.8186,-1.8216,-1.8127,-1.793,-1.7615,-1.7056,-1.6646,-1.6294,-1.5857,-1.5846,-1.6058,-1.5932,-1.5659,-1.5374,0.0,0.0,0.0,0.0,0.0,0.0,-0.8933,-0.958,-1.0401,-1.1505,-1.201,-1.2476,-1.2991,-1.1933,-1.1045,0.0,0.0,0.0,0.0,0.0,0.0,0.0,0.0,0.0,0.0,0.0,0.0,0.0,0.0,0.0,0.0,0.0,0.0,0.0,0.0,0.0,0.0,0.0,0.0,0.0,0.0,0.0,0.0,0.0,0.0,0.0,0.0,0.0,0.0,0.0,0.0,-0.1102,-0.2047,-0.3707,-0.5599,-0.7346,0.0,0.0,-1.0766,-1.2415,-1.391,-1.4642,-1.6129,-1.7522,-1.7983,0.0,0.0,-1.7376,-1.6839,-1.639,-1.6645,-1.6696,0.0,0.0,0.0,-1.8427,0.0,-1.9521,-1.9338,-2.0598,0.0,0.0,-1.9904,-2.09,-2.1856,-2.2687,-2.385,-2.4545,-2.4559,-2.4192,-2.3908,-2.3771,-2.2306,-2.1156,-2.0488,-1.895,-1.81,-1.7992,-1.7696,-1.8012,-1.891,-1.9153,-1.9119,-1.8867,-1.8453,-1.8361,0.0,-1.7086,-1.6886,-1.7371,-1.6549,-1.6139,-1.5973,-1.5595,-1.5371,-1.5227,0.0,0.0,0.0,0.0,0.0,0.0,-0.8969,-0.8917,-0.9308,-1.0753,-1.1005,-1.1468,-1.2592,-1.2039,-1.1719,-1.2036,0.0,0.0,0.0,0.0,0.0,0.0,0.0,0.0,0.0,0.0,-1.3446,-1.3341,-1.3902,0.0,0.0,0.0,0.0,0.0,0.0,0.0,0.0,0.0,0.0,0.0,0.0,0.0,0.0,0.0,0.0,0.0,0.0,0.0,0.0,0.0,0.0,0.0,-0.2303,-0.3572,0.0,0.0,-0.7846,-0.9399,-1.0306,-1.2148,-1.4019,-1.4757,-1.5606,-1.6473,-1.7216,0.0,-1.6139,-1.6814,-1.653,-1.6317,-1.688,-1.6805,-1.6755,0.0,0.0,0.0,-1.8724,0.0,-1.8626,-1.9441,-1.9309,0.0,0.0,0.0,-2.1265,-2.2448,-2.3742,-2.4428,-2.4266,-2.3883,-2.3332,-2.2665,-2.2114,-2.1067,-1.953,-1.9453,-1.8943,-1.8016,-1.8219,-1.8555,-1.9043,-1.9435,-1.9651,-1.9786,-1.9793,-1.9358,0.0,-1.7846,-1.7273,-1.6772,-1.6215,-1.5955,-1.5841,-1.5566,-1.5344,-1.519,0.0,0.0,0.0,0.0,0.0,-0.8088,-0.8989,-0.8598,-0.864,-0.988,-1.021,-1.0729,-1.1791,-1.1928,-1.2171,-1.2796,-1.1994,0.0,0.0,0.0,0.0,0.0,0.0,0.0,0.0,0.0,-1.4595,-1.4692,-1.5326,-1.4969,0.0,0.0,0.0,0.0,0.0,0.0,0.0,0.0,0.0,0.0,0.0,0.0,0.0,0.0,0.0,0.0,0.0,0.0,0.0,0.0,0.0,0.0,0.0,0.0,0.0,0.0,-0.7466,-0.9282,-1.0021,-1.1764,-1.3599,-1.4516,-1.5004,-1.5526,0.0,0.0,-1.5401,-1.6122,-1.606,-1.6007,-1.6516,-1.6594,-1.6581,0.0,0.0,-1.7249,-1.7606,-1.7679,-1.7899,0.0,0.0,-1.9399,0.0,-2.0508,-2.1243,-2.1969,-2.3251,-2.3879,-2.3652,-2.3378,-2.2888,-2.2122,-2.1596,-2.0709,-1.9386,-1.9782,-1.9553,-1.8654,-1.9055,-1.9333,-1.9516,-2.016,-2.0509,-2.0618,-2.0703,-2.0138,0.0,-1.8312,-1.742,-1.6481,-1.6031,-1.5827,-1.577,-1.5551,-1.5325,-1.5107,0.0,0.0,0.0,0.0,0.0,-0.8117,-0.9058,-0.8909,-0.8828,-0.918,-1.0015,-1.0635,-1.0789,-1.1626,-1.2374,-1.2774,-1.1993,0.0,0.0,0.0,0.0,0.0,0.0,0.0,0.0,0.0,-1.4988,-1.5605,-1.6465,-1.6236,-1.4984,-1.5598,-1.462,-1.235,0.0,0.0,0.0,0.0,0.0,0.0,0.0,0.0,0.0,0.0,0.0,0.0,0.0,0.0,0.0,0.0,0.0,0.0,0.0,0.0,0.0,0.0,-0.7287,-0.8536,-1.0077,-1.1089,-1.213,-1.3812,-1.4362,-1.486,0.0,0.0,-1.4862,-1.5407,-1.5402,-1.539,-1.5655,-1.6158,-1.6501,-1.6501,0.0,0.0,-1.7471,-1.7103,0.0,0.0,0.0,-1.9957,-2.0351,-2.1657,-2.2035,-2.0996,-2.2224,0.0,-2.2533,-2.2586,-2.2617,-2.2574,-2.0584,-1.9893,-2.0669,-1.9783,-1.9677,-2.0387,-2.0317,-2.0382,-2.0599,-2.1685,-2.1904,-2.1378,-2.0833,-2.0569,0.0,-1.8197,-1.7221,-1.7011,-1.6283,-1.5926,-1.577,-1.5507,-1.5181,-1.4913,0.0,0.0,0.0,0.0,0.0,0.0,-0.96,-0.8767,-0.8328,-0.9051,-0.898,-0.93,-1.0417,-1.0952,-1.1667,-1.2773,-1.2209,0.0,0.0,0.0,0.0,0.0,0.0,0.0,0.0,-1.4927,-1.5359,-1.574,-1.7075,-1.7093,-1.5906,-1.628,-1.5406,-1.3529,-1.3041,0.0,0.0,0.0,0.0,0.0,0.0,0.0,0.0,0.0,0.0,0.0,0.0,0.0,0.0,0.0,0.0,0.0,0.0,0.0,0.0,-0.8136,-0.8964,-0.9817,-1.0634,-1.1234,-1.167,-1.1905,-1.2444,-1.2976,-1.312,0.0,-1.4035,-1.5322,-1.5399,-1.5495,-1.6427,-1.6527,-1.6501,-1.6554,-1.6176,0.0,0.0,0.0,0.0,-1.8346,-1.9864,-2.0833,0.0,0.0,-2.3011,-2.2642,-2.3197,-2.3376,-2.299,-2.1485,-2.1049,-2.2023,-2.016,-1.9177,-1.9275,-1.8375,-1.8136,-1.8567,-1.8929,-1.9693,-2.075,-2.1325,-2.183,-2.2212,-2.2213,-2.1232,-1.9557,-1.8778,-1.755,-1.6097,-1.5684,-1.5832,-1.6246,-1.5937,-1.565,-1.5398,0.0,0.0,0.0,0.0,0.0,0.0,-0.978,-0.875,-0.8067,-0.8519,-0.8387,-0.8613,-0.9548,-1.0575,-1.1603,-1.2513,-1.2673,0.0,0.0,0.0,0.0,0.0,0.0,0.0,-1.4699,-1.533,-1.5803,-1.6057,-1.7143,-1.7253,-1.6378,-1.6334,-1.5569,-1.4228,-1.3846,-1.3242,0.0,0.0,0.0,0.0,0.0,0.0,-0.717,0.0,0.0,0.0,0.0,0.0,0.0,0.0,0.0,0.0,0.0,0.0,0.0,0.0,-1.0213,-1.0897,0.0,-1.1376,-1.1471,-1.1854,-1.2081,0.0,0.0,0.0,-1.4217,-1.5238,-1.5595,-1.5934,-1.6547,-1.6648,-1.6617,-1.6581,-1.6176,0.0,0.0,0.0,0.0,-1.9386,0.0,0.0,0.0,-2.2674,-2.3276,-2.2797,-2.3125,-2.3261,-2.3028,-2.1343,-2.0648,-2.124,-1.9177,-1.816,-1.8483,-1.7612,-1.7358,-1.7664,-1.8299,-1.9343,-2.0701,-2.1418,-2.2235,-2.3066,-2.3253,-2.1936,0.0,-1.9135,-1.7634,-1.5639,-1.5681,-1.5748,-1.5845,-1.6239,-1.5763,-1.4955,0.0,0.0,0.0,0.0,0.0,0.0,0.0,-0.8775,-0.8017,-0.7785,-0.8205,-0.8489,-0.8508,-1.0496,-1.1914,-1.2123,-1.3361,0.0,0.0,0.0,0.0,0.0,0.0,0.0,-1.5227,-1.5792,-1.6208,-1.647,-1.6841,-1.6834,-1.6496,-1.5955,-1.5288,-1.4515,-1.4172,-1.378,-1.321,-1.1139,-0.9937,-0.9335,-0.8479,-0.8289,0.0,0.0,0.0,0.0,0.0,0.0,0.0,0.0,0.0,0.0,0.0,0.0,0.0,0.0,0.0,0.0,0.0,-1.1625,-1.1465,-1.305,-1.2821,-1.2596,-1.4236,0.0,0.0,-1.5112,-1.5861,-1.6398,-1.6138,-1.6524,-1.6825,-1.6565,-1.6301,-1.6095,0.0,-1.6664,0.0,0.0,-2.1839,0.0,-2.1988,-2.2936,-2.3073,-2.1931,-2.2352,-2.2642,-2.2686,-2.1871,-2.1098,-2.0403,-1.778,-1.6969,-1.8212,-1.7327,-1.7066,-1.7544,-1.8185,-1.9199,-2.0591,-2.1859,-2.297,0.0,-2.3876,-2.252,-2.0213,-1.9278,-1.7546,-1.5551,-1.6122,-1.5708,-1.5001,-1.6475,-1.5705,-1.4011,0.0,0.0,0.0,0.0,0.0,0.0,0.0,0.0,0.0,0.0,-0.845,-0.8796,-0.9545,-1.0638,-1.1616,0.0,0.0,0.0,0.0,0.0,0.0,0.0,0.0,0.0,-1.5563,-1.5821,-1.6083,-1.6344,-1.6795,-1.6835,-1.6484,-1.6048,-1.5458,-1.4717,-1.4331,-1.3678,-1.2783,-1.1522,-1.0813,-1.0532,-0.9595,-0.9245,0.0,0.0,0.0,0.0,-0.8349,-0.8234,0.0,0.0,0.0,0.0,0.0,0.0,0.0,0.0,-1.1465,-1.2129,-1.2812,0.0,-1.1655,-1.1137,-1.1492,-1.1892,0.0,0.0,0.0,0.0,0.0,-1.5534,-1.5898,-1.6386,-1.6747,-1.6738,-1.6421,-1.6231,-1.6421,0.0,0.0,-2.0986,-2.2194,-2.2848,-2.2756,-2.3472,-2.3768,-2.3338,-2.3145,-2.2904,-2.2485,-2.1135,-2.0352,-2.0317,-1.7613,-1.6625,-1.7517,-1.6124,-1.5842,-1.6752,-1.7188,-1.8621,-2.0966,-2.16,-2.2876,-2.4523,-2.3997,-2.2384,-2.007,-1.9121,-1.7436,-1.5433,-1.5624,-1.618,-1.6859,-1.7117,-1.6688,-1.6007,0.0,0.0,0.0,0.0,0.0,0.0,0.0,0.0,0.0,0.0,-0.8485,-0.8792,-0.969,-1.0742,-1.1656,0.0,0.0,0.0,0.0,0.0,0.0,0.0,0.0,-1.5766,-1.5792,-1.62,-1.6401,-1.6386,-1.6437,-1.6449,-1.6432,-1.5698,-1.5156,-1.4775,-1.4156,-1.3686,-1.3257,-1.215,-1.1818,-1.2015,-1.0979,0.0,0.0,0.0,0.0,0.0,-0.8846,-0.8814,0.0,-0.8667,-0.8488,-0.8349,0.0,0.0,0.0,0.0,-1.1354,-1.189,-1.3123,-1.2872,-1.2156,-1.1605,-1.1923,-1.2286,-1.2014,0.0,0.0,0.0,0.0,0.0,-1.6034,-1.6412,-1.667,-1.6659,-1.6628,0.0,0.0,0.0,-2.0151,-2.153,-2.2573,-2.3127,0.0,-2.3621,-2.3856,-2.3279,-2.3276,-2.3017,-2.2395,-2.1301,-2.0621,-2.0299,-1.8298,-1.7156,-1.7107,-1.5629,-1.5274,-1.5932,-1.6441,-1.8087,-2.0755,-2.1248,-2.2674,-2.4689,-2.3747,-2.2205,-2.0269,-1.8951,-1.7381,-1.5781,-1.5934,-1.6298,-1.6742,-1.7417,-1.706,-1.6293,0.0,0.0,0.0,0.0,0.0,0.0,0.0,0.0,0.0,0.0,0.0,0.0,0.0,0.0,0.0,0.0,0.0,0.0,0.0,0.0,0.0,0.0,-1.6733,-1.6517,-1.5991,-1.6623,-1.6882,-1.6642,-1.6084,-1.6028,-1.6394,-1.5238,-1.4697,-1.4668,-1.3863,-1.3701,-1.3949,-1.2779,-1.2687,-1.3269,-1.2164,0.0,0.0,0.0,0.0,0.0,0.0,0.0,0.0,-0.8952,-0.8822,-0.8765,-0.8837,0.0,0.0,0.0,0.0,0.0,-1.3157,-1.3233,-1.2891,-1.3124,-1.3155,-1.3271,-1.3697,0.0,0.0,0.0,0.0,0.0,0.0,-1.6512,0.0,0.0,0.0,0.0,-1.9729,-2.0323,-2.1055,-2.2268,-2.2919,0.0,-2.2955,-2.3579,-2.363,-2.2763,-2.3071,-2.3035,-2.2385,-2.1845,-2.1195,-2.0449,-1.92,-1.8127,-1.7234,-1.5728,-1.5119,-1.5433,-1.5876,-1.7536,-2.017,-2.0512,-2.1969,-2.4126,0.0,0.0,-1.9965,-1.8378,-1.703,-1.6033,-1.627,-1.6184,-1.608,-1.7488,-1.7204,-1.6147,0.0,0.0,0.0,0.0,0.0,0.0,0.0,0.0,0.0,0.0,0.0,0.0,0.0,0.0,0.0,0.0,0.0,0.0,0.0,0.0,0.0,-1.627,-1.6409,-1.6436,-1.6405,-1.6747,-1.7052,-1.7351,-1.6316,-1.6063,-1.6537,-1.5232,-1.4464,-1.4186,-1.371,-1.3564,-1.362,-1.2986,-1.2872,-1.3067,-1.2208,0.0,0.0,0.0,0.0,0.0,0.0,0.0,0.0,-0.8984,-0.8943,-0.8943,-0.9469,0.0,0.0,0.0,0.0,0.0,-1.3191,-1.3749,-1.3952,-1.4,-1.4151,-1.4356,-1.4701,0.0,0.0,0.0,0.0,0.0,0.0,0.0,0.0,0.0,0.0,-1.8953,0.0,0.0,-2.1487,-2.2743,0.0,-2.3177,-2.3523,-2.3522,-2.3405,-2.3211,-2.3007,-2.2773,-2.2579,-2.1744,-2.1164,-2.0959,-1.9542,-1.8751,-1.8691,-1.646,-1.5531,-1.5983,-1.5377,-1.6699,-1.957,-1.8614,-1.9515,-2.1795,0.0,-1.8255,-1.7334,-1.638,-1.5614,-1.5125,-1.5217,-1.5941,-1.7002,-1.7311,-1.7561,-1.7598,0.0,0.0,0.0,0.0,0.0,0.0,0.0,0.0,0.0,0.0,0.0,0.0,0.0,0.0,0.0,0.0,0.0,0.0,0.0,0.0,-1.5119,-1.5781,-1.5824,-1.595,-1.634,-1.6565,-1.6674,-1.6642,-1.5967,-1.5679,-1.5767,-1.4934,-1.4384,-1.4033,-1.3897,-1.4005,-1.4293,-1.3925,-1.3856,-1.3909,0.0,0.0,0.0,0.0,0.0,0.0,0.0,0.0,0.0,0.0,-0.9597,-0.9408,-1.003,0.0,0.0,0.0,0.0,0.0,-1.3399,-1.3941,-1.4235,-1.4337,-1.4424,-1.4446,-1.4337,0.0,0.0,0.0,0.0,0.0,0.0,0.0,-1.7468,-1.8451,0.0,-2.0047,-2.1535,-2.1851,-2.2167,0.0,0.0,-2.3126,-2.3499,-2.343,-2.3336,-2.3289,-2.307,-2.2816,-2.2605,-2.2022,-2.1565,-2.126,-2.0405,-1.9932,-1.9858,-1.8026,-1.7183,-1.729,-1.7142,-1.8301,-2.0562,-2.0036,-2.0337,-2.1162,0.0,-1.8277,-1.6704,-1.5834,-1.5264,-1.4919,-1.5179,-1.5953,-1.7033,-1.7813,-1.7903,-1.7572,0.0,0.0,0.0,0.0,0.0,0.0,0.0,0.0,0.0,0.0,0.0,0.0,0.0,0.0,0.0,0.0,0.0,0.0,0.0,-1.4008,-1.4602,-1.5226,-1.5166,-1.5389,-1.595,-1.6003,-1.5941,-1.5655,-1.5291,-1.5122,-1.5139,-1.4623,-1.4422,-1.4456,-1.4212,-1.4483,-1.5079,-1.4827,-1.4746,-1.4741,0.0,0.0,0.0,0.0,0.0,0.0,0.0,0.0,0.0,0.0,0.0,0.0,0.0,0.0,0.0,-1.152,-1.1984,-1.2401,-1.3378,-1.3874,-1.4124,-1.4356,0.0,-1.4631,-1.4337,0.0,0.0,0.0,0.0,0.0,0.0,-1.6952,0.0,-1.983,-2.0339,-2.0993,-2.2286,-2.2542,-2.2685,-2.2893,-2.2952,-2.307,-2.3313,-2.3265,-2.3241,-2.3265,-2.3095,-2.285,-2.2659,-2.2309,-2.1953,-2.154,-2.1245,-2.1023,-2.0861,-1.9856,-1.9051,-1.8504,-1.8592,-1.9568,-2.1249,-2.1026,-2.0924,-2.0872,-1.9624,-1.8071,-1.6295,-1.5218,-1.4668,-1.4562,-1.5005,-1.5799,-1.6836,-1.7974,-1.7912,-1.7276,0.0,0.0,0.0,0.0,0.0,0.0,0.0,0.0,0.0,0.0,0.0,0.0,0.0,0.0,0.0,0.0,0.0,0.0,0.0,-1.3664,-1.3956,-1.4474,-1.4533,-1.4769,-1.5271,-1.4926,-1.4807,-1.4965,-1.4336,-1.445,-1.5268,-1.4423,-1.4686,-1.58,-1.4628,-1.47,-1.5719,-1.5263,-1.5084,-1.5047,-1.3749,0.0,0.0,0.0,0.0,0.0,0.0,0.0,0.0,0.0,0.0,0.0,0.0,0.0,-1.0544,-1.1726,-1.2006,-1.2128,-1.3,-1.3425,-1.3749,-1.4124,-1.4752,0.0,-1.5902,-1.6554,0.0,0.0,0.0,0.0,0.0,-1.7947,-1.9125,-2.0753,-2.115,-2.1564,-2.2556,0.0,-2.2712,-2.297,-2.2944,-2.2952,-2.3119,-2.307,-2.3052,-2.3193,-2.2952,-2.2816,-2.279,-2.2419,-2.2096,-2.1853,-2.1738,-2.1634,-2.1617,-2.154,-2.0702,-1.9117,-1.8218,-1.8756,-2.0525,-1.9235,-1.9292,-2.0271,-1.7121,-1.5645,-1.5343,-1.3562,-1.3033,-1.3454,-1.4072,-1.5265,-1.6736,-1.7085,-1.7253,-1.7281,0.0,0.0,0.0,0.0,0.0,0.0,0.0,0.0,0.0,0.0,0.0,-1.0161,-1.0311,0.0,0.0,0.0,0.0,0.0,0.0,-1.2922,-1.314,-1.3749,-1.3596,-1.3171,-1.2475,-1.3306,-1.353,-1.3163,-1.3448,-1.3861,-1.4383,-1.4933,-1.5315,-1.5569,-1.5383,-1.5317,-1.5355,-1.5488,-1.5125,-1.4379,-1.3511,-1.2706,0.0,0.0,0.0,0.0,0.0,0.0,0.0,0.0,-0.9972,-0.9737,-1.0447,-1.0687,-1.0867,-1.1542,-1.1909,-1.2223,-1.2953,-1.3263,-1.3522,-1.3967,0.0,0.0,0.0,0.0,0.0,0.0,0.0,0.0,0.0,0.0,-1.9531,-2.1077,-2.1511,-2.1883,-2.249,-2.2552,-2.2579,-2.2738,-2.2685,-2.2712,-2.2842,-2.279,-2.2816,-2.2944,-2.279,-2.2685,-2.2685,-2.2398,-2.2175,-2.1969,-2.1869,-2.1781,-2.1768,-2.1768,-2.1552,-2.1067,-2.0719,-2.1028,-2.1905,-2.1374,-2.021,-1.8514,-1.7134,-1.507,-1.268,-1.1836,-1.1675,-1.2102,-1.3703,-1.5257,-1.6684,-1.6996,-1.6903,-1.6585,0.0,0.0,0.0,0.0,0.0,0.0,0.0,0.0,-0.8523,0.0,0.0,0.0,0.0,-0.9953,0.0,0.0,0.0,0.0,-1.2489,-1.2551,-1.2726,-1.3238,-1.2928,-1.2189,-1.1014,-1.1834,-1.188,-1.1104,-1.2327,-1.3405,-1.4351,-1.5247,-1.5744,-1.5977,-1.5997,-1.5911,-1.5708,-1.5948,-1.5419,-1.4365,-1.3618,-1.2669,0.0,0.0,0.0,0.0,0.0,0.0,0.0,0.0,-1.0067,-0.9873,-1.0342,-1.0702,-1.0966,-1.1174,-1.1505,-1.1909,-1.252,-1.2836,-1.3067,0.0,0.0,0.0,0.0,0.0,0.0,0.0,0.0,0.0,0.0,0.0,0.0,0.0,-2.1735,-2.1931,-2.2055,-2.2296,-2.2375,-2.22,-2.2361,-2.2542,-2.2632,-2.2596,-2.2605,-2.2764,-2.2632,-2.2579,-2.2605,-2.2432,-2.222,-2.2027,-2.194,-2.1869,-2.1768,-2.1811,-2.1928,-2.2175,-2.2237,-2.2415,-2.2738,-2.2738,-2.1032,-1.805,-1.709,-1.4725,-1.1479,-1.0729,-1.0952,-1.1912,-1.3512,-1.5051,-1.6451,-1.656,-1.6371,-1.5964,0.0,0.0,0.0,0.0,0.0,0.0,0.0,0.0,-0.9459,-0.9666,-1.0482,0.0,0.0,0.0,0.0,0.0,0.0,0.0,-1.2437,-1.2685,-1.2838,-1.2896,-1.265,-1.2165,-1.1399,-1.0664,-0.9853,-0.8925,-1.0935,-1.3142,-1.5479,-1.5228,-1.5918,-1.7368,-1.6479,-1.6442,-1.6968,-1.6686,-1.6074,-1.5213,-1.4196,-1.3167,-1.2188,0.0,0.0,0.0,0.0,0.0,0.0,0.0,-0.979,-1.0169,-1.0033,-1.0366,-1.075,-1.0693,-1.0802,-1.1029,-1.1627,-1.1993,0.0,0.0,0.0,0.0,0.0,0.0,0.0,0.0,0.0,0.0,0.0,0.0,0.0,-2.1532,-2.1811,-2.1707,-2.1187,-2.1781,-2.205,-2.1385,-2.2,-2.2515,-2.2487,-2.2432,-2.2487,-2.2685,-2.2569,-2.2542,-2.2579,-2.246,-2.2276,-2.2027,-2.194,-2.184,-2.1708,-2.184,-2.1969,-2.2096,-2.2175,-2.2332,-2.2605,-2.2605,-2.1396,-1.9223,-1.6613,-1.4349,-1.2322,-1.04,-1.1043,-1.3235,-1.3435,-1.4541,-1.5978,-1.5694,-1.5604,-1.5549,0.0,0.0,0.0,0.0,0.0,0.0,0.0,0.0,-0.9295,-0.9394,-1.0196,0.0,0.0,0.0,0.0,0.0,0.0,0.0,-1.202,-1.2365,-1.2544,-1.2615,-1.2603,-1.2047,-1.0923,-1.0267,-0.9917,-0.99,-1.1996,-1.3568,-1.4603,-1.551,-1.6276,-1.6885,-1.6479,-1.6328,-1.6324,-1.5491,-1.4891,-1.4391,-1.3071,-1.2207,-1.1641,0.0,0.0,0.0,0.0,0.0,0.0,0.0,0.0,0.0,-0.9442,-0.9547,-0.9645,-1.0177,-1.0309,-1.039,-1.1057,0.0,0.0,0.0,0.0,0.0,0.0,0.0,0.0,0.0,0.0,0.0,-1.7628,0.0,0.0,-2.0413,-2.0845,-2.1147,-2.1607,-2.1989,-2.2158,-2.195,-2.2175,-2.2338,-2.2282,-2.2254,-2.2265,-2.2332,-2.2293,-2.231,-2.2304,-2.2321,-2.2265,-2.2152,-2.2015,-2.194,-2.1911,-2.1882,-2.1986,-2.2175,-2.2192,-2.2304,-2.2542,-2.2432,-2.0347,-1.6739,-1.5273,-1.2617,-0.9368,-0.9795,-1.168,-1.4335,-1.4343,-1.5282,-1.6545,-1.5879,-1.544,-1.5148,0.0,0.0,0.0,0.0,0.0,0.0,-0.9056,-0.9136,-0.9088,-0.874,-0.9579,-1.0128,0.0,0.0,0.0,0.0,0.0,0.0,0.0,-1.2113,-1.2401,-1.2615,-1.265,-1.2213,-1.1231,-1.1,-1.1097,-1.1517,-1.268,-1.3647,-1.4515,-1.5514,-1.6102,-1.6309,-1.6328,-1.6234,-1.6037,-1.5513,-1.4775,-1.3936,-1.3032,-1.211,-1.1267,0.0,0.0,0.0,0.0,0.0,0.0,0.0,0.0,0.0,-0.8896,0.0,-0.9031,-0.9631,-0.9671,-0.9674,-1.034,0.0,0.0,0.0,0.0,0.0,0.0,0.0,0.0,0.0,0.0,-1.6426,-1.6969,-1.7556,0.0,-1.9393,-1.9987,-2.045,-2.0858,-2.1537,-2.1936,-2.1754,-2.2057,-2.2254,-2.2225,-2.218,-2.2135,-2.2209,-2.2123,-2.2077,-2.2089,-2.2106,-2.2094,-2.2036,-2.1945,-2.1899,-2.1899,-2.1911,-2.1986,-2.2089,-2.2118,-2.2175,-2.2287,-2.2276,-2.0191,-1.6458,-1.4479,-1.2095,-0.9729,-1.0497,-1.2366,-1.4755,-1.4719,-1.5468,-1.6527,-1.6052,-1.5886,-1.5726,0.0,0.0,-0.9062,-0.9518,0.0,0.0,-0.9359,-0.9288,-0.8958,-0.8072,-0.8924,-0.9451,0.0,0.0,0.0,-1.1142,-1.1325,-1.1421,-1.1485,-1.1968,-1.2401,-1.2768,-1.2838,-1.2687,-1.2242,-1.2562,-1.2984,-1.3612,-1.3129,-1.3597,-1.493,-1.5254,-1.5536,-1.5681,-1.6011,-1.6095,-1.6024,-1.6223,-1.5344,-1.3867,-1.371,-1.267,-1.124,-1.1343,0.0,0.0,0.0,0.0,0.0,0.0,0.0,0.0,-0.8409,-0.8427,-0.8719,-0.9039,-0.8914,-0.8855,-0.9502,0.0,0.0,0.0,0.0,0.0,0.0,0.0,0.0,0.0,0.0,-1.6316,-1.6484,-1.7334,-1.8145,-1.8482,-1.9245,-1.9725,-1.956,-2.0796,-2.1536,-2.1106,-2.1709,-2.2197,-2.2254,-2.2089,-2.2015,-2.214,-2.1991,-2.1869,-2.184,-2.1811,-2.1751,-2.1751,-2.1708,-2.1648,-2.1648,-2.1853,-2.1911,-2.1869,-2.194,-2.1969,-2.1969,-2.2089,-2.0546,-1.7563,-1.3989,-1.2388,-1.2369,-1.2161,-1.3252,-1.499,-1.4935,-1.546,-1.6271,-1.6366,-1.6668,-1.6955,0.0,0.0,-1.0099,-1.0186,0.0,0.0,-0.9853,-0.9765,-0.954,-0.9253,-0.9487,-0.9774,-1.005,-1.0485,0.0,-1.0947,-1.1298,-1.1474,-1.149,-1.2041,-1.2484,-1.2709,-1.3185,-1.3621,-1.4033,-1.4211,-1.4581,-1.5121,-1.4143,-1.4152,-1.5072,-1.4973,-1.5118,-1.5477,-1.5595,-1.5769,-1.5938,-1.5061,-1.4861,-1.5023,-1.3788,-1.3164,-1.291,-1.2257,-1.1858,0.0,0.0,0.0,0.0,0.0,0.0,0.0,-0.8372,-0.8046,-0.7815,-0.8274,-0.8187,-0.8021,0.0,-0.8594,0.0,0.0,0.0,0.0,0.0,0.0,0.0,0.0,-1.4216,-1.4681,-1.4917,-1.5469,-1.6352,-1.7805,-1.8516,-1.9276,-2.0415,-2.1176,-2.1615,-2.1556,-2.1744,-2.1915,-2.1974,-2.1857,-2.1738,-2.1741,-2.1711,-2.1603,-2.1433,-2.1509,-2.1524,-2.1479,-2.1479,-2.1448,-2.1448,-2.1509,-2.157,-2.1664,-2.1738,-2.1738,-2.1694,-2.1784,-1.9984,-1.6608,-1.3196,-1.2506,-1.3772,-1.3618,-1.5051,-1.729,-1.6627,-1.6865,-1.7554,-1.7274,-1.727,-1.7361,0.0,0.0,0.0,0.0,0.0,0.0,0.0,0.0,-1.0215,-0.9864,-1.0,-1.0166,-1.0235,-1.0791,0.0,0.0,-1.1538,-1.1748,-1.17,-1.2174,-1.2579,-1.292,-1.361,-1.4158,-1.4518,-1.4862,-1.5367,-1.6045,-1.5148,-1.49,-1.5278,-1.4998,-1.5058,-1.5344,-1.558,-1.5726,-1.5725,-1.5296,-1.4963,-1.463,-1.3864,-1.3346,-1.2986,-1.2597,-1.2396,-1.2223,-1.1608,0.0,0.0,0.0,0.0,0.0,0.0,0.0,-0.7797,-0.7997,-0.7637,-0.7245,0.0,0.0,0.0,0.0,0.0,0.0,0.0,0.0,0.0,-1.1252,-1.2518,-1.3609,-1.3782,-1.4224,-1.5082,-1.6553,-1.7477,-1.8483,-1.9808,-2.0622,-2.1183,-2.1433,-2.1432,-2.1493,-2.1645,-2.1587,-2.1464,-2.1402,-2.1419,-2.1325,-2.1103,-2.123,-2.1293,-2.1277,-2.1277,-2.1309,-2.1309,-2.134,-2.1371,-2.1404,-2.1511,-2.1526,-2.145,-2.1166,-1.9981,-1.8051,-1.6089,-1.5709,-1.6457,-1.6442,-1.7102,-1.8092,-1.7936,-1.7979,-1.8071,-1.8155,-1.8361,-1.8546,0.0,0.0,0.0,0.0,0.0,0.0,0.0,0.0,0.0,-1.0534,-1.0649,-1.0687,-1.0418,-1.1169,-1.1616,0.0,0.0,0.0,-1.1945,-1.2354,-1.2791,-1.3267,-1.3983,-1.4449,-1.4578,-1.5144,-1.5815,-1.6573,-1.6007,-1.5724,-1.5744,-1.5417,-1.5284,-1.5412,-1.5787,-1.5787,-1.5507,-1.5826,-1.524,-1.4111,-1.4126,-1.3654,-1.294,-1.2998,-1.2958,-1.2871,-1.2719,-1.2401,-1.1861,-1.0826,0.0,0.0,0.0,0.0,-0.8157,-0.7896,-0.7121,-0.6496,0.0,0.0,0.0,0.0,0.0,0.0,0.0,0.0,0.0,-0.885,-1.0754,-1.246,-1.2693,-1.3209,-1.4,-1.5338,-1.6498,-1.764,-1.8838,-1.9786,-2.0496,-2.0926,-2.091,-2.0942,-2.1182,-2.1166,-2.1103,-2.1071,-2.1055,-2.0958,-2.0795,-2.0925,-2.0974,-2.0974,-2.1038,-2.1087,-2.1087,-2.1119,-2.1167,-2.1119,-2.1246,-2.1309,-2.123,-2.0677,-2.0277,-1.9981,-1.9495,-1.9176,-1.8975,-1.909,-1.8804,-1.8399,-1.8945,-1.8843,-1.8443,-1.9046,-1.9517,-1.9845,0.0,0.0,0.0,0.0,0.0,0.0,0.0,0.0,0.0,0.0,-1.1653,-1.1505,-1.1653,-1.1884,-1.1957,-1.1737,-1.2174,-1.2354,-1.2174,0.0,0.0,-1.3514,-1.4031,-1.4629,-1.5332,-1.5724,-1.6209,-1.6844,-1.6466,-1.6452,0.0,-1.6429,-1.6101,-1.5758,-1.6097,-1.5946,-1.5418,-1.5477,-1.5433,-1.536,-1.5197,-1.4929,-1.4656,-1.4439,-1.4192,-1.3927,-1.3514,-1.3148,-1.273,-1.1925,-1.1116,0.0,0.0,0.0,-0.8103,-0.763,-0.6702,-0.5813,0.0,0.0,0.0,0.0,0.0,0.0,0.0,0.0,-0.6719,0.0,-0.9143,-1.0538,-1.1079,-1.1809,-1.2996,-1.5016,-1.6031,-1.7135,-1.8855,-1.9456,-1.9808,-2.0039,-2.0174,-2.0292,-2.0416,-2.0398,-2.0395,-2.0512,-2.0395,-2.0361,-2.0373,-2.0441,-2.0491,-2.0491,-2.0577,-2.0595,-2.0595,-2.0595,-2.0662,-2.076,-2.0827,-2.0958,-2.1119,-2.0911,-2.0543,-2.0056,-1.9479,-1.9171,-1.9188,-1.9244,-1.929,-1.9328,-1.94,-1.9421,-1.9475,-2.0066,-2.028,-2.0279,0.0,0.0,0.0,0.0,0.0,0.0,0.0,0.0,0.0,0.0,0.0,-1.2295,-1.209,-1.2437,-1.2602,-1.2437,-1.2731,-1.2906,-1.2824,-1.3138,-1.3357,-1.3493,-1.3877,-1.4361,-1.5031,-1.5337,-1.5886,-1.6705,-1.6606,0.0,0.0,-1.706,-1.6849,-1.6465,-1.634,-1.6147,-1.5901,-1.5565,-1.5477,-1.5463,-1.5239,-1.5088,-1.4982,-1.478,-1.4543,-1.4268,-1.4026,-1.3669,-1.3182,-1.2614,-1.1586,-1.0407,-0.9582,0.0,0.0,0.0,-0.6517,0.0,-0.447,0.0,0.0,0.0,0.0,0.0,0.0,0.0,-0.5789,-0.6099,-0.7212,-0.8512,-0.9903,-1.1025,-1.2207,-1.367,-1.4991,-1.6202,-1.7281,-1.8103,-1.875,-1.9126,-1.9177,-1.9288,-1.9651,-1.9702,-1.9882,-2.0146,-2.0272,-2.0324,-2.0317,-2.0427,-2.0406,-2.0181,-2.0304,-2.0357,-2.0289,-2.0407,-2.0509,-2.061,-2.0677,-2.081,-2.0925,-2.086,-2.0734,-2.0543,-2.0349,-2.0281,-2.0326,-2.0386,-2.029,-2.0106,-2.0558,-2.0515,-2.029,-2.0978,-2.1128,-2.1043,0.0,0.0,0.0,0.0,0.0,0.0,0.0,0.0,0.0,0.0,0.0,0.0,-1.2901,0.0,0.0,0.0,-1.3395,-1.3552,-1.3728,-1.3856,-1.3869,-1.3801,-1.3917,-1.4175,-1.467,-1.489,-1.5423,-1.625,0.0,0.0,-1.6921,-1.7089,-1.7103,0.0,-1.6507,-1.6261,0.0,0.0,0.0,-1.5532,-1.5162,-1.5013,-1.5058,-1.4904,-1.4732,-1.4525,-1.4461,-1.4124,-1.3615,-1.3022,-1.1966,-1.0772,-0.9826,-0.892,0.0,0.0,0.0,0.0,0.0,0.0,0.0,0.0,0.0,0.0,0.0,0.0,-0.4751,0.0,-0.5662,-0.6809,-0.837,-0.9777,-1.107,-1.2057,-1.3474,-1.4708,-1.5542,-1.6517,-1.733,-1.7972,-1.8039,-1.8249,-1.8636,-1.8999,-1.9392,-1.9764,-2.0175,-2.0421,-2.0504,-2.0522,-2.04,-2.0119,-2.0152,-2.008,-1.994,-2.0096,-2.0235,-2.0357,-2.0475,-2.0577,-2.0662,-2.0695,-2.0728,-2.0811,-2.0974,-2.1087,-2.1183,-2.1262,-2.1093,-2.0849,-2.145,-2.1437,-2.1031,-2.1412,-2.1474,-2.1338,0.0,0.0,0.0,0.0,0.0,0.0,0.0,0.0,0.0,0.0,0.0,0.0,-1.469,-1.4211,-1.4018,-1.4458,-1.4109,-1.4199,-1.4964,-1.499,-1.499,-1.4935,-1.4394,0.0,-1.4607,-1.4672,-1.4995,-1.5558,0.0,0.0,-1.6157,-1.6299,-1.6519,-1.6824,-1.6512,-1.6187,-1.5811,0.0,0.0,0.0,0.0,-1.5088,0.0,0.0,-1.4935,0.0,0.0,-1.4556,-1.4124,-1.3204,-1.2425,-1.1642,-1.0519,-0.9692,-0.8968,0.0,0.0,0.0,0.0,0.0,0.0,0.0,0.0,0.0,0.0,0.0,0.0,-0.4055,-0.4938,-0.562,-0.5947,-0.7549,-0.9251,-1.0523,-1.1261,-1.2351,-1.4232,-1.4911,-1.5558,-1.6401,-1.6886,-1.719,-1.7231,-1.8136,-1.8892,-1.921,-1.9964,-2.0598,-2.1027,-2.0592,-2.0333,-2.038,-1.9945,-1.9617,-1.945,-1.9508,-1.9711,-2.0041,-2.0041,-2.0146,-2.0339,-2.0388,-2.0441,-2.0527,-2.0811,-2.099,-2.1119,-2.123,-2.1402,-2.1554,-2.1648,-2.1781,-2.1766,-2.1088,-2.0799,-2.0659,0.0,0.0,0.0,0.0,0.0,0.0,0.0,0.0,0.0,0.0,0.0,0.0,0.0,-1.5435,-1.5682,-1.5747,-1.5758,-1.5868,-1.6125,-1.6173,-1.5875,-1.5168,-1.4642,-1.4397,-1.4465,-1.4175,-1.4398,0.0,0.0,-1.549,-1.5712,-1.5756,-1.575,-1.5723,-1.5749,-1.577,-1.5763,-1.5041,0.0,0.0,0.0,0.0,0.0,0.0,0.0,0.0,0.0,0.0,-1.4222,-1.3715,-1.2514,-1.1162,-1.0509,-0.9509,-0.8491,-0.8084,0.0,0.0,0.0,0.0,0.0,0.0,0.0,0.0,0.0,-0.2298,-0.2774,-0.3156,-0.3687,-0.4206,-0.4581,-0.6648,-0.8567,-0.924,-1.036,-1.1361,-1.2041,-1.3212,-1.4159,-1.4789,-1.5528,-1.6188,-1.6659,-1.7245,-1.7885,-1.8553,-1.9068,-1.9488,-1.9781,-1.9748,-1.9674,-1.9578,-1.9405,-1.931,-1.9258,-1.9236,-1.931,-1.9479,-1.9603,-1.9762,-1.9904,-1.9995,-2.0135,-2.0357,-2.0376,-2.0613,-2.099,-2.1135,-2.1246,-2.1419,-2.1495,-2.1587,-2.1625,-2.0986,-2.0749,-2.0705,0.0,0.0,0.0,0.0,0.0,-1.5827,-1.5799,-1.5787,-1.571,-1.5482,0.0,0.0,0.0,0.0,-1.6423,-1.6352,-1.6782,-1.7086,-1.7051,-1.7121,-1.6817,-1.6034,-1.5274,-1.4813,-1.4762,-1.4123,-1.4141,0.0,0.0,0.0,0.0,-1.5198,-1.5203,-1.5045,-1.4992,-1.5197,0.0,0.0,0.0,-1.5117,0.0,0.0,-1.5578,0.0,0.0,0.0,0.0,0.0,0.0,-1.3901,-1.2639,-1.118,-1.0906,-0.9895,0.0,0.0,0.0,0.0,0.0,0.0,0.0,0.0,0.0,-0.1411,-0.1539,0.0,-0.2445,-0.2502,-0.2903,-0.3289,-0.3456,-0.519,-0.6728,-0.7205,-0.8523,-0.9532,-0.9707,-1.1259,-1.2606,-1.3361,-1.4275,-1.5096,-1.5896,-1.6504,-1.7217,-1.7991,-1.8682,0.0,-1.9404,-1.9419,-1.927,-1.8979,-1.8822,-1.8784,-1.8846,-1.8784,-1.8769,-1.8907,-1.9072,-1.9273,-1.9384,-1.9515,-1.9711,-1.9904,-1.996,-2.0292,-2.0778,-2.0893,-2.1023,-2.1183,-2.1277,-2.1402,-2.146,-2.0916,-2.0611,-2.0441,0.0,0.0,-1.5387,-1.5581,-1.5815,-1.5916,-1.5858,-1.6293,-1.6541,-1.6337,0.0,0.0,0.0,0.0,0.0,-1.6263,-1.7152,-1.7738,-1.7738,-1.7847,-1.7833,-1.7585,-1.6325,-1.5556,-1.5414,-1.4627,-1.4261,0.0,0.0,0.0,0.0,0.0,-1.48,-1.488,-1.436,-1.4441,-1.4967,0.0,-1.4765,-1.5209,0.0,-1.5529,-1.5872,0.0,0.0,0.0,-1.5891,-1.5324,0.0,-1.3769,0.0,0.0,0.0,0.0,0.0,0.0,0.0,0.0,0.0,0.0,0.0,0.0,0.0,0.0,-0.1877,0.0,-0.2012,-0.2183,-0.2629,-0.2907,-0.2514,-0.3067,-0.369,-0.4275,-0.5585,-0.6753,-0.735,-0.9085,-1.0771,-1.2125,-1.3014,-1.3852,-1.4709,-1.5856,-1.6785,-1.7467,-1.8711,-1.9591,-1.9986,-1.9601,-1.9121,-1.8687,-1.8254,-1.8042,-1.8163,-1.8042,-1.8068,-1.8266,-1.8383,-1.8592,-1.8784,-1.8988,-1.9064,-1.9101,-1.9588,-2.0015,-2.046,-2.061,-2.0777,-2.0893,-2.1103,-2.1277,-2.1303,-2.0838,-2.0317,-1.9807,0.0,-1.543,-1.59,-1.6151,-1.6612,-1.7018,-1.7079,-1.7196,-1.7184,0.0,0.0,0.0,-1.7423,-1.7598,-1.7727,-1.7727,-1.7957,-1.8131,-1.8131,-1.8275,-1.7963,-1.7188,-1.668,-1.6101,-1.5476,-1.4693,-1.4294,0.0,0.0,-1.401,-1.4114,-1.4104,-1.4244,-1.4547,-1.4369,-1.4338,-1.4339,-1.4398,0.0,-1.5265,-1.6059,-1.6236,0.0,0.0,0.0,0.0,0.0,-1.6117,-1.5384,0.0,-1.3713,-1.275,0.0,0.0,0.0,0.0,0.0,0.0,-0.562,0.0,0.0,0.0,0.0,0.0,-0.198,-0.1747,-0.1578,-0.2006,-0.1792,-0.1512,-0.1624,-0.1624,-0.1728,-0.1873,-0.3627,-0.5161,-0.5686,-0.7037,-0.8358,-0.9453,-1.063,-1.1675,-1.2503,-1.3956,-1.5074,0.0,-1.6898,-1.7853,-1.8219,-1.8221,-1.818,-1.7975,-1.7841,-1.7679,-1.7488,-1.7447,-1.7393,-1.7366,-1.7558,-1.7733,-1.7868,-1.8254,-1.8489,-1.8553,-1.8921,-1.9221,-1.953,-2.015,-2.0543,-2.0777,-2.0826,-2.0719,-2.0464,-2.0007,-1.9577,-1.9185,-1.4783,-1.5336,-1.5886,-1.6128,-1.6731,-1.7165,-1.6983,-1.7426,-1.7641,0.0,0.0,0.0,-1.765,-1.7915,-1.8135,-1.8135,-1.8161,-1.8147,-1.8108,-1.8214,-1.797,-1.7261,-1.697,-1.6488,-1.5768,-1.501,-1.4541,0.0,-1.3905,-1.3716,-1.3773,-1.3668,-1.3858,-1.4244,-1.414,-1.4163,0.0,0.0,0.0,0.0,-1.5984,0.0,0.0,-1.771,-1.7744,0.0,0.0,0.0,-1.5689,-1.4846,-1.4042,0.0,0.0,0.0,0.0,0.0,0.0,0.0,0.0,0.0,0.0,0.0,0.0,0.0,-0.2175,-0.1729,-0.14,-0.167,-0.1289,-0.0954,-0.101,-0.0842,-0.0673,-0.0617,-0.1895,-0.3164,-0.4045,-0.5554,-0.694,-0.7911,-0.9158,-1.0386,-1.1388,-1.259,-1.3575,-1.4226,-1.5501,-1.66,-1.731,-1.7475,-1.7557,-1.7557,-1.7434,-1.7186,-1.685,-1.682,-1.6735,-1.657,-1.6727,-1.6854,-1.7005,-1.7434,-1.7639,-1.7693,-1.8133,-1.8302,-1.8366,-1.9207,-1.9839,-2.0357,-2.0494,-2.0384,-2.01,-1.9927,-1.9501,-1.892,0.0,-1.5156,-1.5714,-1.5918,-1.661,-1.6941,-1.6451,-1.7436,-1.7942,0.0,-1.789,-1.8307,-1.7963,-1.7922,-1.7882,-1.7882,-1.7935,-1.7882,-1.772,-1.7828,-1.7747,-1.7393,-1.7089,-1.6642,-1.6071,-1.5389,-1.4731,-1.4129,-1.3705,-1.3467,-1.3324,-1.3324,0.0,-1.3915,-1.3668,-1.3952,-1.4569,0.0,0.0,-1.4839,-1.5511,-1.6147,0.0,0.0,-1.7697,-1.733,-1.6852,-1.6269,-1.559,-1.4718,-1.398,0.0,0.0,0.0,0.0,0.0,-0.9683,0.0,0.0,0.0,0.0,0.0,-0.2835,0.0,-0.2467,-0.1958,-0.1443,-0.1324,-0.1054,-0.0832,-0.0665,-0.0499,-0.0333,-0.0223,-0.0446,-0.1114,-0.2504,-0.4371,-0.5946,-0.6951,-0.8159,-0.9451,-1.0728,-1.1534,-1.2345,-1.3125,-1.4424,-1.5727,-1.6969,-1.7122,-1.718,-1.7282,-1.696,-1.6607,-1.6225,-1.6132,-1.6001,-1.5856,-1.5952,-1.6039,-1.6182,-1.6539,-1.671,-1.671,-1.7216,-1.7354,-1.7233,-1.7933,-1.8803,-1.9702,-1.9803,-1.9916,-1.9919,-1.9478,-1.9132,-1.8826,-1.4972,-1.5564,-1.6181,-1.6748,-1.7453,-1.7981,-1.8031,-1.8314,-1.8442,-1.8204,-1.8154,-1.8082,0.0,-1.7949,-1.7882,-1.7882,-1.7679,-1.7419,-1.7157,-1.7173,-1.7047,-1.6723,-1.6637,-1.6337,-1.5712,-1.5073,-1.4433,-1.3705,-1.319,0.0,0.0,0.0,0.0,0.0,-1.3515,-1.3847,-1.428,0.0,0.0,-1.523,-1.5911,0.0,-1.6503,-1.7299,-1.7422,-1.7092,-1.6753,-1.6324,-1.5787,-1.4818,-1.3888,-1.3135,0.0,0.0,0.0,-1.142,0.0,0.0,0.0,0.0,0.0,0.0,0.0,0.0,-0.2941,-0.2338,-0.1786,-0.1544,-0.1031,-0.0618,-0.0412,-0.0206,-0.0156,-0.0428,-0.0376,-0.0597,-0.1503,-0.2674,-0.3892,-0.5097,-0.6452,-0.7622,-0.8453,-1.0195,-1.1388,-1.1672,-1.3918,-1.5426,-1.5788,-1.6459,-1.6752,-1.662,-1.6219,-1.5913,-1.5756,-1.5457,-1.5244,-1.513,-1.522,-1.5322,-1.5367,-1.58,-1.6008,-1.6008,-1.6386,-1.6685,-1.6854,-1.6608,-1.7437,-1.8754,-1.7114,-1.7827,-1.9249,-1.4327,-1.5156,-1.8344,-1.4507,-1.5291,-1.6049,-1.6308,-1.718,-1.7786,-1.763,-1.7993,-1.8207,-1.7876,-1.7995,0.0,0.0,0.0,0.0,-1.7801,-1.7584,-1.7337,-1.7002,-1.685,-1.6582,-1.6175,-1.5988,-1.568,-1.5142,-1.4674,-1.4118,-1.342,0.0,0.0,0.0,0.0,0.0,0.0,0.0,-1.3525,0.0,0.0,-1.4455,-1.4891,-1.5457,0.0,-1.6355,-1.6993,-1.7143,-1.6943,-1.7079,-1.6439,-1.5496,-1.4832,-1.3934,0.0,-1.3276,-1.2779,-1.2174,0.0,-1.1424,-1.0349,0.0,0.0,0.0,-0.5802,0.0,0.0,0.0,-0.2967,-0.2358,-0.1957,-0.1462,-0.0958,-0.0655,-0.0454,-0.0406,-0.0465,-0.0474,-0.0696,-0.1307,-0.2158,-0.3123,-0.4288,-0.5464,-0.6514,-0.73,-0.8683,-0.9918,-1.0905,-1.2657,-1.3859,-1.4257,-1.5311,-1.5788,-1.5567,-1.5623,-1.5558,-1.5266,-1.4766,-1.4501,-1.4466,-1.4316,-1.4362,-1.4569,-1.5006,-1.5093,-1.4905,-1.5516,-1.5656,-1.5471,-1.5489,-1.6026,-1.6811,-1.6151,-1.678,-1.767,-1.4523,-1.4915,-1.6743,-1.4006,-1.4853,-1.5581,-1.5642,-1.6534,-1.7074,-1.6798,-1.741,-1.7784,-1.7422,-1.7846,0.0,0.0,0.0,0.0,0.0,0.0,-1.7323,-1.696,-1.6607,-1.6219,-1.5792,-1.5457,-1.5096,-1.4708,-1.4326,-1.3847,-1.3112,-1.2745,0.0,0.0,0.0,0.0,0.0,0.0,0.0,0.0,0.0,0.0,-1.4419,0.0,-1.5445,-1.6182,-1.6697,-1.6754,-1.6566,-1.6872,-1.6255,-1.5175,-1.4818,-1.4053,-1.3243,-1.3474,-1.3087,0.0,0.0,0.0,0.0,0.0,0.0,0.0,0.0,0.0,-0.5007,0.0,0.0,0.0,-0.2635,0.0,0.0,0.0,0.0,0.0,0.0,0.0,0.0,0.0,-0.2155,0.0,-0.3895,-0.4919,-0.5827,-0.6549,-0.7348,-0.8543,-1.0222,-1.1229,-1.2157,-1.3044,-1.4317,-1.5039,-1.4967,-1.5211,-1.5234,-1.4912,-1.4104,-1.3742,-1.3716,-1.3372,-1.3362,-1.3763,-1.4054,-1.4078,-1.395,-1.4563,-1.4629,-1.4282,-1.4373,-1.4526,-1.4732,-1.5192,-1.5737,-1.6039,-1.4807,-1.4728,-1.5081,-1.4402,-1.4602,-1.4909,-1.5814,-1.6043,-1.6286,-1.6876,-1.7229,-1.7625,0.0,0.0,0.0,0.0,0.0,0.0,0.0,0.0,0.0,-1.6761,0.0,-1.6069,-1.5715,-1.5447,-1.5074,-1.4627,-1.4197,-1.3658,-1.2861,-1.251,-1.2126,0.0,0.0,0.0,0.0,-1.2676,0.0,0.0,0.0,-1.3999,0.0,-1.4419,-1.4915,0.0,-1.6293,-1.6156,-1.5485,-1.5005,-1.5073,-1.5301,0.0,-1.4236,-1.3656,0.0,-1.3419,-1.3057,-1.2803,0.0,0.0,0.0,0.0,0.0,0.0,-0.611,0.0,0.0,0.0,-0.4052,-0.349,0.0,0.0,0.0,0.0,0.0,0.0,0.0,0.0,-0.227,-0.2391,-0.2767,-0.3387,-0.4582,-0.5419,-0.5661,-0.6627,-0.7893,-0.9344,-1.0439,-1.1635,-1.3055,-1.4191,-1.5161,-1.5931,-1.5017,-1.4654,-1.4909,-1.3496,-1.2754,-1.2764,-1.2463,-1.256,-1.2948,-1.2759,-1.316,-1.3939,-1.3292,-1.374,-1.4846,-1.3011,-1.2726,-1.34,-1.2483,-1.3652,-1.522,-0.9909,-1.0867,-1.4294,-1.4382,-1.441,-1.4747,-1.5732,-1.5936,-1.6169,-1.6828,-1.724,-1.7516,0.0,0.0,0.0,0.0,0.0,0.0,0.0,0.0,-1.7282,0.0,0.0,0.0,-1.5881,-1.5289,-1.4754,-1.4373,-1.3905,-1.3324,-1.2754,-1.2372,-1.1977,0.0,0.0,0.0,0.0,-1.2332,0.0,-1.2745,0.0,-1.3563,0.0,0.0,0.0,0.0,-1.5744,-1.6279,-1.6584,-1.5283,-1.5248,-1.5575,0.0,-1.3839,0.0,0.0,0.0,0.0,-1.2902,0.0,0.0,0.0,0.0,0.0,0.0,0.0,0.0,-0.6446,0.0,-0.532,0.0,0.0,0.0,0.0,0.0,0.0,0.0,-0.3023,0.0,0.0,0.0,-0.3254,0.0,0.0,0.0,-0.5247,-0.6117,-0.7094,-0.818,-0.9285,-1.0241,-1.0945,-1.2745,-1.3719,-1.3806,-1.3981,-1.3972,-1.3771,-1.2523,-1.1864,-1.1765,-1.1633,-1.1683,-1.2012,-1.233,-1.2614,-1.2846,-1.2923,-1.3322,-1.3835,-1.2329,-1.2377,-1.3286,-1.1937,-1.2299,-1.3303,-1.0809,-1.1118,-1.2479,-1.4625,-1.4574,-1.4815,-1.5651,-1.5802,-1.6115,-1.687,-1.724,-1.7475,0.0,0.0,0.0,-1.7625,-1.7733,0.0,0.0,-1.7393,-1.7282,0.0,0.0,-1.6238,0.0,-1.5289,0.0,-1.4326,-1.3752,-1.319,-1.2676,-1.2274,-1.1877,0.0,0.0,0.0,0.0,0.0,-1.2175,-1.2323,0.0,-1.2977,-1.3324,-1.36,-1.4025,-1.4582,-1.5224,-1.6161,-1.6943,-1.5438,-1.5216,-1.5501,-1.4345,-1.3756,0.0,-1.3274,0.0,-1.2661,0.0,0.0,0.0,-1.118,0.0,0.0,0.0,0.0,0.0,0.0,0.0,0.0,0.0,0.0,0.0,0.0,0.0,0.0,0.0,0.0,-0.3943,0.0,-0.3863,0.0,0.0,0.0,0.0,0.0,-0.5575,-0.6352,-0.7286,-0.8415,-0.9266,-0.9907,-1.163,-1.2572,-1.2615,-1.3048,-1.3096,-1.2739,-1.1609,-1.1015,-1.0914,-1.0956,-1.1158,-1.1425,-1.192,-1.212,-1.2195,-1.2318,-1.2611,-1.2872,-1.1698,-1.1953,-1.3017,-1.1803,-1.1562,-1.1902,-1.1855,-1.1512,-1.0965,-1.5311,-1.5109,0.0,-1.5593,-1.5583,-1.5881,-1.7024,-1.7199,-1.7365,0.0,0.0,0.0,0.0,0.0,0.0,0.0,0.0,-1.7002,-1.6918,0.0,-1.6349,0.0,0.0,-1.5085,0.0,-1.3952,-1.3286,-1.2676,-1.2274,0.0,0.0,0.0,0.0,0.0,-1.1477,-1.1628,-1.1769,-1.2058,-1.2353,-1.2657,-1.2919,-1.3447,-1.4111,0.0,-1.5389,-1.5648,-1.4662,0.0,0.0,-1.4212,-1.4275,0.0,0.0,0.0,0.0,0.0,0.0,0.0,0.0,0.0,0.0,-0.8365,0.0,0.0,0.0,0.0,-0.7587,0.0,0.0,0.0,0.0,0.0,0.0,0.0,0.0,0.0,0.0,0.0,0.0,0.0,0.0,0.0,0.0,-0.4988,-0.5751,0.0,-0.7973,-0.9317,-1.0843,-1.1502,-1.2411,-1.3614,-1.2495,-1.1933,-1.2019,-1.0854,-1.0269,-1.0269,-1.0549,-1.0972,-1.146,-1.1028,-1.1499,-1.2589,-1.1189,-1.1373,-1.2504,-1.085,-1.0973,-1.2194,-1.1621,-1.149,-1.1589,-1.1304,-1.0772,-1.0139,-1.5298,-1.5386,0.0,0.0,0.0,0.0,-1.6714,-1.7086,0.0,0.0,-1.7144,0.0,0.0,-1.7102,-1.706,0.0,0.0,-1.7073,-1.696,-1.6693,0.0,0.0,0.0,-1.4983,0.0,0.0,-1.3296,-1.2431,-1.2224,0.0,0.0,0.0,0.0,0.0,0.0,-1.1157,0.0,0.0,0.0,0.0,0.0,-1.3381,-1.3721,0.0,-1.5393,-1.5544,-1.5138,-1.5094,0.0,-1.4323,-1.3954,-1.3655,-1.3031,-1.2497,-1.202,-1.1467,-1.0833,-1.0254,0.0,0.0,-0.8967,-0.8708,0.0,0.0,0.0,0.0,0.0,0.0,0.0,0.0,0.0,0.0,0.0,0.0,0.0,0.0,0.0,0.0,0.0,0.0,0.0,0.0,0.0,0.0,0.0,0.0,-0.7723,0.0,-0.955,-1.0802,-1.16,-1.1896,-1.1711,-1.1472,-1.1231,-1.0306,-0.9828,-0.9821,-0.9829,-1.0043,-1.0403,-1.0789,-1.1206,-1.1475,-1.0967,-1.1172,-1.1751,-1.0355,-1.0631,-1.1876,-1.1185,-1.1267,-1.1712,-1.2215,-1.1816,-1.1051,-1.552,-1.5596,0.0,0.0,0.0,0.0,0.0,0.0,0.0,0.0,-1.6802,0.0,-1.6997,0.0,-1.7232,0.0,-1.7273,-1.72,-1.7114,-1.6721,0.0,-1.625,-1.5724,0.0,0.0,0.0,0.0,0.0,0.0,-1.1912,0.0,0.0,0.0,0.0,0.0,-1.0772,-1.111,-1.1339,-1.1764,0.0,0.0,-1.2937,0.0,0.0,-1.4733,-1.494,0.0,-1.479,-1.4498,-1.3883,-1.3462,-1.3112,-1.2652,-1.2074,-1.146,-1.112,-1.051,-0.9894,-0.9742,-0.9578,0.0,-0.919,-0.9291,0.0,-0.9044,0.0,-0.8799,0.0,0.0,0.0,0.0,0.0,0.0,0.0,0.0,0.0,0.0,-0.5572,0.0,0.0,0.0,0.0,0.0,0.0,0.0,0.0,0.0,0.0,0.0,-1.0512,-1.1122,-1.0926,-1.0941,-1.0725,-1.031,-0.9869,-0.9613,-0.9552,-0.9821,-1.0043,-1.0205,-1.082,-1.1124,-1.1074,-1.0743,-1.0822,-1.1077,-0.9977,-1.0395,-1.1582,-1.1021,-1.1341,-1.2132,-1.23,-1.2139,-1.1751,-1.6032,-1.5736,0.0,0.0,-1.6037,0.0,0.0,0.0,-1.62,0.0,-1.6532,-1.6596,-1.699,-1.7326,-1.763,-1.7846,-1.7551,-1.733,-1.7305,-1.6804,0.0,0.0,-1.578,-1.5257,-1.4725,0.0,0.0,0.0,0.0,0.0,0.0,0.0,0.0,0.0,-1.028,0.0,-1.0499,-1.1,-1.1161,-1.1132,-1.1669,-1.2013,-1.2323,-1.2929,-1.3388,-1.3795,-1.4179,-1.3723,-1.2977,-1.2977,-1.2993,-1.2931,-1.2452,-1.2164,-1.1908,-1.1449,-1.0832,-1.0276,-1.0169,-1.0228,-1.0231,-0.9761,-0.9977,0.0,0.0,0.0,-0.93,0.0,0.0,0.0,0.0,0.0,0.0,0.0,0.0,0.0,0.0,0.0,0.0,0.0,0.0,0.0,0.0,0.0,0.0,0.0,0.0,0.0,0.0,-1.0588,-1.0885,-1.0759,-1.0205,-0.9744,-0.9538,-0.954,-0.9546,-0.9508,-1.0419,-1.0871,-1.0871,-1.1023,-1.1209,-1.1358,-1.0463,-1.0219,-1.041,-0.9721,-1.0146,-1.1213,-1.1062,-1.1699,-1.2609,-1.1667,-1.1761,-1.2201,-1.5925,-1.557,-1.5636,0.0,-1.6074,-1.5721,0.0,0.0,0.0,0.0,-1.6776,-1.6894,-1.7183,-1.7158,-1.7253,-1.7618,-1.7615,0.0,0.0,0.0,0.0,-1.6057,-1.5232,-1.4711,-1.4637,-1.3922,-1.3221,-1.255,0.0,0.0,-1.0769,0.0,0.0,0.0,0.0,0.0,-1.0329,-1.0697,-1.0929,-1.1066,-1.1587,-1.1659,-1.1619,0.0,-1.2434,-1.2914,-1.3992,-1.4114,-1.3749,-1.3939,-1.3609,-1.3087,-1.275,-1.2423,-1.2036,-1.148,-1.1354,-1.133,-1.0988,-1.0901,-1.0794,-1.0374,-1.0204,-1.0041,0.0,0.0,0.0,0.0,0.0,0.0,0.0,0.0,0.0,0.0,0.0,0.0,0.0,0.0,0.0,-0.7014,0.0,0.0,0.0,0.0,0.0,0.0,0.0,0.0,0.0,0.0,-0.9483,-0.9662,-0.9642,-0.9734,-0.9947,-0.9532,-0.9721,-1.0602,-1.0159,-1.0241,-1.0769,-1.0769,-1.0614,-1.0279,-0.9894,-0.9678,-0.951,-0.9171,-0.9331,-0.988,-1.0637,-1.1195,-1.1624,-1.1972,-1.2427,-1.2695,-1.6304,-1.5946,0.0,-1.6683,0.0,0.0,-1.6032,-1.6467,0.0,-1.6327,-1.6535,0.0,-1.7175,-1.7231,-1.7433,-1.7918,-1.773,0.0,-1.7003,0.0,0.0,-1.5715,-1.5108,-1.4722,-1.4549,-1.4023,0.0,-1.255,0.0,0.0,-1.0624,0.0,0.0,0.0,0.0,-0.9804,-0.9983,-1.0279,-1.0519,-1.0736,-1.0931,-1.1046,0.0,-1.1427,-1.1719,-1.2107,-1.2977,-1.324,-1.3217,-1.3367,-1.301,-1.2535,-1.2615,-1.2317,-1.1884,-1.1738,-1.1765,-1.1785,-1.1583,-1.151,-1.1352,-1.0929,-1.0693,-1.0407,-0.9847,-0.974,-0.9756,0.0,-0.9478,-0.9264,0.0,0.0,0.0,0.0,0.0,0.0,0.0,0.0,0.0,0.0,-0.6943,0.0,0.0,0.0,0.0,0.0,0.0,0.0,0.0,0.0,-0.9149,-0.944,-0.9444,-0.9623,-0.9901,-0.966,-0.9886,-1.0546,-1.0219,-1.0249,-1.0616,-1.0505,-1.0261,-0.9939,-0.9544,-0.9338,-0.9281,-0.9055,-0.92,-0.9665,-1.0668,-1.0804,-1.0443,-1.1211,-1.1743,-1.2037,-1.6876,-1.6515,0.0,0.0,0.0,0.0,0.0,-1.648,0.0,-1.5773,0.0,-1.6719,-1.7092,-1.7388,-1.781,-1.8259,0.0,-1.7323,-1.6895,-1.6452,-1.5905,-1.5233,-1.5017,-1.4769,-1.4461,-1.4283,-1.367,0.0,0.0,0.0,0.0,0.0,0.0,0.0,0.0,0.0,0.0,-0.9893,-1.0073,-1.0214,-1.0135,-1.0302,-1.0629,-1.0886,-1.1107,-1.1368,-1.1569,-1.1838,-1.2062,-1.2165,-1.196,-1.1752,-1.2243,-1.2096,-1.183,-1.2147,-1.2196,-1.2129,-1.2173,-1.2039,-1.1837,-1.1465,-1.1158,-1.0756,-0.992,-0.9994,-1.0131,-0.9847,-0.9659,-0.9503,0.0,0.0,0.0,0.0,0.0,0.0,0.0,0.0,0.0,0.0,0.0,0.0,0.0,0.0,0.0,0.0,0.0,0.0,0.0,0.0,-0.9215,-0.9566,-0.9424,-0.9467,-0.9728,-0.9895,-1.0022,-1.0164,-1.0438,-1.0551,-1.0434,-1.0173,-0.9971,-0.989,-0.9286,-0.9169,-0.93,-0.903,-0.928,-0.9856,-1.0649,-1.0264,-0.934,-0.9887,-1.0369,-1.0729,-1.7148,0.0,0.0,0.0,0.0,-1.6499,-1.6714,-1.6445,-1.6249,-1.6109,-1.6567,-1.6993,-1.717,-1.7135,-1.7301,-1.7634,-1.7556,0.0,0.0,0.0,0.0,-1.4846,-1.4212,-1.401,-1.4273,-1.3467,-1.3016,0.0,0.0,0.0,0.0,0.0,0.0,0.0,0.0,0.0,-1.0138,-0.9881,0.0,-0.9887,-0.9836,-0.9925,-1.0171,-1.0386,-1.043,-1.0454,-1.0454,-1.1074,-1.1818,-1.2015,-1.2067,-1.2069,-1.2241,-1.2416,-1.2532,-1.2579,-1.2841,-1.3117,-1.2996,-1.257,-1.2061,-1.1782,-1.1048,-1.0336,-1.0,-0.9849,-0.973,-0.9384,-0.9495,-0.9448,-0.8807,0.0,0.0,0.0,0.0,0.0,0.0,0.0,0.0,0.0,0.0,-0.7712,0.0,0.0,0.0,0.0,0.0,0.0,0.0,0.0,-0.8039,0.0,-0.8844,0.0,0.0,0.0,-1.012,-1.0998,-1.0354,-1.0124,-1.0262,-0.9802,-0.9426,-0.9085,-0.8885,-0.88,-0.8807,-0.8594,-0.8773,-0.9228,-0.9308,-0.9196,-0.9063,-0.9112,-0.9122,-0.9174,0.0,0.0,0.0,0.0,0.0,0.0,0.0,-1.601,-1.5807,-1.587,-1.6371,-1.6694,-1.6616,-1.656,-1.6616,-1.6832,-1.6899,-1.6502,-1.5549,-1.5496,-1.5017,-1.3952,-1.3647,-1.357,-1.3775,-1.3254,-1.2864,-1.2764,0.0,0.0,0.0,0.0,0.0,0.0,0.0,-0.9971,0.0,0.0,0.0,-0.956,-0.9607,-0.9668,-0.9764,-0.9881,-0.9948,-1.0007,-1.0008,-1.0308,-1.0812,-1.1368,-1.1669,-1.1828,-1.2126,-1.2274,-1.2431,-1.2578,-1.2764,-1.2949,-1.2987,-1.2374,-1.1665,-1.1616,-1.0779,-0.9888,-0.9829,-0.9709,-0.9595,-0.9543,-0.9423,-0.9146,-0.8575,-0.8242,0.0,0.0,0.0,0.0,0.0,0.0,-0.7189,0.0,0.0,0.0,0.0,0.0,0.0,0.0,0.0,-0.7297,-0.7934,0.0,-0.8218,0.0,0.0,0.0,-1.0369,0.0,-1.019,-1.0446,-1.0138,-0.9931,-0.9707,-0.9348,-0.9101,-0.8874,-0.8563,-0.8474,-0.8529,-0.8455,-0.846,-0.8527,-0.8535,-0.8374,-0.821,-0.8463,-0.8684,-0.8964,0.0,-1.5698,0.0,0.0,-1.5632,-1.5188,-1.5533,-1.5365,-1.5265,-1.555,-1.5961,-1.6202,-1.6009,-1.5999,-1.5989,-1.6083,-1.6046,-1.5664,-1.4757,-1.4669,-1.4244,-1.3333,-1.3222,-1.322,-1.331,-1.3056,-1.2774,0.0,0.0,0.0,0.0,0.0,0.0,0.0,0.0,0.0,0.0,0.0,-0.9304,-0.9284,-0.9352,-0.9433,-0.9428,-0.9426,-0.9556,-0.9624,-0.9595,-0.9643,-0.9844,-1.0557,-1.1065,-1.1427,-1.1778,-1.1927,-1.2026,-1.2224,-1.2332,-1.2421,-1.2559,-1.1891,-1.1116,-1.1216,-1.0364,-0.951,-0.9465,-0.9458,-0.9496,-0.9548,-0.916,-0.8723,-0.8411,-0.8116,0.0,0.0,0.0,0.0,0.0,0.0,0.0,0.0,0.0,0.0,-0.8036,0.0,0.0,0.0,0.0,-0.7479,-0.8045,-0.8015,-0.8665,0.0,0.0,-0.997,-1.0646,0.0,-1.0418,-0.9946,-1.0003,-0.973,-0.9203,-0.8945,-0.8786,-0.8778,-0.8451,-0.8332,-0.8365,-0.8332,-0.8118,-0.7844,-0.7968,-0.7795,-0.7482,-0.8025,-0.8468,-0.8907,0.0,0.0,0.0,0.0,0.0,-1.4936,-1.4907,-1.4644,-1.471,-1.532,-1.5622,-1.573,-1.573,-1.5594,-1.541,-1.5284,-1.5284,-1.5042,-1.4373,-1.391,-1.361,-1.3544,-1.2757,-1.2523,-1.3052,-1.2601,-1.2382,0.0,0.0,-1.1318,0.0,0.0,0.0,0.0,0.0,0.0,0.0,-0.8765,-0.8788,-0.9285,-0.893,-0.8874,-0.9053,-0.903,-0.901,-0.8978,-0.8911,-0.9113,-0.9465,-0.9821,-1.0293,-1.0871,-1.1226,-1.1477,-1.1578,-1.1578,-1.1877,-1.2126,-1.2026,-1.1443,-1.0813,-1.0712,-0.9961,-0.9159,-0.8903,-0.9061,-0.9127,-0.8703,-0.8396,-0.8209,-0.8224,-0.7845,-0.7405,0.0,0.0,0.0,0.0,0.0,-0.6634,-0.7391,0.0,0.0,-0.8553,-0.8521,0.0,0.0,-0.7795,-0.7576,-0.765,-0.8076,-0.8798,-0.9807,-1.0135,-1.047,-1.0869,-1.106,-1.0924,-1.0431,-1.0004,-0.9514,-0.8937,-0.8656,-0.8495,-0.8462,-0.8578,-0.8472,-0.8218,-0.8103,-0.7739,-0.7293,-0.7405,-0.7475,-0.7523,-0.7885,-0.8066,-0.8237,0.0,0.0,0.0,0.0,0.0,0.0,0.0,-1.4289,-1.424,-1.4522,-1.4678,-1.4687,-1.4639,-1.4742,-1.4765,-1.4597,-1.4597,-1.4313,-1.369,-1.3331,-1.3023,-1.2857,-1.2439,-1.2387,-1.2681,-1.2428,-1.2295,0.0,0.0,0.0,0.0,0.0,0.0,0.0,0.0,-0.8977,-0.8952,-0.8398,-0.8345,-0.8613,-0.8723,-0.8747,-0.8713,-0.8827,-0.8843,-0.8816,-0.867,-0.878,-0.9018,-0.9267,-0.9888,-1.0624,-1.0972,-1.1124,-1.1175,-1.1318,-1.1427,-1.136,-1.0779,-1.0195,-0.9563,-0.8881,-0.8482,-0.8137,-0.7937,-0.8262,-0.8554,-0.8332,-0.8101,-0.7859,-0.7942,-0.7394,-0.6901,-0.6914,0.0,0.0,0.0,0.0,0.0,-0.6852,0.0,-0.7474,0.0,-0.8907,0.0,0.0,0.0,-0.832,-0.8139,-0.8362,-0.8971,-1.0013,0.0,-1.0007,-1.0967,-1.0918,-1.068,-1.0199,-1.0131,-0.9741,-0.9073,-0.8848,-0.8692,-0.8594,-0.8152,-0.8021,-0.8177,-0.7773,-0.7454,-0.7216,-0.7125,-0.728,-0.7523,-0.7516,-0.7933,-0.8446,-1.3441,0.0,-1.3511,0.0,-1.364,-1.3597,-1.374,-1.3595,-1.3441,-1.3329,-1.3447,-1.3615,-1.3874,-1.4069,-1.4052,-1.3881,-1.383,-1.3536,-1.2974,-1.2672,-1.2423,-1.2225,-1.1963,0.0,-1.231,-1.2074,-1.2015,-1.227,-1.1255,0.0,0.0,0.0,0.0,0.0,-0.8613,-0.8431,-0.8447,-0.7987,-0.7917,-0.8236,-0.8441,-0.8511,-0.8355,-0.8487,-0.8578,-0.8644,-0.8445,-0.8563,-0.8795,-0.8856,-0.945,-1.0173,-1.0545,-1.0667,-1.0769,-1.0972,-1.0972,-1.0761,-0.9953,-0.9429,-0.8856,-0.796,-0.77,-0.7545,-0.7396,-0.7729,-0.8084,-0.7951,-0.7778,-0.7608,-0.7458,-0.6975,-0.6585,-0.6717,0.0,0.0,0.0,-0.6002,0.0,-0.6799,-0.6956,-0.7426,-0.833,-0.919,0.0,0.0,0.0,-0.8928,-0.8334,-0.8622,-0.9143,0.0,0.0,0.0,-1.0812,-1.0633,-1.0409,-1.01,-1.0116,-0.9761,-0.9145,-0.883,-0.8692,-0.8635,-0.7863,-0.7697,-0.7848,-0.7314,-0.7034,-0.6956,-0.6738,-0.6943,-0.7356,-0.7224,-0.7659,-0.822,-1.3442,-1.2887,-1.2696,-1.3199,-1.2597,-1.2181,-1.2672,-1.2438,-1.2083,-1.1752,-1.2044,-1.2621,-1.3717,-1.3511,-1.3216,-1.3042,-1.2867,-1.2674,-1.2359,-1.179,-1.1684,0.0,0.0,-1.1088,-1.187,-1.1448,-1.139,-1.1784,0.0,0.0,-1.0172,0.0,-0.889,-0.849,-0.8156,-0.7907,-0.7666,-0.7335,-0.7587,-0.8172,-0.8047,-0.7987,-0.7962,-0.786,-0.8027,-0.8309,-0.8246,-0.8498,-0.8854,-0.8752,-0.8886,-0.9227,-0.9836,-1.0162,-1.0324,-1.0316,-1.0419,-1.036,-0.9769,-0.9413,-0.9054,-0.8527,-0.815,-0.7824,-0.7568,-0.7723,-0.7799,-0.7394,-0.7437,-0.7298,-0.6741,-0.6642,-0.6599,-0.6353,0.0,0.0,0.0,-0.6368,0.0,-0.7579,-0.7419,-0.7795,-0.934,-0.9317,0.0,0.0,0.0,0.0,0.0,0.0,0.0,-0.9218,-0.9989,0.0,-1.0411,-1.0249,-1.0294,-1.0382,-0.9874,-0.9375,-0.8975,-0.8455,-0.8299,-0.8373,-0.8044,-0.7614,-0.7182,-0.6543,-0.6386,-0.6477,-0.6124,-0.6422,-0.7021,-0.714,-0.7224,-0.7273,-1.3216,-1.2972,-1.285,-1.2981,-1.2736,-1.2573,-1.2772,-1.2567,-1.2414,-1.2114,-1.2192,-1.2364,-1.2597,-1.2605,-1.2605,0.0,-1.2243,-1.1988,0.0,-1.1396,-1.1203,-1.117,-1.0932,-1.0868,-1.1145,-1.0898,-1.09,-1.1238,0.0,0.0,0.0,-0.8012,-0.7653,-0.7396,-0.6802,-0.6605,-0.6605,-0.6544,-0.6675,-0.7003,-0.733,-0.7466,-0.7456,-0.7648,-0.7817,-0.7856,-0.7819,-0.7731,-0.7664,-0.7805,-0.7773,-0.7801,-0.8618,-0.9219,-0.9681,-0.9777,-0.9829,-0.9614,-0.8495,-0.7853,-0.7368,-0.6519,-0.6312,-0.6376,-0.6436,-0.6701,-0.6843,-0.6722,-0.6524,-0.634,-0.6319,-0.618,-0.6077,-0.6282,-0.6288,0.0,-0.6439,0.0,-0.6801,-0.7117,-0.7531,-0.7954,-0.8242,-0.9261,0.0,0.0,0.0,0.0,0.0,0.0,0.0,0.0,-0.8725,0.0,-0.96,-0.945,-0.9349,-0.9325,-0.9234,-0.8996,-0.8643,-0.8259,-0.8349,-0.8781,-0.7836,-0.7663,-0.7946,-0.7098,-0.6774,-0.6738,-0.6404,-0.6483,-0.6768,-0.6696,-0.7026,-0.7584,-1.3277,-1.2972,-1.2789,-1.2674,-1.2552,-1.249,-1.2683,-1.2621,-1.2498,-1.2182,-1.212,-1.2012,-1.1699,-1.1561,0.0,-1.1919,-1.1615,-1.1303,-1.1052,-1.0933,-1.0751,-1.0428,-1.0428,-1.0428,-1.0415,-1.0299,0.0,-1.0598,-0.9481,-0.8427,-0.7463,-0.721,-0.6876,-0.6486,-0.5958,-0.5756,-0.5818,-0.5749,-0.5881,-0.621,-0.6605,-0.6806,-0.6942,-0.7204,-0.7339,-0.7386,-0.7447,-0.7208,-0.7016,-0.721,-0.6929,-0.6596,-0.7287,-0.772,-0.8131,-0.9064,-0.9017,-0.8442,-0.7706,-0.7165,-0.6622,-0.5769,-0.5668,-0.5782,-0.5946,-0.6109,-0.6218,-0.6164,-0.5954,-0.5756,-0.5967,-0.5859,-0.5877,-0.6197,-0.6294,-0.6395,-0.6654,0.0,-0.6979,0.0,0.0,0.0,0.0,-0.915,-0.9487,0.0,0.0,0.0,0.0,0.0,0.0,-0.8256,-0.8049,-0.8174,-0.8823,-0.8495,-0.8466,-0.8685,-0.8578,-0.8514,-0.8423,-0.7998,-0.8047,-0.839,-0.7655,-0.7538,-0.7821,-0.7182,-0.6901,-0.6872,-0.6404,-0.6392,-0.6605,-0.6404,-0.6917,-0.7729,-1.3502,-1.2948,-1.2581,0.0,-1.2174,-1.205,-1.256,-1.2621,-1.2436,-1.1872,-1.1809,-1.1567,-1.0962,-1.0497,-1.0479,-1.1183,0.0,0.0,-1.0301,-1.0434,-1.0308,-0.974,-0.974,-0.9728,-0.9709,-0.9709,-0.9767,-0.9824,-0.8994,-0.8032,-0.6815,-0.6815,-0.642,-0.5826,-0.5495,-0.5296,-0.5292,-0.4885,-0.5147,-0.5741,-0.5804,-0.5943,-0.6284,-0.6478,-0.6609,-0.6745,-0.6937,-0.6806,-0.6551,-0.6875,-0.631,-0.5576,-0.6039,-0.585,-0.5863,-0.8122,-0.7899,-0.6999,-0.7331,-0.7117,-0.6637,-0.6105,-0.5946,-0.5891,-0.5891,-0.5891,-0.5837,-0.5719,-0.5614,-0.5508,-0.5513,-0.5668,-0.5832,-0.6119,-0.6282,-0.6544,-0.7031,-0.6996,-0.7137,0.0,0.0,0.0,-0.8937,-0.8882,-0.8904,0.0,0.0,0.0,0.0,0.0,-0.8256,-0.7723,-0.7771,-0.7931,-0.8137,-0.7535,-0.7631,-0.8357,-0.7917,-0.7867,-0.8203,-0.7724,-0.7523,-0.7523,-0.7523,-0.7356,-0.7063,-0.6923,-0.6888,-0.6872,-0.6301,-0.6258,-0.6483,-0.6331,-0.6937,-0.786,0.0,0.0,-1.3571,-1.3329,-1.3086,-1.2903,-1.2744,-1.2744,-1.256,-1.2058,-1.1872,-1.1648,-1.1265,-1.0561,-1.0208,-1.0397,-1.0104,-0.9886,-0.9703,-0.9856,-0.9734,-0.9092,-0.928,-0.9215,-0.8829,-0.8958,-0.8759,-0.8102,-0.7907,-0.7195,-0.6152,-0.5892,-0.5491,-0.5027,-0.4894,-0.4558,-0.4159,-0.4353,-0.4353,-0.4287,-0.4553,-0.4752,-0.4818,-0.4945,-0.5008,-0.5077,-0.5276,-0.5077,-0.4719,-0.5508,-0.5004,-0.4367,-0.5417,-0.531,-0.5166,-0.6789,-0.6885,-0.646,-0.674,-0.6308,-0.576,-0.5399,-0.5171,-0.5007,-0.4901,-0.4846,-0.4791,-0.4618,-0.4677,-0.4794,-0.4908,-0.5124,-0.5454,-0.595,-0.6173,-0.6391,-0.6879,-0.6983,-0.7114,0.0,-0.75,-0.7532,-0.7407,-0.7684,-0.8002,0.0,0.0,0.0,-0.8312,-0.7847,-0.7616,-0.7568,-0.73,-0.7217,-0.7344,-0.685,-0.6694,-0.682,-0.6799,-0.6979,-0.7238,-0.7538,-0.7663,-0.7663,-0.7814,-0.7855,-0.7773,-0.7551,-0.7398,-0.7251,-0.6846,-0.6592,-0.6544,-0.6969,-0.7587,-0.8382,-1.4529,-1.43,-1.401,-1.37,-1.3511,-1.3268,-1.292,-1.2867,-1.2683,-1.2058,-1.1809,-1.1502,-1.1041,-1.0328,-0.992,-0.9973,-0.9806,-0.958,-0.9468,-0.9666,-0.9542,-0.8894,-0.9081,-0.8888,-0.8376,-0.8501,-0.8047,-0.7129,-0.7129,-0.6544,-0.5425,-0.5229,-0.4894,-0.4428,-0.4225,-0.3889,-0.3493,-0.3491,-0.3424,-0.3424,-0.3556,-0.3685,-0.3818,-0.3949,-0.4015,-0.4082,-0.4215,-0.3946,-0.3597,-0.4271,-0.3816,-0.3143,-0.4268,-0.4261,-0.4059,-0.5216,-0.5497,-0.5485,-0.5736,-0.5332,-0.4783,-0.457,-0.4401,-0.4291,-0.4184,-0.4184,-0.4184,-0.4187,-0.4187,-0.4298,-0.4632,-0.4798,-0.5073,-0.5622,-0.5845,-0.6064,-0.65,-0.6603,-0.6661,-0.6907,-0.7004,-0.6977,-0.6657,-0.7001,-0.7229,-0.724,-0.724,0.0,-0.7551,-0.7128,-0.6972,-0.7198,-0.6874,-0.6704,-0.6791,-0.6263,-0.6083,-0.6105,-0.6083,-0.6264,-0.6738,-0.7167,-0.7377,-0.7503,-0.7746,-0.7904,-0.7979,-0.7889,-0.7739,-0.7579,-0.728,-0.6985,-0.6898,-0.7436,-0.8189,-0.9027,-1.4597,-1.4359,-1.4139,-1.389,-1.37,-1.345,-1.3042,-1.2989,-1.2674,-1.1926,-1.1685,-1.1334,-1.0695,-1.0116,-0.9816,-0.9973,-0.9754,-0.9528,-0.9456,-0.9655,-0.9542,-0.9017,-0.9017,-0.8759,-0.8172,-0.8107,-0.7587,-0.6609,-0.6609,-0.5947,-0.4697,-0.4697,-0.4361,-0.3894,-0.3556,-0.3288,-0.3027,-0.2557,-0.2557,-0.2822,-0.2621,-0.2684,-0.295,-0.3153,-0.322,-0.3218,-0.3349,-0.308,-0.2737,-0.3128,-0.2737,-0.2174,-0.3062,-0.3209,-0.3207,-0.3873,-0.4216,-0.4429,-0.472,-0.4343,-0.3881,-0.3747,-0.3685,-0.3685,-0.363,-0.3644,-0.3764,-0.3971,-0.3925,-0.3937,-0.4501,-0.465,-0.4761,-0.5258,-0.544,-0.5686,-0.6165,0.0,-0.6164,-0.6539,-0.6381,-0.6213,-0.6195,-0.6357,-0.6362,-0.6195,-0.6411,-0.6524,-0.648,-0.6376,-0.6495,-0.6771,-0.6495,-0.6277,-0.6218,-0.578,-0.563,-0.5738,-0.5608,-0.5782,-0.6307,-0.6653,-0.6914,-0.7041,-0.7461,-0.7787,-0.7972,-0.8021,-0.7987,-0.7961,-0.767,-0.7454,-0.7412,-0.7874,-0.87,-0.9619,-1.4715,-1.4547,-1.4327,-1.401,-1.3941,-1.3709,-1.3103,-1.2928,-1.2552,-1.1864,-1.156,-1.1226,-1.0801,-1.0239,-1.0014,-1.0274,-0.986,-0.9616,-0.956,-0.9712,-0.9542,-0.9017,-0.9017,-0.8694,-0.8047,-0.7787,-0.7064,-0.602,-0.6009,-0.5481,-0.4367,-0.4095,-0.3758,-0.3293,-0.3157,-0.2891,-0.2491,-0.2288,-0.2153,-0.2084,-0.1883,-0.1816,-0.1882,-0.1882,-0.1882,-0.1882,-0.1949,-0.1746,-0.1611,-0.2136,-0.2262,-0.2246,-0.2877,-0.3544,-0.4012,-0.3811,-0.3809,-0.3946,-0.421,-0.398,-0.3535,-0.3266,-0.3135,-0.3026,-0.2914,-0.3031,-0.318,-0.3261,-0.3486,-0.3842,-0.4195,-0.4273,-0.4551,-0.5392,-0.5315,-0.5456,-0.6185,0.0,-0.6,-0.6109,-0.5723,-0.5441,-0.5324,-0.5058,-0.4948,-0.5101,-0.5265,-0.5546,-0.5882,-0.5996,-0.6114,-0.6287,-0.6009,-0.5681,-0.5289,-0.5356,-0.5254,-0.5056,-0.5423,-0.55,-0.5361,-0.6179,-0.6435,-0.6252,-0.707,-0.7572,-0.7765,-0.8036,-0.825,-0.8332,-0.825,-0.816,-0.81,-0.8618,-0.9131,-0.9752,-1.4715,-1.4597,-1.4437,-1.4198,-1.395,-1.358,-1.3216,-1.292,-1.2498,-1.2058,-1.1685,-1.1365,-1.1115,-1.0592,-1.0384,-1.0583,-1.0226,-1.0026,-1.0107,-0.9901,-0.9606,-0.921,-0.9081,-0.863,-0.7857,-0.7526,-0.6806,-0.5752,-0.5686,-0.509,-0.4028,-0.3627,-0.336,-0.3092,-0.2757,-0.2488,-0.2288,-0.1884,-0.1681,-0.1547,-0.1412,-0.1344,-0.1344,-0.1212,-0.1145,-0.1145,-0.1077,-0.0942,-0.0875,-0.1144,-0.1332,-0.1576,-0.2133,-0.2891,-0.3516,-0.3359,-0.3375,-0.346,-0.3505,-0.3205,-0.2934,-0.3011,-0.2855,-0.2659,-0.2659,-0.2864,-0.3045,-0.3297,-0.3543,-0.3793,-0.3957,-0.4125,-0.4324,-0.4779,-0.4851,0.0,-0.547,-0.5397,-0.5234,-0.5062,-0.4732,-0.4288,-0.384,-0.368,-0.3624,-0.3613,-0.4061,-0.4505,-0.5066,-0.5285,-0.5563,-0.5845,-0.5673,-0.5344,-0.5011,-0.4801,-0.4729,-0.484,-0.4905,-0.4951,-0.5082,-0.5543,-0.5744,-0.5787,-0.6562,-0.7021,-0.7252,-0.7648,-0.8101,-0.8466,-0.8237,-0.8359,-0.8701,-0.9042,-0.9495,-1.0114,-1.4597,-1.4419,-1.43,-1.4139,-1.3709,-1.3329,-1.3208,-1.2797,-1.2375,-1.2058,-1.1685,-1.1435,-1.1178,-1.084,-1.0678,-1.087,-1.0572,-1.0444,-1.0695,-1.0184,-0.967,-0.9332,-0.8952,-0.8436,-0.7661,-0.7204,-0.6544,-0.555,-0.5289,-0.4625,-0.3625,-0.3293,-0.2958,-0.2824,-0.2354,-0.2087,-0.2018,-0.1547,-0.1277,-0.121,-0.1076,-0.1009,-0.0942,-0.0809,-0.0742,-0.0741,-0.0539,-0.0472,-0.0472,-0.0472,-0.073,-0.1106,-0.1485,-0.2253,-0.2957,-0.2937,-0.2975,-0.2981,-0.277,-0.2567,-0.2537,-0.2755,-0.2603,-0.2467,-0.2653,-0.2849,-0.3022,-0.3349,-0.3584,-0.369,-0.3719,-0.3909,-0.4039,-0.4228,0.0,-0.4492,-0.4745,-0.4653,-0.4408,-0.4067,-0.368,-0.3239,-0.2625,-0.2569,-0.2514,-0.2345,-0.3016,-0.363,-0.4242,-0.457,-0.4901,-0.5344,-0.523,-0.5062,-0.4791,-0.4409,-0.433,-0.4651,-0.4451,-0.4475,-0.476,-0.4889,-0.5062,-0.5323,-0.6007,-0.6465,-0.6797,-0.7342,-0.7996,-0.8596,-0.8257,-0.8532,-0.9185,-0.9231,-0.9663,-1.0275,-1.407,-1.3941,-1.3761,-1.3571,-1.3277,-1.2981,-1.2867,-1.2428,-1.2058,-1.1864,-1.1435,-1.1059,-1.087,-1.0718,-1.0709,-1.1066,-1.0758,-1.0716,-1.1066,-1.0415,-0.9856,-0.9518,-0.856,-0.7917,-0.7526,-0.6811,-0.6086,-0.5425,-0.4688,-0.4023,-0.3226,-0.2889,-0.2554,-0.2221,-0.2018,-0.1817,-0.1614,-0.1412,-0.121,-0.1076,-0.0876,-0.0741,-0.0539,-0.0539,-0.0539,-0.0539,-0.0472,-0.0404,-0.0337,-0.0337,-0.1007,-0.1798,-0.1494,-0.2253,-0.3202,-0.2925,-0.2699,-0.2476,-0.2159,-0.2321,-0.2553,-0.2291,-0.2339,-0.2467,-0.2653,-0.2771,-0.2862,-0.3149,-0.3263,-0.3389,-0.3575,-0.3479,-0.3589,-0.4287,0.0,0.0,-0.4477,-0.427,-0.3907,-0.3511,-0.2956,-0.2458,-0.2071,-0.1846,-0.1733,-0.1846,-0.2408,-0.297,-0.3469,-0.3959,-0.4346,-0.4574,-0.4688,-0.4688,-0.4515,-0.4291,-0.4222,-0.4246,-0.4323,-0.426,-0.3979,-0.4392,-0.4575,-0.4631,-0.5399,-0.6033,-0.6598,-0.7497,-0.8209,-0.8699,-0.8727,-0.8988,-0.9359,-0.9269,-0.943,-0.9864,-1.3442,-1.3338,-1.3224,-1.3103,-1.2797,-1.2552,-1.249,-1.212,-1.1747,-1.1685,-1.131,-1.0996,-1.0807,-1.076,-1.0809,-1.0926,-1.0705,-1.0628,-1.08,-1.0428,-0.9856,-0.9087,-0.8376,-0.7657,-0.6999,-0.6474,-0.5752,-0.4894,-0.4289,-0.3692,-0.3159,-0.2757,-0.2423,-0.2154,-0.1884,-0.1547,-0.1277,-0.1077,-0.0876,-0.074,-0.0674,-0.0539,-0.0472,-0.0404,-0.0404,-0.0337,-0.0202,-0.0135,-0.0135,-0.0135,-0.0673,-0.1341,-0.093,-0.172,-0.2694,-0.2299,-0.2263,-0.2235,-0.1725,-0.1943,-0.2368,-0.2359,-0.2376,-0.2476,-0.2669,-0.2888,-0.3083,-0.3251,-0.3389,-0.3396,-0.3205,-0.3258,-0.3392,-0.3401,0.0,-0.3564,-0.3416,-0.3319,-0.3072,-0.2345,-0.1958,-0.1568,-0.1064,-0.1008,-0.112,-0.1232,-0.1903,-0.2519,-0.3188,-0.3741,-0.4021,-0.3968,-0.3913,-0.4024,-0.4301,-0.4079,-0.3996,-0.4056,-0.4018,-0.3971,-0.3865,-0.4175,-0.4338,-0.4467,-0.5269,-0.5872,-0.6383,-0.718,-0.803,-0.8758,-0.8699,-0.9154,-0.9853,-0.9586,-0.9853,-1.0413,-1.2895,-1.2789,-1.2736,-1.2674,-1.2367,-1.2182,-1.2243,-1.1809,-1.156,-1.156,-1.1247,-1.0933,-1.0807,-1.0807,-1.0807,-1.0807,-1.0744,-1.0681,-1.0681,-1.0371,-0.9728,-0.8835,-0.8312,-0.7657,-0.6872,-0.6276,-0.5547,-0.4688,-0.3959,-0.336,-0.296,-0.2557,-0.2288,-0.2018,-0.1748,-0.1412,-0.1076,-0.0876,-0.0674,-0.0472,-0.0472,-0.0406,-0.0342,-0.0273,-0.0206,-0.0207,0.0,0.0069,0.0,0.0068,-0.0409,-0.1021,-0.0608,-0.1144,-0.1808,-0.1512,-0.1591,-0.1675,-0.1182,-0.1458,-0.2009,-0.2229,-0.2254,-0.2288,-0.2554,-0.2757,-0.3009,-0.3081,-0.3199,-0.3117,-0.2799,-0.2892,-0.2917,-0.2732,-0.2943,-0.3021,-0.2661,-0.263,-0.2386,-0.1592,-0.1242,-0.0898,-0.0393,-0.0449,-0.0617,-0.0898,-0.1512,-0.2238,-0.3021,-0.3524,-0.3691,-0.3471,-0.3302,-0.3466,-0.3858,-0.3688,-0.3685,-0.3907,-0.371,-0.3593,-0.3658,-0.3881,-0.4039,-0.424,-0.5033,-0.5615,-0.6134,-0.7001,-0.7862,-0.8629,-0.8663,-0.9369,-1.0329,-1.0026,-1.0401,-1.1074,-1.249,-1.2367,-1.2305,-1.2305,-1.1988,-1.1872,-1.2058,-1.1622,-1.1373,-1.156,-1.1122,-1.0807,-1.0807,-1.0807,-1.0807,-1.0807,-1.0807,-1.0807,-1.0807,-1.018,-0.9478,-0.8835,-0.8312,-0.7722,-0.7204,-0.6145,-0.5348,-0.4815,-0.3689,-0.2891,-0.2424,-0.2424,-0.2087,-0.1614,-0.1614,-0.1412,-0.1076,-0.0876,-0.0674,-0.0472,-0.0337,-0.0206,0.0,0.0,0.0,0.0,0.0219,0.0146,0.0,0.0212,-0.035,-0.1046,-0.0612,-0.0674,-0.0742,-0.0539,-0.0673,-0.074,-0.0539,-0.0875,-0.1412,-0.1817,-0.1884,-0.2018,-0.2288,-0.2424,-0.2423,-0.2686,-0.2555,-0.2424,-0.2424,-0.2171,-0.2127,-0.2452,-0.2453,-0.2405,-0.2405,-0.2221,-0.1883,-0.1237,-0.0916,-0.0561,-0.0224,-0.0224,-0.0393,-0.0842,-0.1344,-0.1959,-0.286,-0.3193,-0.3302,-0.313,-0.2961,-0.2961,-0.3074,-0.3074,-0.3352,-0.3796,-0.3297,-0.3187,-0.3403,-0.3403,-0.3524,-0.3755,-0.4536,-0.5193,-0.579,-0.6976,-0.7835,-0.8337,-0.8735,-0.9622,-1.0681,-1.0568,-1.1025,-1.1679,-1.1934,-1.1934,-1.1934,-1.1809,-1.1747,-1.1685,-1.1747,-1.149,-1.131,-1.1247,-1.0996,-1.0744,-1.0688,-1.0681,-1.0681,-1.0681,-1.0681,-1.0681,-1.0681,-0.9977,-0.9466,-0.9145,-0.8495,-0.7717,-0.6872,-0.5873,-0.508,-0.442,-0.3489,-0.2889,-0.2621,-0.249,-0.2087,-0.1614,-0.1614,-0.1279,-0.0674,-0.0607,-0.0404,-0.0135,-0.0138,-0.007,0.0,0.0,0.0072,0.0219,0.0146,0.0146,0.0218,0.0144,-0.0356,-0.0907,-0.1018,-0.0943,-0.0741,-0.0538,-0.0673,-0.0741,-0.0472,-0.074,-0.121,-0.1277,-0.1614,-0.1951,-0.2018,-0.2154,-0.2288,-0.2354,-0.2288,-0.2221,-0.2087,-0.2038,-0.1934,-0.1675,-0.1885,-0.1911,-0.1419,-0.1442,-0.1296,-0.0766,-0.0515,-0.028,-0.0056,-0.0224,-0.0505,-0.0898,-0.1737,-0.241,-0.286,-0.2972,-0.297,-0.28,-0.2687,-0.2575,-0.2462,-0.2794,-0.2963,-0.3023,-0.3077,-0.3058,-0.3082,-0.3465,-0.3809,-0.4111,-0.4737,-0.5413,-0.61,-0.6912,-0.7711,-0.8547,-0.8865,-0.9545,-1.0334,-1.0336,-1.0666,-1.1091,-1.1685,-1.1685,-1.1685,-1.1622,-1.1622,-1.1622,-1.1622,-1.1435,-1.124,-1.1185,-1.0933,-1.0792,-1.0843,-1.0692,-1.0672,-1.0722,-1.0692,-1.0561,-1.0498,-0.9977,-0.9588,-0.9338,-0.8759,-0.7977,-0.7068,-0.5939,-0.5147,-0.4483,-0.3489,-0.2889,-0.2554,-0.249,-0.2154,-0.1681,-0.1614,-0.1278,-0.0741,-0.0681,-0.0479,-0.0137,-0.0141,-0.0072,0.0,0.0,0.0074,0.015,0.015,0.015,0.015,0.0148,-0.0217,-0.0627,-0.0814,-0.0741,-0.0607,-0.0471,-0.0539,-0.0539,-0.0404,-0.0674,-0.0942,-0.0875,-0.1211,-0.1614,-0.1681,-0.1748,-0.1749,-0.1749,-0.1681,-0.1614,-0.148,-0.146,-0.1312,-0.1114,-0.1291,-0.1341,-0.1022,-0.0997,-0.0913,-0.0541,-0.0292,-0.0114,0.0,-0.0168,-0.0505,-0.112,-0.2017,-0.2577,-0.2747,-0.2802,-0.2691,-0.241,-0.2298,-0.213,-0.1962,-0.224,-0.2464,-0.2691,-0.28,-0.291,-0.3019,-0.3463,-0.3773,-0.4056,-0.471,-0.5408,-0.6037,-0.672,-0.7568,-0.8474,-0.8798,-0.9555,-1.045,-1.0519,-1.0906,-1.138,-1.1622,-1.1645,-1.1667,-1.1667,-1.1667,-1.1674,-1.1703,-1.1471,-1.131,-1.1339,-1.101,-1.0917,-1.1152,-1.0819,-1.0708,-1.0969,-1.0728,-1.0498,-1.0308,-1.011,-0.9792,-0.9338,-0.9022,-0.8441,-0.7591,-0.6272,-0.5355,-0.4834,-0.3634,-0.2838,-0.2441,-0.2441,-0.2306,-0.1965,-0.1762,-0.149,-0.1085,-0.0974,-0.0703,-0.0282,-0.0289,-0.0222,0.0,0.0,0.0,0.0079,0.0236,0.0157,0.0078,0.0229,0.0,-0.0281,-0.0273,-0.0271,-0.027,-0.027,-0.027,-0.0337,-0.0404,-0.0607,-0.0742,-0.0539,-0.074,-0.1076,-0.1211,-0.1144,-0.1076,-0.1008,-0.0874,-0.074,-0.0739,-0.0606,-0.0539,-0.0672,-0.074,-0.0807,-0.1008,-0.0854,-0.0703,-0.0498,-0.018,0.0,0.0,0.0,-0.0449,-0.1517,-0.2132,-0.2469,-0.2533,-0.2581,-0.241,-0.1959,-0.1852,-0.1685,-0.1515,-0.1515,-0.1908,-0.2635,-0.2521,-0.2687,-0.3077,-0.3299,-0.3572,-0.3841,-0.4562,-0.5189,-0.5783,-0.6572,-0.7413,-0.8275,-0.8699,-0.9614,-1.072,-1.0872,-1.1416,-1.1972,-1.1622,-1.1765,-1.1933,-1.1933,-1.2062,-1.2151,-1.2277,-1.1946,-1.1648,-1.1446,-1.1206,-1.1051,-1.1028,-1.0804,-1.0791,-1.0989,-1.0728,-1.0498,-1.0308,-1.011,-0.9792,-0.9338,-0.9081,-0.863,-0.7922,-0.6531,-0.5603,-0.5117,-0.4015,-0.3295,-0.301,-0.301,-0.2793,-0.229,-0.2219,-0.1861,-0.1147,-0.1154,-0.0795,-0.029,-0.0446,-0.0301,0.0,-0.0155,0.0078,0.0471,0.0314,0.0393,0.0391,0.0153,-0.0075,-0.0296,-0.0282,-0.0278,-0.0277,-0.0136,-0.0202,-0.027,0.0067,-0.0202,-0.0539,-0.0404,-0.0404,-0.0539,-0.0674,-0.0674,-0.0606,-0.0472,-0.0472,-0.0337,-0.0202,-0.0269,-0.0337,-0.0202,-0.0404,-0.0539,-0.0472,-0.046,-0.0387,-0.032,-0.0061,0.0176,0.0175,-0.0114,-0.068,-0.1625,-0.182,-0.2156,-0.2559,-0.2329,-0.2017,-0.1684,-0.1515,-0.1234,-0.0898,-0.1122,-0.1458,-0.2021,-0.2186,-0.2464,-0.2802,-0.319,-0.3564,-0.3865,-0.4553,-0.5261,-0.5824,-0.6681,-0.7568,-0.8427,-0.8903,-0.9472,-1.0043,-1.0352,-1.0557,-1.0761,-1.156,-1.1816,-1.1971,-1.1971,-1.2233,-1.2395,-1.2497,-1.2299,-1.2021,-1.171,-1.1572,-1.1431,-1.1249,-1.0994,-1.0808,-1.0738,-1.0471,-1.0296,-1.0367,-0.9988,-0.9713,-0.9515,-0.9085,-0.8565,-0.7787,-0.6662,-0.5955,-0.551,-0.433,-0.3615,-0.3348,-0.3348,-0.313,-0.2693,-0.2475,-0.211,-0.1603,-0.1403,-0.104,-0.0595,-0.061,-0.0385,-0.0154,-0.0078,0.0157,0.0471,0.0314,0.0314,0.0313,0.0076,-0.0076,-0.015,-0.0143,-0.014,-0.014,-0.0136,-0.0202,-0.027,-0.0135,-0.027,-0.0473,-0.0342,-0.0275,-0.0342,-0.0406,-0.027,-0.0067,0.0,0.0067,0.0067,0.0135,0.0067,0.0,0.0,-0.0135,-0.027,-0.027,-0.02,-0.0197,-0.0259,0.0062,0.0298,0.0231,-0.023,-0.0804,-0.1437,-0.1691,-0.1984,-0.2301,-0.2066,-0.1765,-0.1347,-0.1178,-0.0954,-0.0729,-0.0898,-0.1289,-0.1794,-0.1962,-0.2296,-0.2798,-0.319,-0.3635,-0.4021,-0.4684,-0.5395,-0.6046,-0.681,-0.7622,-0.8421,-0.8896,-0.9375,-0.9799,-1.0007,-1.0213,-1.047,-1.1498,-1.1816,-1.1985,-1.2043,-1.2343,-1.2562,-1.2672,-1.2592,-1.2378,-1.1969,-1.1875,-1.1737,-1.149,-1.1181,-1.0872,-1.0484,-1.0177,-1.0024,-1.0176,-0.9717,-0.9474,-0.938,-0.8935,-0.8306,-0.7456,-0.6762,-0.6202,-0.5755,-0.4571,-0.3864,-0.3683,-0.3609,-0.3391,-0.3025,-0.2656,-0.236,-0.2068,-0.1736,-0.1372,-0.0993,-0.0857,-0.055,-0.0236,0.0,0.0236,0.0314,0.0393,0.0236,0.0,0.0,0.0,0.0,0.0,0.0,0.0,-0.0206,-0.0273,-0.0272,-0.0407,-0.0409,-0.0343,-0.0277,-0.021,-0.021,-0.0273,0.0,0.0271,0.0337,0.0404,0.0472,0.0472,0.0404,0.027,0.0135,0.0067,0.0,-0.0202,-0.0067,0.0,-0.013,0.0189,0.0363,0.0287,-0.0291,-0.082,-0.1209,-0.1622,-0.1873,-0.1957,-0.1876,-0.1582,-0.1085,-0.097,-0.0796,-0.0679,-0.0849,-0.124,-0.179,-0.1906,-0.2242,-0.2907,-0.3355,-0.3802,-0.4193,-0.4959,-0.5614,-0.6263,-0.6918,-0.767,-0.8474,-0.8949,-0.9375,-0.9799,-0.9903,-1.0213,-1.0624,-1.1373,-1.1688,-1.2058,-1.2208,-1.2564,-1.2922,-1.3279,-1.2884,-1.247,-1.243,-1.1682,-1.1243,-1.1539,-1.102,-1.0684,-1.0669,-1.017,-0.9765,-0.9321,-0.9354,-0.9058,-0.8234,-0.8257,-0.7977,-0.7265,-0.663,-0.6037,-0.549,-0.4632,-0.423,-0.4264,-0.4115,-0.3803,-0.3337,-0.3108,-0.2719,-0.2175,-0.2104,-0.1797,-0.1251,-0.1412,-0.1021,-0.0314,-0.0471,-0.0157,0.0393,0.0943,0.0629,0.0,0.0,0.0,0.0,0.0,0.0,0.0,0.0,-0.0071,-0.007,-0.007,0.0071,0.0143,0.0,0.007,0.0144,0.0,0.0,0.0139,0.0406,0.0472,0.0606,0.0942,0.074,0.0472,0.0404,0.0337,0.027,0.0202,0.0337,0.0404,0.0402,0.0447,0.0493,0.0488,-0.006,-0.0541,-0.1072,-0.1371,-0.1618,-0.1834,-0.1676,-0.1409,-0.1037,-0.0854,-0.0783,-0.0702,-0.0995,-0.1384,-0.179,-0.2184,-0.2577,-0.2914,-0.391,-0.4242,-0.4076,-0.5445,-0.61,-0.6263,-0.7235,-0.799,-0.8626,-0.9249,-0.9629,-0.9851,-1.0265,-1.0565,-1.0871,-1.1511,-1.2035,-1.2416,-1.2629,-1.295,-1.3233,-1.3302,-1.31,-1.2692,-1.2232,-1.1932,-1.1552,-1.1144,-1.0616,-1.0307,-1.0353,-1.0026,-0.9673,-0.9325,-0.9203,-0.8799,-0.801,-0.7783,-0.73,-0.6559,-0.6041,-0.5566,-0.509,-0.4722,-0.451,-0.4451,-0.4358,-0.4075,-0.3763,-0.345,-0.3214,-0.2901,-0.251,-0.2118,-0.1805,-0.1571,-0.11,-0.0628,-0.0471,-0.0236,0.0,0.0314,0.0079,-0.0314,-0.0314,-0.0236,-0.0156,-0.0153,-0.0075,0.0,0.0,0.0,0.0,0.0141,0.0143,0.0145,0.0142,0.0145,0.0148,0.0147,0.0147,0.0218,0.0496,0.0696,0.0895,0.0963,0.0816,0.0607,0.0539,0.0472,0.0404,0.0404,0.0472,0.0536,0.066,0.0507,0.037,0.0309,-0.0122,-0.0611,-0.1005,-0.1346,-0.1607,-0.1762,-0.1704,-0.1569,-0.1295,-0.1173,-0.1104,-0.1208,-0.1484,-0.1868,-0.2355,-0.2876,-0.3132,-0.3193,-0.391,-0.4353,-0.4684,-0.5668,-0.6322,-0.6756,-0.7503,-0.8143,-0.8679,-0.9152,-0.9524,-0.9851,-1.0265,-1.0718,-1.1175]},{"header":{"parameterUnit":"m.s-1","parameterCategory":1,"la1":30.6,"la2":28.766,"lo1":-90.7593,"lo2":-88.6598,"dy":0.0162,"dx":0.0183,"nx":116,"ny":114,"refTime":"2024-04-19T00:00:00:Z","depth":0,"parameterNumber":3,"parameterNumberName":"V-component_of_WINDS"},"data":[0.0,0.0,0.0,0.0,0.0,0.0,0.0,0.0,0.0,0.0,0.0,0.0,0.0,0.0,0.0,0.0,0.0,0.0,0.0,0.0,0.0,0.0,0.0,0.0,0.0,0.0,0.0,0.0,0.0,0.0,0.0,0.0,0.0,0.0,0.0,0.0,0.0,0.0,0.0,0.0,0.0,0.0,0.0,0.0,0.0,0.0,0.0,0.0,0.0,0.0,0.0,0.0,0.0,0.0,0.0,0.0,0.0,0.0,0.0,0.0,0.0,0.0,0.0,0.0,0.0,0.0,0.0,0.0,0.0,0.0,0.0,0.0,0.0,0.0,0.0,0.0,0.0,0.0,0.0,0.0,0.0,0.0,0.0,0.0,0.0,0.0,0.0,0.0,0.0,0.0,0.0,0.0,0.0,0.0,0.0,0.0,0.0,0.0,0.0,0.0,0.0,0.0,0.0,0.0,0.0,0.0,0.0,0.0,0.0,0.0,0.0,0.0,0.0,0.0,0.0,0.0,0.0,0.0,0.0,0.0,0.0,0.0,0.0,0.0,0.0,0.0,0.0,0.0,0.0,0.0,0.0,0.0,0.0,0.0,0.0,0.0,0.0,0.0,0.0,0.0,0.0,0.0,0.0,0.0,0.0,0.0,0.0,0.0,0.0,0.0,0.0,0.0,0.0,0.0,0.0,0.0,0.0,0.0,0.0,0.0,0.0,0.0,0.0,0.0,0.0,0.0,0.0,0.0,0.0,0.0,0.0,0.0,0.0,0.0,0.0,0.0,0.0,0.0,0.0,0.0,0.0,0.0,0.0,0.0,0.0,0.0,0.0,0.0,0.0,0.0,0.0,0.0,0.0,0.0,0.0,0.0,0.0,0.0,0.0,0.0,0.0,0.0,0.0,0.0,0.0,0.0,0.0,0.0,0.0,0.0,0.0,0.0,0.0,0.0,0.0,0.0,0.0,0.0,0.0,0.0,0.0,0.0,0.0,0.0,0.0,0.0,0.0,0.0,0.0,0.0,0.0,0.0,0.0,0.0,0.0,0.0,0.0,0.0,0.0,0.0,0.0,0.0,0.0,0.0,0.0,0.0,0.0,0.0,0.0,0.0,0.0,0.0,0.0,0.0,0.0,0.0,0.0,0.0,0.0,0.0,0.0,0.0,0.0,0.0,0.0,0.0,0.0,0.0,0.0,0.0,0.0,0.0,0.0,0.0,0.0,0.0,0.0,0.0,0.0,0.0,0.0,0.0,0.0,0.0,0.0,0.0,0.0,0.0,0.0,0.0,0.0,0.0,0.0,0.0,0.0,0.0,0.0,0.0,0.0,0.0,0.0,0.0,0.0,0.0,0.0,0.0,0.0,0.0,0.0,0.0,0.0,0.0,0.0,0.0,0.0,0.0,0.0,0.0,0.0,0.0,0.0,0.0,0.0,0.0,0.0,0.0,0.0,0.0,0.0,0.0,0.0,0.0,0.0,0.0,0.0,0.0,0.0,0.0,0.0,0.0,0.0,0.0,0.0,0.0,0.0,0.0,0.0,0.0,0.0,0.0,0.0,0.0,0.0,0.0,0.0,0.0,0.0,0.0,0.0,0.0,0.0,0.0,0.0,0.0,0.0,0.0,0.0,0.0,0.0,0.0,0.0,0.0,0.0,0.0,0.0,0.0,0.0,0.0,0.0,0.0,0.0,0.0,0.0,0.0,0.0,0.0,0.0,0.0,0.0,0.0,0.0,0.0,0.0,0.0,0.0,0.0,0.0,0.0,0.0,0.0,0.0,0.0,0.0,0.0,0.0,0.0,0.0,0.0,0.0,0.0,0.0,0.0,0.0,0.0,0.0,0.0,0.0,0.0,0.0,0.0,0.0,0.0,0.0,0.0,0.0,0.0,0.0,0.0,0.0,0.0,0.0,0.0,0.0,0.0,0.0,0.0,0.0,0.0,0.0,0.0,0.0,0.0,0.0,0.0,0.0,0.0,0.0,0.0,0.0,0.0,0.0,0.0,0.0,0.0,0.0,0.0,0.0,0.0,0.0,0.0,0.0,0.0,0.0,0.0,0.0,0.0,0.0,0.0,0.0,0.0,0.0,0.0,0.0,0.0,0.0,0.0,0.0,0.0,0.0,0.0,0.0,0.0,0.0,0.0,0.0,0.0,0.0,0.0,0.0,0.0,0.0,0.0,0.0,0.0,0.0,0.0,0.0,0.0,0.0,0.0,0.0,0.0,0.0,0.0,0.0,0.0,0.0,0.0,0.0,0.0,0.0,0.0,0.0,0.0,0.0,0.0,0.0,0.0,0.0,0.0,0.0,0.0,0.0,0.0,0.0,0.0,0.0,0.0,0.0,0.0,0.0,0.0,0.0,0.0,0.0,0.0,0.0,0.0,0.0,0.0,0.0,0.0,0.0,0.0,0.0,0.0,0.0,0.0,0.0,0.0,0.0,0.0,0.0,0.0,0.0,0.0,0.0,0.0,0.0,0.0,0.0,0.0,0.0,0.0,0.0,0.0,0.0,0.0,0.0,0.0,0.0,0.0,0.0,0.0,0.0,0.0,0.0,0.0,0.0,0.0,0.0,0.0,0.0,0.0,0.0,0.0,0.0,0.0,0.0,0.0,0.0,0.0,0.0,0.0,0.0,0.0,0.0,0.0,0.0,0.0,0.0,0.0,0.0,0.0,0.0,0.0,0.0,0.0,0.0,0.0,0.0,0.0,0.0,0.0,0.0,0.0,0.0,0.0,0.0,0.0,0.0,0.0,0.0,0.0,0.0,0.0,0.0,0.0,0.0,0.0,0.0,0.0,0.0,0.0,0.0,0.0,0.0,0.0,0.0,0.0,0.0,0.0,0.0,0.0,0.0,0.0,0.0,0.0,0.0,0.0,0.0,0.0,0.0,0.0,0.0,0.0,0.0,0.0,0.0,0.0,0.0,0.0,0.0,0.0,0.0,0.0,0.0,0.0,0.0,0.0,0.0,0.0,0.0,0.0,0.0,0.0,0.0,0.0,0.0,0.0,0.0,0.0,0.0,0.0,0.0,0.0,0.0,0.0,0.0,0.0,0.0,0.0,0.0,0.0,0.0,0.0,0.0,0.0,0.0,0.0,0.0,0.0,0.0,0.0,0.0,0.0,0.0,0.0,0.0,0.0,0.0,0.0,0.0,0.0,0.0,0.0,0.0,0.0,0.0,0.0,0.0,0.0,0.0,0.0,0.0,0.0,0.0,0.0,0.0,0.0,0.0,0.0,0.0,0.0,0.0,0.0,0.0,0.0,0.0,0.0,0.0,0.0,0.0,0.0,0.0,0.0,0.0,0.0,0.0,0.0,0.0,0.0,0.0,0.0,0.0,0.0,0.0,0.0,0.0,0.0,0.0,0.0,0.0,0.0,0.0,0.0,0.0,0.0,0.0,0.0,0.0,0.0,0.0,0.0,0.0,0.0,0.0,0.0,0.0,0.0,0.0,0.0,0.0,0.0,0.0,0.0,0.0,0.0,0.0,0.0,0.0,0.0,0.0,0.0,0.0,0.0,0.0,0.0,0.0,0.0,0.0,0.0,0.0,0.0,0.0,0.0,0.0,0.0,0.0,0.0,0.0,0.0,0.0,0.0,0.0,0.0,0.0,0.0,0.0,0.0,0.0,0.0,0.0,0.0,0.0,0.0,0.0,0.0,0.0,0.0,0.0,0.0,0.0,0.0,0.0,0.0,0.0,0.0,0.0,0.0,0.0,0.0,0.0,0.0,0.0,0.0,0.0,0.0,0.0,0.0,0.0,0.0,0.0,0.0,0.0,0.0,0.0,0.0,0.0,0.0,0.0,0.0,0.0,0.0,0.0,0.0,0.0,0.0,0.0,0.0,0.0,0.0,0.0,0.0,0.0,0.0,0.0,0.0,0.0,0.0,0.0,0.0,0.0,0.0,0.0,0.0,0.0,0.0,0.0,0.0,0.0,0.0,0.0,0.0,0.0,0.0,0.0,0.0,0.0,0.0,0.0,0.0,0.0,0.0,0.0,0.0,0.0,0.0,0.0,0.0,0.0,0.0,0.0,0.0,0.0,0.0,0.0,0.0,0.0,0.0,0.0,0.0,0.0,0.0,0.0,0.0,0.0,0.0,0.0,0.0,0.0,0.0,0.0,0.0,0.0,0.0,0.0,0.0,0.0,0.0,0.0,0.0,0.0,0.0,0.0,0.0,0.0,0.0,0.0,0.0,0.0,0.0,0.0,0.0,0.0,0.0,0.0,0.0,0.0,0.0,0.0,0.0,0.0,0.0,0.0,0.0,0.0,0.0,0.0,0.0,0.0,0.0,0.0,0.0,0.0,0.0,0.0,0.0,0.0,0.0,0.0,0.0,0.0,0.0,0.0,0.0,0.0,0.0,0.0,0.0,0.0,0.0,0.0,0.0,0.0,0.0,0.0,0.0,0.0,0.0,0.0,0.0,0.0,0.0,0.0,0.0,0.0,0.0,0.0,0.0,0.0,0.0,0.0,0.0,0.0,0.0,0.0,0.0,0.0,0.0,0.0,0.0,0.0,0.0,0.0,0.0,0.0,0.0,0.0,0.0,0.0,0.0,0.0,0.0,0.0,0.0,0.0,0.0,0.0,0.0,0.0,0.0,0.0,0.0,0.0,0.0,0.0,0.0,0.0,0.0,0.0,0.0,0.0,0.0,0.0,0.0,0.0,0.0,0.0,0.0,0.0,0.0,0.0,0.0,0.0,0.0,0.0,0.0,0.0,0.0,0.0,0.0,0.0,0.0,0.0,0.0,0.0,0.0,0.0,0.0,0.0,0.0,0.0,0.0,0.0,0.0,0.0,0.0,0.0,0.0,0.0,0.0,0.0,0.0,0.0,0.0,0.0,0.0,0.0,0.0,0.0,0.0,0.0,0.0,0.0,0.0,0.0,0.0,0.0,0.0,0.0,0.0,0.0,0.0,0.0,0.0,0.0,0.0,0.0,0.0,0.0,0.0,0.0,0.0,0.0,0.0,0.0,0.0,0.0,0.0,0.0,0.0,0.0,0.0,0.0,0.0,0.0,0.0,0.0,0.0,0.0,0.0,0.0,0.0,0.0,0.0,0.0,0.0,0.0,0.0,0.0,0.0,0.0,0.0,0.0,0.0,0.0,0.0,0.0,0.0,0.0,0.0,0.0,0.0,0.0,0.0,0.0,0.0,0.0,0.0,0.0,0.0,0.0,0.0,0.0,0.0,0.0,0.0,0.0,0.0,0.0,0.0,0.0,0.0,0.0,0.0,0.0,0.0,0.0,0.0,0.0,0.0,0.0,0.0,0.0,0.0,0.0,0.0,0.0,0.0,0.0,0.0,0.0,0.0,0.0,0.0,0.0,0.0,0.0,0.0,0.0,0.0,0.0,0.0,0.0,0.0,0.0,0.0,0.0,0.0,0.0,0.0,0.0,0.0,0.0,0.0,0.0,0.0,0.0,0.0,0.0,0.0,0.0,0.0,0.0,0.0,0.0,0.0,0.0,0.0,0.0,0.0,0.0,0.0,0.0,0.0,0.0,0.0,0.0,0.0,0.0,0.0,0.0,0.0,0.0,0.0,0.0,0.0,0.0,0.0,0.0,0.0,0.0,0.0,0.0,0.0,0.0,0.0,0.0,0.0,0.0,0.0,0.0,0.0,0.0,0.0,0.0,0.0,0.0,0.0,0.0,0.0,0.0,0.0,0.0,0.0,0.0,0.0,0.0,0.0,0.0,0.0,0.0,0.0,0.0,0.0,0.0,0.0,0.0,0.0,0.0,0.0,0.0,0.0,0.0,0.0,0.0,0.0,0.0,0.0,0.0,0.0,0.0,0.0,0.0,0.0,0.0,0.0,0.0,0.0,0.0,0.0,0.0,0.0,0.0,0.0,0.0,0.0,0.0,0.0,0.0,0.0,0.0,0.0,0.0,0.0,0.0,0.0,0.0,0.0,0.0,0.0,0.0,0.0,0.0,0.0,0.0,0.0,0.0,0.0,0.0,0.0,0.0,0.0,0.0,0.0,0.0,0.0,0.0,0.0,0.0,0.0,0.0,0.0,0.0,0.0,0.0,0.0,0.0,0.0,0.0,0.0,0.0,0.0,0.0,0.0,0.0,0.0,0.0,0.0,0.5939,0.0,0.0,0.0,0.0,0.0,0.0,0.0,0.0,0.0,0.0,0.0,0.0,0.0,0.0,0.0,0.0,0.0,0.0,0.0,0.0,0.0,0.0,0.0,0.0,1.0869,1.075,1.1159,1.0394,0.9983,1.0159,0.0,0.0,0.0,0.0,0.0,1.1444,1.1667,1.177,1.1682,1.2439,1.1587,0.9232,0.8612,0.7869,0.6987,0.0,0.0,0.0,0.0,0.0,0.0,0.0,0.0,0.0,0.0,0.0,0.0,0.0,0.0,0.0,0.0,0.0,0.0,0.0,0.0,0.0,0.0,0.0,0.0,0.0,0.0,0.0,0.0,0.0,0.0,0.0,0.0,0.0,0.0,0.0,0.0,0.0,0.0,0.0,0.0,0.0,0.0,0.0,0.0,0.0,0.0,0.0,0.0,0.0,0.0,0.0,0.0,0.0,0.0,0.0,0.0,0.0,0.0,0.0,0.0,0.0,0.0,0.0,0.0,0.0,0.0,0.0,0.0,0.0,0.0,0.0,0.3842,0.0,0.0,0.0,0.0,0.0,0.0,0.0,0.0,0.0,0.0,0.0,0.0,0.0,0.0,0.0,0.0,0.0,0.0,0.0,0.0,0.0,1.1593,1.1615,1.1141,1.0977,1.1355,1.0505,1.011,1.0496,1.0247,1.0285,1.0691,1.1048,1.137,1.1659,1.2013,1.2137,1.1955,1.2059,1.1188,0.9431,0.8788,0.7715,0.6395,0.6113,0.0,0.0,0.0,0.0,0.0,0.0,0.0,0.0,0.0,0.0,0.0,0.0,0.0,0.0,0.0,0.0,0.0,0.0,0.0,0.0,0.0,0.0,0.0,0.0,0.0,0.0,0.0,0.0,0.0,0.0,0.0,0.0,0.0,0.0,0.0,0.0,0.0,0.0,0.0,0.0,0.0,0.0,0.0,0.0,0.0,0.0,0.0,0.0,0.0,0.0,0.0,0.0,0.0,0.0,0.0,0.0,0.0,0.0,0.0,0.0,0.0,0.0,0.0,0.5077,0.4634,0.3729,0.4066,0.3767,0.2919,0.27,0.2642,0.2723,0.3717,0.0,0.0,0.0,0.0,0.0,0.0,0.0,0.0,0.0,0.0,0.0,0.0,0.0,0.0,0.0,0.0,0.0,0.0,0.0,1.1718,1.1384,1.1132,1.0859,1.0592,1.0258,0.9995,0.9753,0.997,1.0183,1.036,1.1061,1.1608,1.1949,1.2663,1.275,1.2164,1.1103,1.0676,1.0792,0.9102,0.79,0.7092,0.5524,0.0,0.0,0.0,0.0,0.0,0.0,0.0,0.0,0.0,0.0,0.0,0.0,0.0,0.0,0.0,0.0,0.0,0.0,0.0,0.0,0.0,0.0,0.0,0.0,0.0,0.0,0.0,0.0,0.0,0.0,0.0,0.0,0.0,0.0,0.0,0.0,0.0,0.0,0.0,0.0,0.0,0.0,0.0,0.7886,0.7233,0.0,0.0,0.0,0.0,0.0,0.0,0.0,0.0,0.0,0.0,0.0,0.0,0.0,0.7086,0.6497,0.5856,0.5439,0.5242,0.5173,0.4811,0.4273,0.4348,0.4049,0.3463,0.2649,0.0,0.2047,0.1591,0.0,0.0,0.0,0.0,0.0,0.0,0.0,0.0,0.0,0.0,0.0,0.0,0.0,0.0,0.0,0.0,0.0,0.0,0.0,0.0,0.0,1.1178,1.0602,0.9856,0.9015,0.8344,0.7956,0.8055,0.8436,0.9105,1.0115,1.0856,1.1327,1.2342,1.3041,1.3381,1.1889,1.1322,1.1611,0.998,0.8767,0.795,0.7129,0.6749,0.668,0.6929,0.0,0.0,0.0,0.0,0.0,0.0,0.0,0.0,0.0,0.0,0.0,0.0,0.0,0.0,0.0,0.0,0.0,0.0,0.0,0.0,0.0,0.0,0.0,0.0,0.0,0.0,0.0,0.0,0.0,0.0,0.0,0.0,0.0,0.0,0.0,0.0,0.0,0.0,0.0,0.9334,0.7417,0.6713,0.5142,0.4271,0.0,0.0,0.0,0.0,0.0,0.0,0.0,0.0,0.0,0.8743,0.7781,0.7461,0.7854,0.6947,0.6501,0.6438,0.6679,0.6887,0.707,0.7264,0.7298,0.7149,0.6611,0.5473,0.392,0.1873,0.1612,0.263,0.0,0.0,0.0,0.0,1.0107,1.1106,0.0,0.0,0.0,0.0,0.0,0.0,0.0,0.0,0.0,0.0,0.0,0.0,1.1833,1.1196,1.0379,0.9336,0.8034,0.7025,0.6491,0.6596,0.7082,0.8063,0.9297,1.0232,1.0851,1.1817,1.2877,1.4053,1.2432,1.1813,1.2101,1.0704,0.9662,0.9004,0.8771,0.8,0.6918,0.6906,0.6982,0.0,0.0,0.0,0.0,0.0,0.0,0.0,0.0,0.0,0.0,0.0,0.0,0.0,0.0,0.0,0.0,0.0,0.0,0.0,0.0,0.0,0.0,0.0,0.0,0.0,0.0,0.0,0.0,0.0,0.0,0.0,0.0,0.0,0.0,0.0,0.0,0.0,0.0,0.9209,0.74,0.6574,0.504,0.4144,0.0,0.0,0.0,0.0,0.0,0.0,0.7449,0.7658,0.8154,0.9061,0.7923,0.7759,0.8768,0.7806,0.7413,0.761,0.8324,0.8975,0.9595,0.9966,1.0173,1.0228,0.9643,0.8252,0.6161,0.3227,0.168,0.1276,0.304,0.4167,0.506,0.7039,0.8384,0.9266,0.0,0.0,0.0,0.0,0.0,0.0,0.0,0.0,0.0,0.0,0.0,1.2323,1.1846,1.1207,1.0341,0.9209,0.7878,0.6825,0.6166,0.6555,0.7089,0.7786,0.9112,1.0208,1.1062,1.1399,1.2129,1.3359,1.1917,1.1556,1.216,1.0949,1.037,1.0368,0.9471,0.8677,0.7956,0.7221,0.7269,0.7783,0.0,0.0,0.0,0.0,0.0,0.0,0.0,0.0,0.0,0.0,0.0,0.0,0.0,0.0,0.0,0.0,0.0,0.0,0.0,0.0,0.0,0.0,0.0,0.0,0.0,0.0,0.0,0.0,0.0,0.0,0.0,0.0,0.0,0.0,0.0,0.0,0.0,0.0,0.0,0.7466,0.5603,0.0,0.0,0.0,0.0,0.6047,0.7078,0.7532,0.7324,0.819,0.8501,0.7978,0.7913,0.7759,0.7563,0.7515,0.7788,0.8368,0.9592,1.0439,1.0904,1.1116,1.1122,1.0867,0.953,0.8678,0.8049,0.5562,0.3372,0.1647,0.1641,0.2528,0.3837,0.4266,0.5577,0.7144,0.0,0.0,0.0,0.0,0.0,1.3803,1.5081,1.4638,1.4497,1.5471,1.4679,1.3844,1.3283,1.2317,1.0959,0.9131,0.7377,0.595,0.496,0.5318,0.5981,0.685,0.859,1.0187,1.1579,1.1538,1.2091,1.3313,1.2409,1.213,1.2376,1.1376,1.0926,1.0931,1.0789,1.0523,1.012,0.8345,0.7534,0.7328,0.6721,0.6102,0.0,0.0,0.0,0.0,0.0,0.0,0.0,0.0,0.0,0.0,0.0,0.0,0.0,0.0,0.0,0.0,0.0,0.0,0.0,0.0,0.0,0.0,0.0,0.0,0.0,0.0,0.0,0.0,0.0,0.0,0.0,0.0,0.0,0.0,0.0,0.0,0.0,0.7758,0.6113,0.0,0.454,0.4556,0.4956,0.5834,0.64,0.695,0.7536,0.8006,0.8062,0.7783,0.7777,0.7616,0.7365,0.7365,0.7753,0.8548,0.9482,1.0712,1.2172,1.268,1.3142,1.347,1.297,1.1516,0.9387,0.8357,0.6358,0.3883,0.2982,0.301,0.3562,0.386,0.4719,0.5764,0.0,0.0,0.0,0.0,0.0,1.4101,1.5279,1.509,1.5158,1.6126,1.5587,1.4935,1.4488,1.3448,1.1948,0.9857,0.7996,0.6372,0.5072,0.5342,0.5869,0.6593,0.8459,1.0044,1.1302,1.1351,1.1956,1.3142,1.2894,1.2931,1.3227,1.25,1.218,1.2207,1.1991,1.1869,1.167,0.9836,0.8626,0.7882,0.7058,0.6222,0.5404,0.0,0.0,0.0,0.0,0.0,0.0,0.0,0.0,0.0,0.0,0.0,0.0,0.0,0.0,0.0,0.0,0.0,0.0,0.0,0.0,0.0,0.0,0.0,0.0,0.0,0.0,0.0,0.0,0.0,0.0,0.0,0.0,0.0,0.0,0.0,0.844,0.7762,0.6532,0.5445,0.4815,0.4664,0.5011,0.5845,0.6303,0.6912,0.767,0.7895,0.7949,0.7783,0.7723,0.7568,0.7365,0.7287,0.7622,0.833,0.9589,1.11,1.2757,1.369,1.4412,1.5001,1.4777,1.3286,1.1,1.027,0.8564,0.6162,0.4368,0.3592,0.3471,0.3916,0.4484,0.5208,0.0,0.0,0.0,0.0,0.0,1.3992,1.4869,1.4911,1.514,1.5941,1.5788,1.5533,1.5399,1.4617,1.3331,1.1436,0.9797,0.8215,0.6682,0.6775,0.6971,0.7214,0.8749,0.9802,1.0235,1.0811,1.1673,1.2772,1.3245,1.3887,1.4652,1.4186,1.4066,1.4154,1.3041,1.2567,1.2551,1.1572,1.0614,0.9551,0.8039,0.7031,0.6367,0.0,0.0,0.0,0.0,0.0,0.0,0.0,0.0,0.0,0.0,0.0,0.0,0.0,0.0,0.0,0.0,0.0,0.0,0.0,0.0,0.0,0.0,0.0,0.0,0.0,0.0,0.0,0.0,0.0,0.0,0.0,0.0,0.0,0.9383,0.9389,0.9022,0.7694,0.682,0.6032,0.5305,0.5044,0.5285,0.6037,0.6834,0.745,0.7723,0.8055,0.8115,0.7901,0.7783,0.7616,0.7467,0.7286,0.7404,0.7823,1.003,1.1586,1.2563,1.3927,1.4782,1.5073,1.4501,1.3717,1.2743,1.1226,0.981,0.828,0.5534,0.4048,0.3611,0.4207,0.4743,0.5392,0.0,0.0,0.0,1.2615,1.3267,1.4141,1.5011,1.5563,1.6199,1.7062,1.7413,1.7535,1.7349,1.6475,1.5054,1.2975,1.146,0.9995,0.8476,0.8427,0.8867,0.9742,0.9715,1.0097,1.0977,1.115,1.1608,1.2359,1.2677,1.3153,1.3752,1.3584,1.3676,1.3979,1.36,1.3369,1.3238,1.2841,1.2345,1.1549,0.89,0.7792,0.7563,0.0,0.0,0.0,0.0,0.0,0.0,0.0,0.0,0.0,0.0,0.0,0.0,0.0,0.0,0.0,0.0,0.0,0.0,0.0,0.0,0.0,0.0,0.0,0.0,0.0,0.0,0.0,0.0,0.0,0.0,0.0,1.1601,1.0904,1.0745,1.0118,0.9337,0.8464,0.7603,0.676,0.5952,0.5898,0.6044,0.636,0.715,0.7723,0.8055,0.8434,0.8434,0.7901,0.7883,0.7664,0.7192,0.7127,0.7224,0.7382,0.8544,0.9502,1.0299,1.1173,1.2219,1.3301,1.2937,1.2446,1.1827,1.0815,0.9364,0.7623,0.5895,0.4756,0.4153,0.4279,0.4709,0.5435,0.0,0.0,0.0,1.2523,1.299,1.3814,1.5045,1.5885,1.6733,1.7729,1.8287,1.859,1.8484,1.7819,1.6684,1.4934,1.3502,1.2112,1.075,1.0057,1.0033,1.0838,1.0354,1.0454,1.1333,1.1527,1.1888,1.2388,1.3445,1.3973,1.4,1.4516,1.4733,1.464,1.423,1.3994,1.3914,1.3712,1.3489,1.3031,1.073,0.954,0.8997,0.7718,0.6952,0.644,0.5801,0.504,0.4252,0.3727,0.0,0.0,0.0,0.0,0.0,0.0,0.0,0.0,0.0,0.0,0.0,0.0,0.0,0.0,0.0,0.0,0.0,0.0,0.0,0.0,0.0,0.0,0.0,0.0,1.192,1.1207,1.1019,1.0225,0.9368,0.8643,0.7702,0.6899,0.6346,0.6293,0.6479,0.6873,0.757,0.8103,0.8268,0.848,0.8374,0.7836,0.783,0.7616,0.7198,0.7094,0.7155,0.7303,0.8072,0.8811,0.951,1.0433,1.1599,1.2844,1.284,1.274,1.247,1.1443,1.0233,0.0,0.0,0.0,0.0,0.0,0.5287,0.591,0.0,0.0,0.0,1.25,1.2678,1.3345,1.4924,1.5938,1.6887,1.7951,1.8611,1.899,1.9078,1.883,1.8162,1.6976,1.5688,1.4397,1.3079,1.1564,1.085,1.1174,1.0898,1.0987,1.1498,1.1948,1.234,1.2694,1.4824,1.5496,1.4836,1.613,1.6346,1.5605,1.4824,1.4497,1.4535,1.4283,1.416,1.4066,1.2966,1.1761,1.0538,0.9577,0.8844,0.8224,0.7395,0.6667,0.5914,0.4828,0.0,0.0,0.0,0.0,0.0,0.0,0.0,0.0,0.0,0.0,0.0,0.0,0.0,0.0,0.0,0.0,0.0,0.0,0.0,0.0,0.0,0.0,0.0,0.0,1.2128,1.1153,1.0681,1.001,0.9262,0.839,0.7467,0.6797,0.6562,0.6556,0.6852,0.7475,0.8152,0.8474,0.8421,0.0,0.0,0.0,0.0,0.7461,0.7149,0.7089,0.7104,0.73,0.8155,0.8856,0.945,1.0622,1.1859,1.3137,1.3505,1.3789,1.3925,1.2623,1.1676,1.0845,0.79,0.6295,0.5696,0.5819,0.6124,0.6605,0.0,0.0,0.0,1.3142,1.3301,1.3631,1.4248,1.5605,1.6773,1.7331,1.8562,1.9443,1.9632,1.9587,1.9132,1.8074,1.7493,1.6298,1.422,1.2796,1.2113,1.2293,1.1891,1.1828,1.2209,1.2549,1.2916,1.3244,1.4822,1.5316,1.4825,1.5835,1.5949,1.5286,1.5067,1.4909,1.4818,1.472,1.4602,1.4456,1.4014,1.3131,1.1994,1.0929,1.0186,0.9651,0.9154,0.8192,0.7073,0.639,0.5481,0.454,0.3768,0.0,0.0,0.0,0.0,0.0,0.0,0.0,0.0,0.0,0.0,0.0,0.0,0.0,0.0,0.0,0.0,0.0,0.0,0.0,0.0,1.219,1.179,1.1225,1.0732,1.0071,0.9262,0.8341,0.7724,0.7231,0.6872,0.7387,0.7909,0.8179,0.8854,0.904,0.8725,0.8448,0.7925,0.709,0.6918,0.6647,0.6273,0.6924,0.7023,0.6586,0.0,0.0,0.8237,0.8691,1.0242,1.2565,1.2649,1.3254,1.4154,1.2967,1.1502,0.9883,0.8658,0.7699,0.6926,0.6848,0.6742,0.6725,0.0,0.0,0.0,1.2782,1.306,1.3595,1.4644,1.5923,1.7027,1.7791,1.857,1.9129,1.9334,1.9354,1.9154,1.864,1.832,1.7449,1.5813,1.4794,1.4109,1.382,1.3411,1.3116,1.2883,1.3241,1.3444,1.3556,1.4927,1.5292,1.4714,1.5635,1.5719,1.5096,1.5061,1.5008,1.4953,1.4986,1.4973,1.493,1.4791,1.4325,1.3607,1.2659,1.1975,1.1451,1.1047,1.0349,0.951,0.8613,0.7908,0.7253,0.612,0.5352,0.474,0.0,0.0,0.0,0.0,0.0,0.0,0.0,0.0,0.0,0.0,0.0,0.0,0.0,0.0,0.9829,1.053,0.0,1.113,1.1576,1.1388,1.0884,1.0006,0.9537,0.9275,0.9234,0.891,0.8631,0.8527,0.8996,0.9173,0.892,0.8948,0.8935,0.8712,0.8019,0.7329,0.6702,0.6481,0.6322,0.6269,0.6623,0.6918,0.7049,0.7206,0.7577,0.8202,0.8361,0.991,1.2426,1.252,1.365,1.5358,1.4006,1.227,1.0446,1.0272,0.9397,0.8204,0.8115,0.8189,0.8359,0.0,0.0,0.0,1.2478,1.2899,1.3602,1.5065,1.6101,1.7046,1.7993,1.8273,1.8459,1.865,1.867,1.8755,1.8912,1.8726,1.8232,0.0,1.668,1.604,1.5407,1.5106,1.4662,1.4073,1.4366,1.4386,1.4114,1.5404,1.5594,1.4709,1.558,1.5638,1.5023,1.5003,1.5019,1.5047,1.5332,1.5396,1.5312,1.5479,1.5314,1.4865,1.4198,1.3604,1.3068,1.2714,1.2333,1.1879,1.1005,1.057,1.0238,0.9121,0.8258,0.746,0.6353,0.5764,0.0,0.0,0.0,0.0,0.0,0.0,0.0,0.0,0.0,1.0487,1.0282,1.0205,1.0344,1.0881,1.0981,1.1019,1.1029,1.0943,1.0475,0.9284,0.9102,0.9406,1.0303,0.9887,0.9657,1.0028,1.0183,0.9992,0.9336,0.8847,0.8508,0.8277,0.7326,0.6605,0.6224,0.5972,0.6024,0.6322,0.641,0.6815,0.7466,0.7179,0.7477,0.8261,0.84,0.9907,1.2454,1.3066,1.44,1.6041,1.4675,1.3044,1.1479,1.1808,1.1046,0.9739,0.9515,0.9711,1.0051,0.0,0.0,0.0,0.0,0.0,1.402,1.446,1.5369,1.6111,1.6337,1.7111,1.7688,1.7816,1.7902,1.821,1.893,1.895,1.8774,1.8372,1.7535,1.6959,1.6706,1.6588,1.6504,1.6413,1.6624,1.6354,1.5562,1.6723,1.6536,1.5069,1.5886,1.5845,1.5085,1.5027,1.5034,1.5145,1.5994,1.5951,1.5362,1.6148,1.5898,1.5057,1.484,1.4426,1.3927,1.3655,1.3209,1.2816,1.3093,1.2803,1.2288,1.2248,1.141,1.0148,0.8668,0.0,0.7063,0.6387,0.7091,0.8165,0.8857,0.9666,1.0343,0.0,0.0,1.062,1.0692,1.0778,1.0826,1.0905,1.1002,1.0964,1.0534,1.0428,1.0108,0.9399,0.9359,0.9769,1.065,0.9412,0.8865,0.982,0.9666,0.9374,0.8974,0.8747,0.819,0.7208,0.6617,0.591,0.5089,0.5104,0.5312,0.5692,0.6394,0.6676,0.6558,0.708,0.7351,0.7372,0.7716,0.9562,1.2603,1.4634,1.5152,1.4516,1.3723,1.2963,1.2258,1.2341,1.2222,1.1945,1.1079,1.0578,1.0339,0.0,0.0,0.0,0.0,0.0,1.4219,1.4387,1.5247,1.5921,1.6025,1.6441,1.6783,1.6864,1.6977,1.7584,1.8943,1.9021,1.9167,1.9526,1.9104,1.881,1.8761,1.8171,1.7874,1.7907,1.7534,1.7177,1.6853,1.6854,1.6534,1.5918,1.5655,1.5368,1.5059,1.5582,1.5814,1.5861,1.6833,1.7069,1.6732,1.6597,1.6191,1.5618,1.492,1.4453,1.4153,1.4115,1.4393,0.0,0.0,1.5011,1.5385,1.5007,1.3865,1.242,1.1313,0.9837,0.0,0.8061,0.8451,0.0,0.0,0.9877,1.0235,1.0736,1.0802,1.085,1.1109,1.1099,1.105,1.105,1.0926,1.0697,0.0,1.0205,0.9813,0.8958,0.9199,0.9778,1.0494,1.0753,1.1012,1.1372,1.1776,1.1475,1.009,0.8791,0.7765,0.7052,0.6086,0.5396,0.4976,0.5062,0.5362,0.5871,0.6401,0.6782,0.7066,0.8091,0.8409,0.8215,1.035,1.2459,1.4537,1.561,1.5373,1.4209,1.3795,1.3153,1.2413,1.2437,1.2473,1.2389,1.1923,1.19,1.2046,0.0,0.0,0.0,0.0,0.0,1.4275,1.4375,1.5016,1.5492,1.5527,1.5667,1.5799,1.5895,1.6196,1.7012,1.8598,1.8941,1.9424,2.0305,2.0431,2.0372,2.0167,1.9666,1.9292,1.91,1.8496,1.8103,1.7907,1.7092,1.6614,1.6413,1.5468,1.5171,1.5438,1.6124,1.6514,1.6745,1.7722,1.7978,1.767,1.7221,1.6589,1.5828,1.498,1.4453,1.4172,1.4425,1.5085,0.0,0.0,1.6834,1.7718,1.7476,1.6265,1.4755,1.3795,1.1727,0.9787,0.9796,0.0,0.0,1.0157,1.0205,1.0273,1.0802,1.0916,1.0964,1.126,1.1153,1.1026,1.1164,1.0843,1.049,1.0302,1.0427,1.0262,0.9458,1.0002,1.0644,1.1056,1.2495,1.3295,1.2901,1.371,1.3237,1.0677,0.9136,0.7759,0.6617,0.5555,0.4961,0.4888,0.497,0.5369,0.6034,0.683,0.7536,0.8065,0.9363,0.9926,0.9873,1.2881,1.4725,1.5581,1.5903,1.5387,1.4272,1.3819,1.3175,1.2532,1.277,1.2902,1.2938,1.2926,1.3064,1.3285,0.0,0.0,0.0,0.0,0.0,1.4175,1.4375,1.4433,1.443,1.4356,1.4526,1.471,1.4919,1.5642,1.6572,1.7738,1.8667,1.9568,2.0445,2.1212,2.1245,2.0329,2.1006,2.0982,2.0075,1.996,1.95,1.8663,1.7869,1.706,1.6284,1.5482,1.5574,1.6465,1.6484,1.6932,1.7706,1.8595,1.8393,1.7562,1.8184,1.7235,1.5404,1.5162,1.4633,1.407,1.459,0.0,0.0,1.7311,1.8108,1.8548,1.9566,1.8819,0.0,1.592,1.3382,1.1125,0.0,0.0,1.0466,1.0791,1.0582,1.039,1.0802,1.0916,1.0964,1.1136,1.0861,1.0644,1.1035,1.0714,1.0329,1.0138,1.1157,1.1826,1.1554,1.2353,1.294,1.2843,1.4352,1.4985,0.0,1.4655,1.3709,1.0022,0.9747,0.8441,0.5487,0.4959,0.4629,0.4512,0.4581,0.4994,0.5819,0.7865,0.9082,0.9375,1.077,1.1687,1.2253,1.4377,1.5108,1.4752,1.5353,1.5209,1.451,1.3386,1.2861,1.2851,1.3508,1.3901,1.4096,1.4326,1.3919,1.3319,0.0,0.0,0.0,0.0,0.0,0.0,1.3528,1.388,1.4002,1.3672,1.4015,0.0,0.0,0.0,0.0,0.0,1.7619,1.8545,1.9515,2.0369,2.0932,2.1141,2.124,2.1113,2.0709,2.0406,1.9926,1.9232,1.8192,1.7763,1.7879,1.6895,1.6704,1.7262,1.7833,1.8237,1.8536,1.9284,1.9373,1.8961,1.8255,1.7089,1.568,1.448,1.3869,1.3657,0.0,0.0,0.0,1.7732,1.8521,1.8906,1.9842,1.9049,1.7386,1.5437,1.4132,1.3103,0.0,0.0,1.1435,1.1269,1.0911,1.073,1.1428,1.1518,1.149,1.14,1.1118,1.1239,1.2333,1.2021,1.1893,1.2846,1.3177,1.3208,1.2779,1.2123,1.1696,1.1715,1.2551,0.0,0.0,0.0,0.0,1.1197,1.0148,0.855,0.5878,0.5069,0.4632,0.4519,0.4691,0.5104,0.5769,0.7963,0.9046,0.9018,1.0862,1.2997,1.5221,1.5392,1.5806,1.6333,1.5767,1.5101,1.4372,1.3943,1.3476,1.3181,1.4396,1.4646,1.4362,1.4835,1.4841,1.46,0.0,0.0,0.0,0.0,0.0,0.0,0.0,0.0,0.0,0.0,0.0,0.0,0.0,0.0,0.0,0.0,0.0,1.8036,1.8993,2.0187,2.0937,2.1093,2.121,2.1043,2.0577,2.0294,1.9792,1.9063,1.8361,1.8048,1.8113,1.7183,1.7179,1.7971,1.8245,1.8667,1.9164,1.9525,1.9563,1.9254,1.8063,1.6841,1.5643,1.4728,1.4237,0.0,0.0,0.0,1.6634,1.7771,1.8628,1.9323,1.9902,1.9034,1.7499,1.5958,1.5155,1.4641,0.0,1.3076,1.2248,1.2023,1.1371,1.095,1.1584,1.1692,1.1612,1.1522,1.1226,1.1479,1.3007,1.2786,1.2823,1.4299,1.4768,1.4755,1.4265,1.3121,1.2241,1.2093,1.1724,1.1033,0.0,0.0,0.0,1.0581,0.9763,0.8339,0.5991,0.5018,0.4577,0.4625,0.4689,0.5061,0.5605,0.8313,1.0177,1.1122,1.2702,1.4448,1.6252,1.5931,1.6221,1.6891,1.5722,1.4969,1.4492,1.4191,1.3756,1.3471,1.4943,1.5275,1.4925,1.541,1.5668,1.5661,0.0,0.0,0.0,0.0,0.0,0.0,0.0,0.0,0.0,0.0,0.0,0.0,0.0,0.0,0.0,0.0,0.0,0.0,1.8877,0.0,0.0,2.0234,2.0962,2.0887,1.9811,1.977,1.9306,1.8363,1.8435,1.8031,1.7228,1.6554,1.7085,1.8571,1.7814,1.8235,1.9532,1.9369,1.9044,1.8556,1.7714,1.6561,1.5424,1.586,0.0,0.0,0.0,0.0,0.0,0.0,0.0,1.9834,1.9918,1.8983,1.7782,1.7422,1.6499,1.5694,1.6308,1.4768,1.2948,1.3032,1.1982,1.1033,1.1341,1.1405,1.1421,1.1485,1.1129,1.1354,0.0,0.0,1.3095,1.4528,1.5806,1.6424,1.5787,1.5056,1.4309,0.0,0.0,0.0,0.0,0.0,0.0,0.8119,0.0,0.7902,0.5664,0.4688,0.4411,0.4846,0.4625,0.4732,0.5265,0.8892,1.2214,1.5285,1.5894,1.5923,1.546,1.5992,1.631,1.6333,1.5273,1.4822,1.4825,1.4138,1.3734,1.371,1.5273,1.5811,1.5784,1.6136,1.6423,1.6487,0.0,0.0,0.0,0.0,0.0,0.0,0.0,0.0,0.0,0.0,0.0,0.0,0.0,0.0,0.0,0.0,0.0,0.0,0.0,0.0,0.0,0.0,0.0,0.0,0.0,0.0,0.0,0.0,1.9265,1.9237,1.9248,1.8372,1.8264,1.8819,1.8498,1.855,1.8866,1.9166,1.9206,1.8998,0.0,1.7393,1.6401,0.0,0.0,0.0,0.0,0.0,0.0,0.0,0.0,0.0,0.0,1.9636,1.843,1.7847,1.7042,1.6334,1.6353,1.4929,1.352,1.3574,1.2497,1.1475,1.1594,1.1588,1.159,1.1712,1.1322,1.1778,0.0,0.0,0.0,1.6354,1.691,0.0,1.4486,1.3329,0.0,1.035,0.0,0.708,0.6428,0.6821,0.0,0.0,0.7086,0.7171,0.5324,0.446,0.4242,0.457,0.4411,0.4576,0.5202,0.8504,1.1815,1.501,1.4863,1.47,1.4471,1.523,1.5359,1.5017,1.508,1.487,1.4479,1.4742,1.4527,1.4219,1.6155,1.6619,1.628,1.6635,1.6864,1.6814,0.0,0.0,0.0,0.0,0.0,0.0,0.0,0.0,0.0,0.0,0.0,0.0,0.0,0.0,0.0,0.0,0.0,0.0,0.0,0.0,0.0,0.0,0.0,0.0,0.0,0.0,0.0,0.0,0.0,0.0,1.9325,1.8461,1.8313,1.8756,1.8314,1.8218,1.8415,1.8988,0.0,0.0,0.0,0.0,0.0,0.0,0.0,0.0,0.0,0.0,0.0,0.0,0.0,2.0817,2.0874,2.0257,1.936,1.8708,0.0,1.6991,1.6983,1.5566,1.4016,1.3692,1.2596,1.156,1.147,1.1399,1.1394,1.1601,1.1475,0.0,1.5121,1.4521,0.0,0.0,0.0,0.0,1.4249,1.2494,1.0776,0.0,0.6991,0.0,0.4864,0.4919,0.4825,0.0,0.5685,0.5989,0.4889,0.4349,0.419,0.4356,0.4356,0.5227,0.7043,0.8901,1.1446,1.4621,1.4073,1.3934,1.4157,1.4232,1.4259,1.4292,0.0,1.4299,1.402,1.4507,1.4419,1.4193,1.5804,1.6399,1.6423,1.6705,1.6947,1.7007,0.0,0.0,0.0,0.0,0.0,0.0,0.0,0.0,0.0,0.0,1.2598,1.2489,0.0,0.0,0.0,0.0,0.0,0.0,0.0,0.0,0.0,0.0,0.0,0.0,0.0,0.0,0.0,0.0,0.0,0.0,0.0,0.0,0.0,0.0,0.0,0.0,0.0,0.0,0.0,0.0,0.0,0.0,0.0,0.0,0.0,0.0,0.0,0.0,0.0,0.0,2.238,2.1565,2.1405,2.0931,2.0323,1.9747,1.8569,1.7533,1.7926,1.6318,1.434,1.3654,1.2535,1.1487,1.1068,1.0992,1.1105,1.1437,0.0,1.2457,1.4998,1.4631,1.4629,1.6851,0.0,1.5307,1.419,1.2065,1.0158,0.8877,0.6547,0.4867,0.4455,0.4092,0.3953,0.4039,0.4615,0.4791,0.4519,0.4411,0.4411,0.4467,0.4914,0.6603,0.9649,0.9967,1.1524,1.43,1.3669,1.3674,1.4226,1.3454,1.3454,1.404,1.3786,1.3646,1.3581,1.3835,1.3881,1.3873,1.485,1.5634,1.6263,1.6404,1.6681,1.6882,0.0,0.0,0.0,0.0,0.0,0.0,0.0,0.0,0.0,0.0,1.1287,1.1241,0.0,0.0,0.0,0.0,0.0,0.0,0.0,0.0,0.0,0.0,0.0,0.0,0.0,0.0,0.0,0.0,0.0,0.0,0.0,0.0,0.0,0.0,0.0,0.0,0.0,0.0,0.0,0.0,0.0,0.0,0.0,0.0,0.0,0.0,0.0,0.0,0.0,0.0,2.241,2.1771,2.283,2.1996,2.0628,2.051,1.8921,1.7396,1.8446,1.6469,1.4072,1.3922,1.2666,1.1247,1.0576,1.0697,0.0,0.0,1.1575,1.2093,1.395,1.3297,1.3054,1.4886,1.484,1.3981,1.224,1.1367,1.0015,0.0,0.5958,0.4983,0.4656,0.4421,0.0,0.0,0.4772,0.4959,0.4688,0.4956,0.5386,0.5982,0.7696,0.9291,1.0634,1.2141,1.3401,1.4397,1.4254,1.4313,1.4529,1.4243,1.4172,1.4243,1.4207,0.0,1.3387,1.3568,1.3615,1.3646,1.4549,1.5085,1.5366,1.5674,1.5862,1.5882,0.0,0.0,0.0,0.0,0.0,0.0,0.0,1.3299,1.3,1.1424,1.0508,1.0078,1.0227,1.1213,1.1927,0.0,0.0,0.0,0.0,0.0,0.0,0.0,0.0,0.0,0.0,0.0,0.0,0.0,0.0,0.0,0.0,0.0,0.0,0.0,0.0,0.0,0.0,0.0,0.0,0.0,0.0,0.0,0.0,0.0,0.0,0.0,0.0,0.0,0.0,0.0,2.2489,2.1954,2.336,2.2398,2.0722,2.0536,1.9388,1.8138,1.8117,1.6606,1.4827,1.3809,1.2528,1.1287,1.0488,0.0,0.0,0.0,1.1426,1.1949,1.3628,1.3023,0.0,1.4119,1.3996,1.3143,1.1458,1.0929,0.0,0.7688,0.6127,0.5032,0.0,0.3948,0.3748,0.4118,0.4566,0.4811,0.4787,0.5542,0.6133,0.6555,0.8177,0.9391,1.0158,1.2153,1.3252,1.3475,1.3711,1.3983,1.4217,1.3717,1.3802,1.4387,1.4387,1.3964,1.3325,1.3599,1.3493,1.3232,1.3878,1.4441,1.4913,1.5121,1.5359,1.5552,0.0,0.0,0.0,0.0,0.0,0.0,1.2808,1.2805,1.2431,1.1014,0.9931,0.9174,0.8957,1.0166,1.1066,0.0,0.0,0.0,0.0,0.0,0.0,0.0,0.0,0.0,0.0,0.0,0.0,0.0,0.0,0.0,0.0,0.0,0.0,0.0,0.0,0.0,0.0,0.0,0.0,0.0,0.0,0.0,0.0,0.0,0.0,0.0,0.0,0.0,0.0,0.0,2.2385,2.2029,2.336,2.245,2.0856,2.0836,1.9951,1.8834,1.8162,1.6884,1.5351,1.3657,1.235,1.1254,1.04,1.0282,0.0,0.0,1.1116,1.1633,1.3142,0.0,1.2601,0.0,1.3386,1.2729,1.1623,1.0942,1.0022,0.0,0.6668,0.0,0.4538,0.3675,0.0,0.4068,0.4763,0.5284,0.5487,0.6553,0.7203,0.7331,0.8834,0.9807,1.0119,1.2338,1.3279,1.2938,1.3398,1.3827,1.4137,1.3408,1.3642,1.4685,1.4484,1.4009,1.3394,1.3446,1.3241,1.2961,1.3188,1.3714,1.4332,1.4472,1.4795,1.5174,0.0,0.0,0.0,0.0,0.0,0.0,1.2581,1.2713,1.2178,0.9957,0.9341,0.8777,0.7844,0.9281,1.0436,0.0,0.0,0.0,0.0,0.0,0.0,0.0,0.0,0.0,0.0,0.0,0.0,0.0,0.0,0.0,0.0,0.0,0.0,0.0,0.0,0.0,0.0,0.0,0.0,0.0,0.0,0.0,0.0,0.0,0.0,0.0,0.0,0.0,0.0,0.0,0.0,2.1945,2.2819,2.2153,2.1267,2.2277,0.0,0.0,1.9624,1.7486,1.4722,1.3595,1.2154,1.0843,1.0019,0.0,0.0,1.0596,1.0573,1.0695,1.1709,1.1909,0.0,0.0,0.0,1.2843,0.0,1.1729,1.0555,0.9714,0.0,0.0,0.5101,0.4347,0.4149,0.4771,0.6224,0.7154,0.745,0.8389,0.9058,0.9304,1.1798,1.2838,1.2128,1.4606,1.5255,1.3994,1.4458,1.4782,1.4974,1.463,1.4803,1.5278,1.4482,1.3962,0.0,1.27,1.2609,1.2971,1.2698,1.278,1.3109,1.3557,1.384,1.4199,0.0,0.0,0.0,0.0,0.0,0.0,1.2459,1.2735,1.2695,1.1684,1.0815,1.0146,0.9706,0.9837,1.0097,1.0417,0.0,0.0,0.0,0.0,0.0,0.0,0.0,0.0,0.0,0.0,1.5199,1.5213,1.4459,0.0,0.0,0.0,0.0,0.0,0.0,0.0,0.0,0.0,0.0,0.0,0.0,0.0,0.0,0.0,0.0,0.0,0.0,0.0,0.0,0.0,0.0,0.0,2.1911,2.1344,0.0,0.0,2.044,1.9059,1.8785,1.7268,1.5367,1.3701,1.2193,1.0852,0.979,0.0,0.9506,1.0053,1.0329,1.0698,1.1439,1.1822,1.2062,0.0,0.0,0.0,1.2929,0.0,1.1358,1.0611,0.8346,0.0,0.0,0.0,0.3797,0.4771,0.6696,0.7996,0.8355,0.9287,0.9964,1.0269,1.2195,1.2721,1.1561,1.4394,1.4933,1.315,1.4557,1.5228,1.5215,1.4712,1.4943,1.5598,1.4983,1.4325,0.0,1.3509,1.3134,1.2696,1.284,1.2978,1.3116,1.3412,1.3695,1.398,0.0,0.0,0.0,0.0,0.0,1.3071,1.2372,1.2929,1.3369,1.3171,1.2441,1.1812,1.1436,1.0978,1.0768,1.0881,1.242,0.0,0.0,0.0,0.0,0.0,0.0,0.0,0.0,0.0,1.4156,1.3942,1.3032,1.196,0.0,0.0,0.0,0.0,0.0,0.0,0.0,0.0,0.0,0.0,0.0,0.0,0.0,0.0,0.0,0.0,0.0,0.0,0.0,0.0,0.0,0.0,0.0,0.0,0.0,0.0,2.0104,1.9137,1.8361,1.7036,1.5507,1.3956,1.2259,1.072,0.0,0.0,0.9027,0.9496,0.9938,1.0495,1.1245,1.1782,1.2102,0.0,0.0,1.2939,1.285,1.2379,1.1847,0.0,0.0,0.7061,0.0,0.45,0.4129,0.5123,0.7053,0.8456,0.8961,1.0105,1.0856,1.109,1.2594,1.3003,1.2172,1.4705,1.5071,1.3367,1.4821,1.5447,1.5247,1.4182,1.4228,1.5118,1.4496,1.3905,0.0,1.3799,1.3488,1.2818,1.3039,1.3163,1.3232,1.3459,1.392,1.4525,0.0,0.0,0.0,0.0,0.0,1.3053,1.2297,1.3333,1.406,1.3739,1.3848,1.3552,1.2411,1.2632,1.2758,1.2498,1.2257,0.0,0.0,0.0,0.0,0.0,0.0,0.0,0.0,0.0,1.3854,1.3094,1.1962,1.0645,0.9227,0.8602,0.823,0.8058,0.0,0.0,0.0,0.0,0.0,0.0,0.0,0.0,0.0,0.0,0.0,0.0,0.0,0.0,0.0,0.0,0.0,0.0,0.0,0.0,0.0,0.0,1.9753,1.884,1.8952,1.6995,1.4781,1.4302,1.2266,1.0309,0.0,0.0,0.8238,0.894,0.9255,0.9757,1.0911,1.1686,1.221,1.221,0.0,0.0,1.2869,1.2313,0.0,0.0,0.0,0.8216,0.7007,0.5955,0.5596,0.607,0.7382,0.0,0.9449,1.1077,1.1963,1.2003,1.3559,1.4586,1.4948,1.6164,1.6293,1.5363,1.552,1.5499,1.5242,1.3094,1.2646,1.3554,1.2579,1.2298,0.0,1.31,1.3394,1.3471,1.3069,1.3012,1.3232,1.348,1.4533,1.5923,0.0,0.0,0.0,0.0,0.0,0.0,1.1854,1.2816,1.3657,1.3871,1.3567,1.3159,1.275,1.271,1.2621,1.2443,1.2809,0.0,0.0,0.0,0.0,0.0,0.0,0.0,0.0,1.392,1.3352,1.2746,1.093,0.9329,0.8017,0.7419,0.6981,0.6745,0.7491,0.0,0.0,0.0,0.0,0.0,0.0,0.0,0.0,0.0,0.0,0.0,0.0,0.0,0.0,0.0,0.0,0.0,0.0,0.0,0.0,1.8825,1.838,1.7894,1.7786,1.6499,1.5072,1.4637,1.2663,1.0697,1.0204,0.0,0.8267,0.8891,0.9298,0.9919,1.1132,1.1843,1.221,1.2138,1.2638,0.0,0.0,0.0,0.0,1.3026,1.0231,0.7634,0.0,0.0,0.6112,0.6493,0.8158,0.9504,1.0356,1.1304,1.2214,1.2908,1.4182,1.4983,1.5332,1.64,1.6692,1.6211,1.6747,1.6089,1.4462,1.3455,1.254,1.181,1.1257,1.1528,1.234,1.2606,1.2927,1.3328,1.3454,1.3702,1.3999,1.435,1.5312,1.6513,0.0,0.0,0.0,0.0,0.0,0.0,1.1655,1.2851,1.3903,1.4249,1.4168,1.3918,1.351,1.3475,1.3231,1.2677,1.3067,0.0,0.0,0.0,0.0,0.0,0.0,0.0,1.4132,1.3444,1.2854,1.2377,1.0301,0.8555,0.7249,0.6599,0.6093,0.5712,0.6493,0.7454,0.0,0.0,0.0,0.0,0.0,0.0,1.7747,0.0,0.0,0.0,0.0,0.0,0.0,0.0,0.0,0.0,0.0,0.0,0.0,0.0,1.7513,1.7188,0.0,1.5948,1.4881,1.4903,1.2956,0.0,0.0,0.0,0.8798,0.9111,0.9464,0.9957,1.0952,1.1603,1.2018,1.2102,1.2638,0.0,0.0,0.0,0.0,1.2892,0.0,0.0,0.0,0.6235,0.6619,0.7133,0.8588,0.9933,1.1107,1.2014,1.3028,1.4125,1.4983,1.5786,1.6425,1.7383,1.7664,1.7358,1.7517,1.6448,1.4294,1.2933,1.1513,1.0089,0.9751,1.0171,0.0,1.2131,1.2812,1.3357,1.3874,1.418,1.4393,1.4946,1.611,1.7433,0.0,0.0,0.0,0.0,0.0,0.0,0.0,1.3257,1.4538,1.4641,1.5191,1.5236,1.4301,1.4513,1.4199,1.2944,1.2903,0.0,0.0,0.0,0.0,0.0,0.0,0.0,1.365,1.296,1.2437,1.2021,0.9969,0.8256,0.6875,0.6124,0.5451,0.4998,0.5798,0.6721,0.782,1.0162,1.2108,1.3775,1.5376,1.6535,0.0,0.0,0.0,0.0,0.0,0.0,0.0,0.0,0.0,0.0,0.0,0.0,0.0,0.0,0.0,0.0,0.0,1.5427,1.4414,1.5078,1.3277,1.1492,1.2052,0.0,0.0,0.9721,0.9815,1.0098,1.058,1.1198,1.1726,1.209,1.2508,1.2803,0.0,1.3374,0.0,0.0,1.0242,0.0,0.741,0.7012,0.7164,0.7928,0.8805,1.0081,1.1747,1.3012,1.4231,1.5374,1.6009,1.6895,1.8054,1.8826,1.9037,1.865,1.8027,1.6616,1.4485,1.1807,0.9869,0.0,0.8047,0.8532,0.975,1.164,1.2866,1.3578,1.4201,1.4457,1.455,1.5296,1.6841,1.8593,0.0,0.0,0.0,0.0,0.0,0.0,0.0,0.0,0.0,0.0,1.3328,1.3102,1.2272,1.2566,1.2402,0.0,0.0,0.0,0.0,0.0,0.0,0.0,0.0,0.0,1.3175,1.2926,1.2566,1.2094,0.9893,0.8211,0.6954,0.5762,0.4948,0.457,0.5394,0.6708,0.8501,1.0698,1.2494,1.3976,1.5812,1.7116,0.0,0.0,0.0,0.0,1.8753,1.8825,0.0,0.0,0.0,0.0,0.0,0.0,0.0,0.0,1.6838,1.6391,1.5963,0.0,1.4985,1.5471,1.4192,1.2865,0.0,0.0,0.0,0.0,0.0,1.1547,1.2199,1.207,1.1836,1.1884,1.2318,1.2567,1.2318,0.0,0.0,1.1813,1.0945,0.9757,0.8058,0.814,0.8534,0.9017,1.0004,1.1048,1.2209,1.3207,1.4317,1.552,1.6935,1.7985,1.8703,1.9131,1.939,1.9442,1.9006,1.6914,1.3292,1.2035,0.9888,0.709,0.6655,0.7762,0.9952,1.0545,1.1872,1.3594,1.3702,1.4252,1.5047,1.5345,1.6981,1.9076,0.0,0.0,0.0,0.0,0.0,0.0,0.0,0.0,0.0,0.0,1.2699,1.2441,1.1755,1.1826,1.1656,0.0,0.0,0.0,0.0,0.0,0.0,0.0,0.0,1.3054,1.296,1.2543,1.2247,1.207,0.9731,0.8067,0.6975,0.5521,0.467,0.4447,0.5683,0.7125,0.8775,1.0702,1.2399,1.3882,1.5392,0.0,0.0,0.0,0.0,0.0,1.8545,1.8582,0.0,1.8694,1.8733,1.8753,0.0,0.0,0.0,0.0,1.6913,1.6517,1.5709,1.5205,1.5012,1.5612,1.4723,1.3826,1.4191,0.0,0.0,0.0,0.0,0.0,1.2471,1.2199,1.1945,1.1993,1.253,0.0,0.0,0.0,1.2899,1.2119,1.1193,0.9996,0.0,0.8597,0.8919,0.917,1.0242,1.1351,1.2414,1.331,1.4306,1.5576,1.7063,1.8238,1.8999,1.9737,2.0087,2.012,1.9681,1.7315,1.3223,1.2454,1.0154,0.6789,0.7431,0.8803,1.0721,1.1387,1.2628,1.4085,1.3912,1.4356,1.5207,1.5683,1.7135,1.8909,0.0,0.0,0.0,0.0,0.0,0.0,0.0,0.0,0.0,0.0,0.0,0.0,0.0,0.0,0.0,0.0,0.0,0.0,0.0,0.0,0.0,0.0,1.1991,1.2222,1.2777,1.2077,1.1712,1.1816,0.9522,0.7904,0.6917,0.5359,0.4634,0.466,0.6318,0.7712,0.8929,1.0628,1.2251,1.374,1.4955,0.0,0.0,0.0,0.0,0.0,0.0,0.0,0.0,1.8559,1.86,1.8584,1.8528,0.0,0.0,0.0,0.0,0.0,1.568,1.5023,1.4829,1.5503,1.4935,1.4357,1.4947,0.0,0.0,0.0,0.0,0.0,0.0,1.1997,0.0,0.0,0.0,0.0,1.3878,1.3388,1.2777,1.228,1.124,0.0,0.8869,0.8933,0.913,0.9197,1.0272,1.136,1.2472,1.3321,1.4297,1.541,1.6764,1.7891,1.8726,2.0131,2.0714,2.0481,2.0139,1.7845,1.3928,1.3384,1.1133,0.7723,0.0,0.0,1.1937,1.3048,1.3976,1.4564,1.4269,1.4572,1.5259,1.5954,1.7129,1.8493,0.0,0.0,0.0,0.0,0.0,0.0,0.0,0.0,0.0,0.0,0.0,0.0,0.0,0.0,0.0,0.0,0.0,0.0,0.0,0.0,0.0,1.2484,1.2365,1.233,1.2306,1.1836,1.1394,1.0895,0.9278,0.7878,0.6723,0.5432,0.5086,0.5552,0.6687,0.799,0.9493,1.1289,1.276,1.4013,1.5767,0.0,0.0,0.0,0.0,0.0,0.0,0.0,0.0,1.8522,1.8542,1.8542,1.8191,0.0,0.0,0.0,0.0,0.0,1.5651,1.5137,1.4897,1.5013,1.4654,1.4232,1.4073,0.0,0.0,0.0,0.0,0.0,0.0,0.0,0.0,0.0,0.0,1.2016,0.0,0.0,1.2157,1.1463,0.0,1.0931,0.9864,1.0167,1.0482,1.0578,1.1283,1.1918,1.2323,1.3521,1.4343,1.4675,1.6181,1.7032,1.7127,1.9358,2.0333,2.0004,2.0499,1.871,1.5017,1.5828,1.4309,1.1045,0.0,1.3385,1.3788,1.4052,1.4183,1.4166,1.4067,1.4607,1.5443,1.5451,1.6592,1.8303,0.0,0.0,0.0,0.0,0.0,0.0,0.0,0.0,0.0,0.0,0.0,0.0,0.0,0.0,0.0,0.0,0.0,0.0,0.0,0.0,1.2519,1.3067,1.3045,1.2859,1.2425,1.209,1.1567,1.0808,0.9452,0.8075,0.6693,0.5509,0.5307,0.6029,0.7312,0.8582,0.9824,1.1633,1.3035,1.4154,0.0,0.0,0.0,0.0,0.0,0.0,0.0,0.0,0.0,0.0,1.8146,1.8266,1.791,0.0,0.0,0.0,0.0,0.0,1.5551,1.5147,1.4871,1.4718,1.455,1.4446,1.4526,0.0,0.0,0.0,0.0,0.0,0.0,0.0,1.2575,1.274,0.0,1.2588,1.2622,1.2426,1.2098,0.0,0.0,1.1217,1.0462,1.0616,1.082,1.0922,1.1377,1.1877,1.2274,1.3102,1.3805,1.434,1.5306,1.5855,1.6009,1.7714,1.8507,1.838,1.8544,1.6917,1.3804,1.4424,1.3718,1.2095,0.0,1.4734,1.5508,1.5765,1.5533,1.505,1.4787,1.5138,1.5814,1.6322,1.7365,1.8598,0.0,0.0,0.0,0.0,0.0,0.0,0.0,0.0,0.0,0.0,0.0,0.0,0.0,0.0,0.0,0.0,0.0,0.0,0.0,1.2668,1.3147,1.3709,1.3776,1.3496,1.2859,1.2447,1.185,1.1115,0.9695,0.821,0.6622,0.5723,0.5754,0.6664,0.8,0.9182,1.0267,1.1794,1.3103,1.4173,0.0,0.0,0.0,0.0,0.0,0.0,0.0,0.0,0.0,0.0,0.0,0.0,0.0,0.0,0.0,1.6919,1.657,1.6235,1.5595,1.5208,1.4949,1.4672,0.0,1.4315,1.4526,0.0,0.0,0.0,0.0,0.0,0.0,1.2716,0.0,1.3629,1.3398,1.2991,1.2609,1.2431,1.2126,1.1728,1.1569,1.1377,1.0871,1.0972,1.1023,1.0972,1.1326,1.1769,1.2175,1.2686,1.3256,1.3988,1.4398,1.472,1.4949,1.5794,1.6488,1.6956,1.6888,1.5496,1.3022,1.3524,1.3394,1.2853,1.472,1.5918,1.6655,1.7125,1.6725,1.5823,1.5675,1.5938,1.6473,1.7207,1.7912,1.8527,0.0,0.0,0.0,0.0,0.0,0.0,0.0,0.0,0.0,0.0,0.0,0.0,0.0,0.0,0.0,0.0,0.0,0.0,0.0,1.3487,1.3775,1.4474,1.447,1.42,1.363,1.2748,1.2098,1.1745,0.9899,0.8134,0.652,0.6309,0.677,0.7792,0.8531,0.9638,1.0956,1.1711,1.2713,1.3848,1.5005,0.0,0.0,0.0,0.0,0.0,0.0,0.0,0.0,0.0,0.0,0.0,0.0,0.0,1.7635,1.6825,1.6602,1.6465,1.5911,1.558,1.5269,1.4949,1.4246,0.0,1.2763,1.1972,0.0,0.0,0.0,0.0,0.0,1.1378,1.1778,1.2408,1.2273,1.2139,1.212,0.0,1.2076,1.1578,1.1628,1.1569,1.1276,1.1377,1.1368,1.1124,1.1569,1.1877,1.1927,1.2491,1.3016,1.3457,1.3716,1.3915,1.3905,1.3988,1.4835,1.6472,1.7063,1.6232,1.4239,1.5785,1.5622,1.4194,1.6825,1.7452,1.667,1.7437,1.6908,1.5684,1.626,1.6953,1.7559,1.7385,1.7329,1.7356,0.0,0.0,0.0,0.0,0.0,0.0,0.0,0.0,0.0,0.0,0.0,1.5572,1.5143,0.0,0.0,0.0,0.0,0.0,0.0,1.4226,1.4529,1.5137,1.5301,1.5489,1.5683,1.4083,1.3009,1.2545,1.0226,0.8704,0.8055,0.7691,0.8015,0.8853,0.9659,1.0576,1.1623,1.2375,1.3382,1.4568,1.5272,1.5973,0.0,0.0,0.0,0.0,0.0,0.0,0.0,0.0,1.7898,1.8027,1.7647,1.7526,1.7392,1.6952,1.6696,1.6443,1.5924,1.5667,1.5419,1.5043,0.0,0.0,0.0,0.0,0.0,0.0,0.0,0.0,0.0,0.0,1.2563,1.3299,1.3118,1.2762,1.2403,1.2372,1.2323,1.2026,1.2126,1.2076,1.1828,1.1927,1.1877,1.1628,1.1927,1.2126,1.2126,1.2608,1.2997,1.3266,1.3467,1.361,1.3668,1.3668,1.3862,1.4277,1.4507,1.3984,1.2839,1.3486,1.4616,1.6094,1.6474,1.7489,1.8799,1.8489,1.7639,1.6581,1.7227,1.8022,1.8775,1.8467,1.8127,1.7863,0.0,0.0,0.0,0.0,0.0,0.0,0.0,0.0,1.6547,0.0,0.0,0.0,0.0,1.5775,0.0,0.0,0.0,0.0,1.5016,1.5091,1.5302,1.5637,1.5894,1.6175,1.6483,1.4944,1.3972,1.3652,1.1003,0.9694,0.9634,0.8981,0.9136,0.9887,1.0438,1.109,1.1836,1.2516,1.3462,1.4554,1.5124,1.5927,0.0,0.0,0.0,0.0,0.0,0.0,0.0,0.0,1.8068,1.8375,1.7822,1.7723,1.7721,1.7289,1.6977,1.6696,1.6243,1.5994,1.5781,0.0,0.0,0.0,0.0,0.0,0.0,0.0,0.0,0.0,0.0,0.0,0.0,0.0,1.3647,1.3178,1.2541,1.255,1.253,1.2242,1.2395,1.2431,1.2224,1.2332,1.2274,1.1977,1.2224,1.2323,1.2274,1.2627,1.2958,1.317,1.3314,1.3467,1.3668,1.3563,1.3372,1.2997,1.2968,1.2618,1.2026,1.2026,1.3658,1.6468,1.5867,1.709,1.9488,1.8771,1.7959,1.7171,1.7451,1.8017,1.8512,1.7993,1.7555,1.7346,0.0,0.0,0.0,0.0,0.0,0.0,0.0,0.0,1.6976,1.771,1.7445,0.0,0.0,0.0,0.0,0.0,0.0,0.0,1.6282,1.6163,1.6067,1.5996,1.6191,1.6071,1.5618,1.5089,1.4886,1.5076,1.2414,1.1077,1.0991,1.0079,1.0092,1.0905,1.0701,1.0934,1.1553,1.1957,1.2672,1.3578,1.4446,1.5416,1.6396,0.0,0.0,0.0,0.0,0.0,0.0,0.0,1.8706,1.9125,1.8288,1.8416,1.8714,1.7796,1.7455,1.7313,1.6917,1.6659,0.0,0.0,0.0,0.0,0.0,0.0,0.0,0.0,0.0,0.0,0.0,0.0,0.0,1.3784,1.3563,1.3172,1.248,1.2703,1.2667,1.2099,1.232,1.248,1.2529,1.2627,1.2529,1.2126,1.2382,1.2431,1.2323,1.2578,1.2861,1.317,1.3314,1.3515,1.3763,1.3515,1.3266,1.3016,1.2997,1.2764,1.2274,1.2274,1.3305,1.5019,1.529,1.6434,1.8098,1.8014,1.7673,1.7171,1.6815,1.6654,1.6473,1.549,1.5135,1.5414,0.0,0.0,0.0,0.0,0.0,0.0,0.0,0.0,1.7951,1.8142,1.7749,0.0,0.0,0.0,0.0,0.0,0.0,0.0,1.6544,1.6409,1.6274,1.6219,1.6203,1.6355,1.666,1.6038,1.5054,1.369,1.3035,1.2542,1.2253,1.1741,1.1556,1.1605,1.1809,1.2082,1.2413,1.2433,1.3175,1.4391,1.4774,1.5695,1.686,0.0,0.0,0.0,0.0,0.0,0.0,0.0,0.0,0.0,1.9146,1.8941,1.8627,1.8743,1.8314,1.7726,1.7272,0.0,0.0,0.0,0.0,0.0,0.0,0.0,0.0,0.0,0.0,0.0,1.3344,0.0,0.0,1.364,1.3408,1.315,1.3111,1.3082,1.2987,1.2801,1.2803,1.2832,1.2929,1.2978,1.292,1.2764,1.2871,1.2881,1.2813,1.2822,1.292,1.3113,1.3228,1.3314,1.3362,1.3409,1.3276,1.2997,1.3007,1.2813,1.2431,1.2627,1.405,1.6377,1.6094,1.7365,1.953,1.804,1.7235,1.6858,1.6283,1.646,1.6984,1.6515,1.5988,1.5755,0.0,0.0,0.0,0.0,0.0,0.0,1.8465,1.8426,1.8428,1.8531,1.8111,1.781,0.0,0.0,0.0,0.0,0.0,0.0,0.0,1.6596,1.6382,1.6219,1.6191,1.6207,1.6265,1.5783,1.5065,1.4096,1.3838,1.3588,1.3301,1.296,1.2637,1.2401,1.2473,1.2627,1.2814,1.2562,1.3129,1.4181,1.4284,1.5224,1.6548,0.0,0.0,0.0,0.0,0.0,0.0,0.0,0.0,0.0,1.9298,0.0,1.9149,1.9423,1.8878,1.8194,1.8184,0.0,0.0,0.0,0.0,0.0,0.0,0.0,0.0,0.0,0.0,1.342,1.3619,1.3471,0.0,1.3642,1.3608,1.3407,1.3097,1.3263,1.3246,1.2942,1.2928,1.2978,1.3027,1.3065,1.3104,1.3017,1.3162,1.32,1.3142,1.3152,1.321,1.3306,1.3382,1.342,1.342,1.3362,1.3276,1.3142,1.3094,1.2997,1.2803,1.2861,1.4138,1.6244,1.6293,1.7114,1.8297,1.7047,1.6188,1.5616,1.5109,1.5134,1.5412,1.5232,1.501,1.5121,0.0,0.0,1.8375,1.8187,0.0,0.0,1.827,1.8328,1.8469,1.8789,1.8399,1.8156,0.0,0.0,0.0,1.724,1.7191,1.7174,1.7108,1.6701,1.6382,1.6123,1.6067,1.5738,1.5118,1.4904,1.5135,1.5728,1.4775,1.4265,1.423,1.3795,1.3446,1.3216,1.2908,1.2803,1.2861,1.2449,1.2705,1.3391,1.3356,1.4321,1.5758,1.5684,0.0,0.0,0.0,0.0,0.0,0.0,0.0,0.0,1.9111,1.938,1.9934,1.9834,1.9225,1.867,1.9269,0.0,0.0,0.0,0.0,0.0,0.0,0.0,0.0,0.0,0.0,1.4246,1.4141,1.4099,1.3986,1.3801,1.3918,1.3747,1.2947,1.3376,1.3523,1.2807,1.2979,1.3075,1.2978,1.3142,1.3228,1.3172,1.3344,1.3467,1.3515,1.3563,1.3658,1.3658,1.3763,1.3858,1.3858,1.3457,1.3362,1.3467,1.3314,1.3266,1.3266,1.3142,1.3793,1.5133,1.6022,1.5999,1.5342,1.5358,1.4718,1.3736,1.3507,1.3146,1.277,1.2615,1.3023,1.3914,0.0,0.0,1.7849,1.7822,0.0,0.0,1.8053,1.8078,1.8132,1.8258,1.8225,1.8095,1.7854,1.7625,0.0,1.7434,1.7232,1.7092,1.7034,1.6649,1.6344,1.6194,1.5784,1.5669,1.5931,1.5852,1.6123,1.6793,1.5571,1.511,1.5338,1.4523,1.3914,1.3514,1.3378,1.3173,1.2906,1.292,1.3091,1.3409,1.3668,1.4429,1.5454,1.5902,1.6396,0.0,0.0,0.0,0.0,0.0,0.0,0.0,1.9722,1.9668,1.9466,1.9975,1.9525,1.8895,0.0,1.8749,0.0,0.0,0.0,0.0,0.0,0.0,0.0,0.0,1.4916,1.4681,1.4468,1.4051,1.3905,1.4354,1.408,1.3941,1.4362,1.415,1.3836,1.3601,1.3521,1.343,1.3334,1.3525,1.3716,1.3784,1.3831,1.3962,1.4186,1.4035,1.3978,1.4082,1.4082,1.4129,1.4129,1.4035,1.3941,1.3868,1.3716,1.3716,1.3821,1.3678,1.4058,1.4889,1.5519,1.5104,1.4014,1.4164,1.3611,1.262,1.2303,1.2309,1.2521,1.284,1.3073,1.3564,0.0,0.0,0.0,0.0,0.0,0.0,0.0,0.0,1.7783,1.798,1.7949,1.7878,1.7816,1.7439,0.0,0.0,1.7025,1.6857,1.6866,1.6528,1.6246,1.6026,1.5936,1.6003,1.6337,1.6579,1.6992,1.751,1.6531,1.5909,1.5547,1.461,1.398,1.3695,1.3425,1.3254,1.3195,1.3006,1.3122,1.3406,1.3506,1.4126,1.5005,1.5282,1.5795,1.6443,1.6811,0.0,0.0,0.0,0.0,0.0,0.0,0.0,1.9179,2.0046,1.9767,1.9248,0.0,0.0,0.0,0.0,0.0,0.0,0.0,0.0,0.0,1.684,1.6022,1.5315,1.5107,1.4665,1.4438,1.4774,1.46,1.457,1.4995,1.4846,1.4558,1.4186,1.4118,1.4025,1.3789,1.3952,1.414,1.4233,1.4244,1.4384,1.464,1.4455,1.4362,1.4419,1.4419,1.4373,1.4373,1.4326,1.428,1.4302,1.4104,1.4046,1.4197,1.3811,1.3926,1.4423,1.4297,1.396,1.3506,1.3493,1.3004,1.2261,1.2385,1.2357,1.2362,1.289,1.334,1.3912,0.0,0.0,0.0,0.0,0.0,0.0,0.0,0.0,0.0,1.7618,1.7549,1.7526,1.7687,1.7199,1.6901,0.0,0.0,0.0,1.667,1.6394,1.608,1.5741,1.6157,1.6476,1.6623,1.7269,1.7797,1.8245,1.7545,1.6716,1.5744,1.4823,1.4253,1.3999,1.3543,1.3424,1.348,1.3104,1.3132,1.3391,1.3346,1.3774,1.4499,1.4499,1.5106,1.5966,1.6062,1.6309,1.6706,1.7325,0.0,0.0,0.0,0.0,1.8986,1.9918,1.9835,1.9555,0.0,0.0,0.0,0.0,0.0,0.0,0.0,0.0,0.0,1.8348,1.7209,1.6165,1.5958,1.5534,1.5278,1.5405,1.5385,1.5402,1.5529,1.5598,1.5445,1.4858,1.4846,1.4801,1.449,1.4547,1.464,1.4686,1.4743,1.488,1.504,1.4926,1.4891,1.4891,1.48,1.4765,1.4765,1.4651,1.4616,1.4719,1.4466,1.4373,1.4455,1.3947,1.3806,1.3926,1.315,1.2995,1.3286,1.312,1.2743,1.2294,1.2778,1.265,1.2265,1.2907,1.3602,1.4287,0.0,0.0,0.0,0.0,0.0,0.0,0.0,0.0,0.0,0.0,1.6876,1.6977,1.6876,1.6738,1.6686,1.6841,1.6528,1.6394,1.6528,0.0,0.0,1.5477,1.6141,1.6681,1.7103,1.793,1.8647,1.9207,1.8368,1.772,0.0,1.6357,1.5548,1.4889,1.4493,1.4046,1.3581,1.3514,1.3475,1.3411,1.3624,1.386,1.4092,1.4314,1.4696,1.5133,1.5477,1.5739,1.6004,1.6564,1.7117,0.0,0.0,0.0,1.886,1.9246,1.9464,1.9626,0.0,0.0,0.0,0.0,0.0,0.0,0.0,0.0,1.9107,0.0,1.8139,1.7365,1.6979,1.6479,1.6266,1.6677,1.6313,1.619,1.6829,1.6617,1.6256,1.594,1.5832,1.5712,1.5454,1.5511,1.5579,1.5457,1.5579,1.5623,1.5703,1.5614,1.5582,1.5582,1.5435,1.5379,1.5379,1.5379,1.5289,1.5222,1.5062,1.488,1.4651,1.471,1.4384,1.3784,1.3139,1.2931,1.2942,1.2858,1.2647,1.2373,1.2478,1.2373,1.2288,1.3031,1.3487,1.3873,0.0,0.0,0.0,0.0,0.0,0.0,0.0,0.0,0.0,0.0,0.0,1.6316,1.6565,1.6282,1.613,1.6282,1.6077,1.5938,1.5978,1.5797,1.5639,1.5522,1.6248,1.6964,1.7599,1.844,1.9101,1.956,1.9104,0.0,0.0,1.7899,1.6849,1.5421,1.4777,1.4349,1.4068,1.371,1.3514,1.356,1.3782,1.3947,1.4032,1.4273,1.4543,1.4839,1.5041,1.5315,1.571,1.6145,1.647,1.6735,1.7198,0.0,0.0,0.0,1.866,0.0,1.9754,0.0,0.0,0.0,0.0,0.0,0.0,0.0,2.1054,2.0926,2.0507,1.9811,1.8625,1.8349,1.827,1.8141,1.7787,1.7605,1.774,1.7636,1.7409,1.6995,1.6967,1.6841,1.6416,1.6386,1.6535,1.698,1.686,1.6828,1.6898,1.6764,1.6451,1.5981,1.5792,1.5691,1.578,1.5659,1.5525,1.539,1.53,1.5119,1.4926,1.5017,1.479,1.4384,1.4116,1.3939,1.3839,1.375,1.3366,1.2933,1.3097,1.2944,1.2679,1.3236,1.3655,1.3928,0.0,0.0,0.0,0.0,0.0,0.0,0.0,0.0,0.0,0.0,0.0,0.0,1.6292,0.0,0.0,0.0,1.5683,1.5522,1.5654,1.5593,1.5607,1.5667,1.6367,1.712,1.7876,1.8803,1.9477,1.9889,0.0,0.0,1.9295,1.9147,1.8181,0.0,1.5461,1.4835,0.0,0.0,0.0,1.3924,1.3954,1.4,1.398,1.4144,1.4351,1.4588,1.4651,1.4949,1.5389,1.5868,1.6098,1.6198,1.6517,1.6514,0.0,0.0,0.0,0.0,0.0,0.0,0.0,0.0,0.0,0.0,0.0,0.0,2.2592,0.0,2.2502,2.21,2.0717,2.0156,1.9767,1.9389,1.889,1.8573,1.8523,1.8506,1.8423,1.8129,1.8118,1.7933,1.7531,1.7485,1.7692,1.8269,1.8166,1.8067,1.8061,1.7683,1.7194,1.6585,1.6174,1.6044,1.6219,1.6057,1.5881,1.5691,1.557,1.5435,1.5289,1.5244,1.5198,1.5051,1.4891,1.4765,1.4627,1.4477,1.4028,1.3475,1.3731,1.346,1.3078,1.3315,1.3549,1.3725,0.0,0.0,0.0,0.0,0.0,0.0,0.0,0.0,0.0,0.0,0.0,0.0,1.5891,1.5509,1.55,1.6128,1.5601,1.536,1.5768,1.5797,1.5797,1.5876,1.6342,0.0,1.7878,1.8949,1.9808,2.046,0.0,0.0,1.9864,1.9773,1.9513,1.9016,1.7098,1.5768,1.5004,0.0,0.0,0.0,0.0,1.3947,0.0,0.0,1.4111,0.0,0.0,1.4556,1.4949,1.5666,1.6192,1.655,1.6433,1.6619,1.6777,0.0,0.0,0.0,0.0,0.0,0.0,0.0,0.0,0.0,0.0,0.0,0.0,2.2707,2.3231,2.3638,2.3417,2.1465,1.9952,2.0108,1.9117,1.8573,1.9233,1.9085,1.9042,1.9459,1.917,1.8925,1.8887,1.9112,1.9141,1.8878,1.9195,1.9208,1.8767,1.8138,1.7753,1.7638,1.6885,1.6607,1.6833,1.6735,1.6466,1.6156,1.6156,1.6025,1.5748,1.5715,1.5614,1.5468,1.5051,1.4834,1.4787,1.4523,1.4233,1.3931,1.3858,1.361,1.3338,1.2986,1.2934,1.2972,0.0,0.0,0.0,0.0,0.0,0.0,0.0,0.0,0.0,0.0,0.0,0.0,0.0,1.5775,1.5889,1.6235,1.5896,1.573,1.5915,1.5894,1.5806,1.5707,1.612,1.6857,1.7942,1.8641,1.9547,0.0,0.0,2.0462,2.0292,2.0258,1.989,1.9159,1.7568,1.6618,1.611,1.4845,0.0,0.0,0.0,0.0,0.0,0.0,0.0,0.0,0.0,0.0,1.4856,1.5299,1.5249,1.5017,1.5149,1.4784,1.456,1.5697,0.0,0.0,0.0,0.0,0.0,0.0,0.0,0.0,0.0,2.4423,2.3882,2.4386,2.4667,2.4802,2.4716,2.3573,2.2465,2.19,2.1479,2.1145,2.0856,2.0739,2.0698,2.0639,2.0237,1.9814,1.9419,1.9322,1.9348,1.9551,1.9489,1.9319,1.9019,1.8658,1.8107,1.7398,1.7093,1.6934,1.6964,1.7018,1.6934,1.671,1.6595,1.6436,1.6262,1.612,1.5944,1.5691,1.5635,1.5322,1.4834,1.4662,1.4466,1.4244,1.4093,1.3952,1.3711,1.3113,1.2903,1.275,0.0,0.0,0.0,0.0,0.0,1.3163,1.3198,1.3543,1.3899,1.4125,0.0,0.0,0.0,0.0,1.628,1.6352,1.6277,1.6214,1.6251,1.6177,1.6099,1.6034,1.6308,1.704,1.8229,1.8827,1.9734,0.0,0.0,0.0,0.0,2.0728,2.036,1.9696,1.8596,1.7715,0.0,0.0,0.0,1.4599,0.0,0.0,1.4337,0.0,0.0,0.0,0.0,0.0,0.0,1.5104,1.4864,1.4439,1.4672,1.4197,0.0,0.0,0.0,0.0,0.0,0.0,0.0,0.0,0.0,2.4843,2.5168,0.0,2.4821,2.5404,2.548,2.5413,2.5391,2.4954,2.426,2.3204,2.2795,2.2455,2.206,2.1861,2.1725,2.1591,2.1163,2.0682,2.0074,1.9933,1.9893,2.0069,1.9859,0.0,1.9404,1.9,1.8367,1.7391,1.7475,1.7516,1.7421,1.7516,1.7503,1.7325,1.7173,1.6976,1.685,1.6667,1.6466,1.6262,1.6163,1.5712,1.5096,1.4971,1.4789,1.4558,1.4419,1.4233,1.4003,1.3261,1.2754,1.2282,0.0,0.0,1.3734,1.3484,1.327,1.3179,1.3248,1.3793,1.4315,1.4518,0.0,0.0,0.0,0.0,0.0,1.655,1.6709,1.6832,1.6832,1.6716,1.6703,1.6908,1.6979,1.7583,1.8782,1.9499,2.0367,0.0,0.0,0.0,0.0,0.0,2.1038,2.0862,2.0225,1.9076,1.7602,0.0,1.6114,1.575,0.0,1.5462,1.5194,0.0,0.0,0.0,1.5146,1.4863,0.0,1.5092,0.0,0.0,0.0,0.0,0.0,0.0,0.0,0.0,0.0,0.0,0.0,0.0,0.0,0.0,2.4538,0.0,2.5565,2.5591,2.5549,2.5518,2.5521,2.5441,2.5062,2.3938,2.2823,2.226,2.2789,2.2345,2.2084,2.2331,2.1984,2.1535,2.1007,2.1042,2.0914,2.0451,2.0419,2.0288,1.9899,1.9177,1.8465,1.7733,1.8095,1.8279,1.8242,1.8279,1.8226,1.8028,1.7908,1.772,1.7516,1.7323,1.724,1.7199,1.6582,1.6064,1.5558,1.539,1.5165,1.4903,1.4708,1.4419,1.41,1.3275,1.245,1.1551,0.0,1.4326,1.4506,1.4227,1.4441,1.4599,1.4587,1.4752,1.5004,0.0,0.0,0.0,1.7047,1.7369,1.7573,1.7573,1.7646,1.7663,1.7663,1.7571,1.7499,1.7338,1.7424,1.7961,1.8857,1.9498,2.032,0.0,0.0,2.1573,2.1528,2.1511,2.1419,2.1166,2.1005,2.0288,1.9202,1.8021,0.0,1.6953,1.7071,1.674,0.0,0.0,0.0,0.0,0.0,1.5362,1.4856,0.0,1.4451,1.4223,0.0,0.0,0.0,0.0,0.0,0.0,1.9601,0.0,0.0,0.0,0.0,0.0,2.5157,2.4978,2.4911,2.5488,2.5621,2.5639,2.5632,2.5632,2.5508,2.5204,2.4637,2.4282,2.4385,2.3948,2.3603,2.3544,2.3058,2.2547,2.2099,2.1491,2.0939,0.0,1.996,1.9483,1.9115,1.8787,1.85,1.8372,1.8475,1.863,1.8836,1.8874,1.8898,1.8869,1.8664,1.8525,1.8422,1.8095,1.7855,1.776,1.7338,1.7005,1.668,1.5957,1.548,1.5165,1.5131,1.4575,1.3739,1.2869,1.1938,1.091,1.4214,1.4681,1.501,1.4779,1.5131,1.532,1.5025,1.535,1.5608,0.0,0.0,0.0,1.765,1.7993,1.8214,1.8214,1.8161,1.8147,1.8187,1.8135,1.8048,1.8031,1.8198,1.8636,1.9299,1.9919,2.0575,0.0,2.1617,2.1738,2.1724,2.1768,2.1648,2.1419,2.1464,2.1097,0.0,0.0,0.0,0.0,1.7987,0.0,0.0,1.7866,1.7361,0.0,0.0,0.0,1.5019,1.4653,1.4541,0.0,0.0,0.0,0.0,0.0,0.0,0.0,0.0,0.0,0.0,0.0,0.0,0.0,2.4866,2.4725,2.4648,2.5473,2.5671,2.5705,2.5703,2.5709,2.5694,2.5696,2.5496,2.5311,2.5185,2.4796,2.4403,2.4168,2.3702,2.3191,2.2716,2.2027,2.1619,2.1595,2.0478,1.9522,1.8974,1.8822,1.8745,1.8745,1.886,1.9087,1.9384,1.9435,1.9508,1.9573,1.9413,1.9303,1.9221,1.886,1.8669,1.8563,1.8133,1.7907,1.7814,1.6993,1.6281,1.5691,1.5513,1.4742,1.3685,1.3065,1.195,1.0704,0.0,1.509,1.5442,1.5372,1.5694,1.5798,1.5207,1.5837,1.6297,0.0,1.7126,1.8069,1.8439,1.8478,1.8517,1.8517,1.8411,1.8436,1.8592,1.8461,1.8539,1.8898,1.9147,1.9485,1.9934,2.0514,2.1039,2.1448,2.1721,2.1869,2.1957,2.1957,0.0,2.1634,2.1768,2.1587,2.1199,0.0,0.0,1.8243,1.865,1.8493,0.0,0.0,1.7852,1.703,1.6345,1.5711,1.5121,1.4782,1.5058,0.0,0.0,0.0,0.0,0.0,1.7834,0.0,0.0,0.0,0.0,0.0,2.2281,0.0,2.3975,2.4198,2.4469,2.5258,2.5408,2.5416,2.5401,2.5405,2.5447,2.5546,2.5562,2.5523,2.5424,2.5111,2.4765,2.4441,2.4209,2.384,2.3271,2.2883,2.2856,2.3317,2.1792,2.0404,1.9435,1.9353,1.9249,1.9026,1.9339,1.9617,1.9859,2.001,2.0115,2.0204,2.0054,1.9984,1.9894,1.9624,1.9479,1.9479,1.8954,1.8774,1.8806,1.8249,1.7381,1.6386,1.6108,1.5144,1.3947,1.3894,1.2603,1.0869,1.5436,1.5977,1.6466,1.6895,1.7377,1.7593,1.7261,1.7303,1.7424,1.7503,1.7918,1.824,0.0,1.8425,1.8517,1.8517,1.8711,1.8927,1.9139,1.9072,1.9184,1.9493,1.9566,1.9818,2.0292,2.0747,2.1197,2.1721,2.2061,0.0,0.0,0.0,0.0,0.0,2.184,2.1631,2.1371,0.0,0.0,2.012,1.9737,0.0,1.9322,1.8878,1.812,1.7241,1.6391,1.5627,1.4916,1.4625,1.509,1.5724,0.0,0.0,0.0,1.701,0.0,0.0,0.0,0.0,0.0,0.0,0.0,0.0,2.3114,2.3222,2.335,2.3563,2.361,2.3605,2.361,2.3612,2.3847,2.4547,2.4646,2.4876,2.5483,2.5446,2.5288,2.5053,2.5404,2.5527,2.5264,2.5077,2.4988,2.503,2.3627,2.234,2.1337,2.0973,2.0412,1.9632,1.994,2.0185,2.0258,2.0512,2.0695,2.073,2.0663,2.0613,2.0579,2.0224,2.0035,2.0035,1.9702,1.9449,1.9303,1.936,1.8536,1.7261,1.7955,1.6624,1.4439,1.6193,1.4445,1.1296,1.5421,1.6184,1.6838,1.7185,1.7946,1.8338,1.7862,1.7915,1.7892,1.7644,1.7995,0.0,0.0,0.0,0.0,1.8595,1.8774,1.9003,1.9302,1.9384,1.9588,1.9975,2.01,2.0342,2.0745,2.1055,2.1432,2.1899,0.0,0.0,0.0,0.0,0.0,0.0,0.0,2.1857,0.0,0.0,2.123,2.0974,2.0512,0.0,1.9752,1.9207,1.8384,1.7469,1.6783,1.6014,1.5162,1.4639,1.5074,0.0,1.5682,1.6065,1.6528,0.0,1.6937,1.7569,0.0,0.0,0.0,2.0747,0.0,0.0,0.0,2.254,2.2435,2.2944,2.3079,2.3105,2.3096,2.3101,2.3239,2.3687,2.4116,2.4541,2.4946,2.5299,2.5434,2.5283,2.5435,2.565,2.5885,2.5764,2.567,2.5691,2.5247,2.4248,2.2597,2.1968,2.124,2.0379,2.0361,2.046,2.063,2.0991,2.1198,2.1246,2.1324,2.1293,2.1199,2.0844,2.049,2.0143,2.0221,2.0039,1.9713,2.0094,1.9441,1.8186,1.8256,1.7001,1.5159,1.5779,1.4722,1.3022,1.5352,1.6139,1.6929,1.7296,1.8122,1.8633,1.8172,1.8266,1.8177,1.7574,1.7924,0.0,0.0,0.0,0.0,0.0,0.0,1.8988,1.9339,1.9617,1.994,2.0304,2.0512,2.0778,2.1103,2.134,2.1631,2.2039,2.2298,0.0,0.0,0.0,0.0,0.0,0.0,0.0,0.0,0.0,0.0,2.1277,0.0,2.0496,1.9894,1.9464,1.8608,1.7533,1.6798,1.6255,1.5783,1.5013,1.5336,1.6065,1.5846,1.6017,0.0,0.0,0.0,0.0,0.0,0.0,0.0,0.0,0.0,2.027,0.0,0.0,0.0,2.2266,0.0,0.0,0.0,0.0,0.0,0.0,0.0,0.0,0.0,2.4632,0.0,2.5307,2.5308,2.5495,2.6025,2.6054,2.6098,2.6285,2.6615,2.5924,2.3899,2.3136,2.2297,2.1375,2.1033,2.0968,2.1198,2.1511,2.1675,2.1738,2.1928,2.1911,2.1708,2.1334,2.0872,2.0392,2.0416,2.0321,2.0209,2.0622,2.0178,1.9198,1.8761,1.7631,1.625,1.5809,1.5453,1.5081,1.5995,1.6288,1.6851,1.8032,1.8455,1.8735,1.9075,1.8968,1.8655,0.0,0.0,0.0,0.0,0.0,0.0,0.0,0.0,0.0,1.9538,0.0,2.0111,2.0388,2.0592,2.0843,2.1183,2.145,2.1751,2.2164,2.2453,2.2685,0.0,0.0,0.0,0.0,2.2405,0.0,0.0,0.0,2.1556,0.0,2.1277,2.0909,0.0,1.9854,1.8667,1.7122,1.5403,1.5745,1.692,0.0,1.6377,1.6863,0.0,1.6351,1.5839,1.6095,0.0,0.0,0.0,0.0,0.0,0.0,1.9679,0.0,0.0,0.0,2.0143,2.0308,0.0,0.0,0.0,0.0,0.0,0.0,0.0,0.0,2.3052,2.3237,2.3824,2.5302,2.5986,2.6343,2.6352,2.683,2.73,2.7725,2.7374,2.6759,2.59,2.534,2.4381,2.2964,2.2688,2.2458,2.2313,2.2241,2.2203,2.222,2.2368,2.2313,2.2091,2.134,2.1164,2.1362,2.0082,1.9991,2.0718,2.1026,2.0766,2.0244,2.1299,2.0051,1.79,1.9874,1.8917,1.6662,1.6327,1.6432,1.689,1.8258,1.8495,1.8682,1.9273,1.9064,1.8784,0.0,0.0,0.0,0.0,0.0,0.0,0.0,0.0,1.9026,0.0,0.0,0.0,2.0235,2.0662,2.1071,2.1309,2.1617,2.1957,2.2315,2.2552,2.2764,0.0,0.0,0.0,0.0,2.2596,0.0,2.2298,0.0,2.1811,0.0,0.0,0.0,0.0,2.0243,1.923,1.7784,1.5895,1.5929,1.6775,0.0,1.592,0.0,0.0,0.0,0.0,1.6663,0.0,0.0,0.0,0.0,0.0,0.0,0.0,0.0,1.9407,0.0,1.9684,0.0,0.0,0.0,0.0,0.0,0.0,0.0,2.1172,0.0,0.0,0.0,2.3151,0.0,0.0,0.0,2.6378,2.7031,2.768,2.8294,2.7951,2.7574,2.726,2.6423,2.5532,2.4526,2.3499,2.3026,2.3147,2.2826,2.2669,2.2721,2.2832,2.2807,2.2591,2.2017,2.163,2.1379,2.0482,2.0319,2.0705,2.114,2.0908,2.0459,2.2099,2.1518,1.9816,2.0222,1.9651,1.8676,1.7124,1.6988,1.7193,1.8406,1.8584,1.8702,1.9236,1.9064,1.8822,0.0,0.0,0.0,1.8736,1.8606,0.0,0.0,1.8898,1.9026,0.0,0.0,1.9874,0.0,2.0662,0.0,2.134,2.1691,2.2061,2.2405,2.2605,2.2816,0.0,0.0,0.0,0.0,0.0,2.2659,2.2579,0.0,2.2141,2.1957,2.1764,2.1493,2.1119,2.0295,1.9431,1.8409,1.6555,1.6389,1.6843,1.5862,1.5965,0.0,1.7067,0.0,1.6651,0.0,0.0,0.0,1.7052,0.0,0.0,0.0,0.0,0.0,0.0,0.0,0.0,0.0,0.0,0.0,0.0,0.0,0.0,0.0,0.0,2.102,0.0,2.163,0.0,0.0,0.0,0.0,0.0,2.623,2.6977,2.8175,2.796,2.7896,2.8172,2.7399,2.6657,2.6008,2.454,2.387,2.4085,2.3412,2.3093,2.3141,2.323,2.3133,2.2915,2.2419,2.1977,2.1555,2.0602,2.0379,2.0699,2.0781,2.0703,2.0631,2.2082,2.221,2.1473,2.0534,2.0348,2.0515,1.874,1.8248,0.0,1.8583,1.882,1.8927,1.9074,1.9101,1.895,0.0,0.0,0.0,0.0,0.0,0.0,0.0,0.0,1.9302,1.9376,0.0,1.9833,0.0,0.0,2.0859,0.0,2.1587,2.2003,2.2405,2.2605,0.0,0.0,0.0,0.0,0.0,2.302,2.2944,2.285,2.2677,2.2517,2.2371,2.2153,2.1836,2.1319,0.0,1.9004,1.8484,1.7016,0.0,0.0,1.6937,1.724,0.0,0.0,0.0,0.0,0.0,0.0,0.0,0.0,0.0,0.0,1.8788,0.0,0.0,0.0,0.0,1.9137,0.0,0.0,0.0,0.0,0.0,0.0,0.0,0.0,0.0,0.0,0.0,0.0,0.0,0.0,0.0,0.0,2.3979,2.4911,0.0,2.7134,2.7446,2.862,2.8467,2.804,2.7455,2.6196,2.5446,2.5341,2.4094,2.3477,2.3477,2.3417,2.3265,2.2985,2.224,2.2089,2.2252,2.0082,1.9798,2.081,1.9778,2.0,2.1015,2.1404,2.2071,2.2745,2.1948,2.1844,2.1994,1.8976,1.9257,0.0,0.0,0.0,0.0,1.9398,1.9228,0.0,0.0,1.9124,0.0,0.0,1.9161,1.9199,0.0,0.0,1.9213,1.9339,1.9545,0.0,0.0,0.0,2.0909,0.0,0.0,2.202,2.2542,2.2632,0.0,0.0,0.0,0.0,0.0,0.0,2.3523,0.0,0.0,0.0,0.0,0.0,2.2492,2.1642,0.0,1.9971,1.963,1.8528,1.8311,0.0,1.8006,1.77,1.7636,1.8438,1.793,1.7167,1.7914,1.794,1.776,0.0,0.0,1.8487,1.8675,0.0,0.0,0.0,0.0,0.0,0.0,0.0,0.0,0.0,0.0,0.0,0.0,0.0,0.0,0.0,0.0,0.0,0.0,0.0,0.0,0.0,0.0,0.0,0.0,2.6495,0.0,2.8336,2.8511,2.8533,2.8368,2.7259,2.6702,2.6783,2.5348,2.4635,2.4617,2.4024,2.366,2.3504,2.3006,2.2849,2.289,2.0846,2.047,2.1199,1.9998,1.9786,2.0364,2.1371,2.1416,2.102,2.1701,2.1876,2.1572,1.9424,1.9962,0.0,0.0,0.0,0.0,0.0,0.0,0.0,0.0,1.976,0.0,1.9901,0.0,2.0266,0.0,1.987,1.97,1.9775,1.9752,0.0,1.9889,2.0308,0.0,0.0,0.0,0.0,0.0,0.0,2.3128,0.0,0.0,0.0,0.0,0.0,2.4195,2.4664,2.4882,2.4943,0.0,0.0,2.2751,0.0,0.0,2.0751,2.0191,0.0,1.8931,1.839,1.8175,1.7784,1.7559,1.8582,1.8241,1.7732,1.8973,1.8961,1.8607,1.9017,1.921,0.0,1.9052,1.9155,0.0,1.8645,0.0,1.8977,0.0,0.0,0.0,0.0,0.0,0.0,0.0,0.0,0.0,0.0,1.9757,0.0,0.0,0.0,0.0,0.0,0.0,0.0,0.0,0.0,0.0,0.0,2.8494,2.8785,2.8839,2.7598,2.7053,2.7214,2.5543,2.472,2.4723,2.4006,2.366,2.3611,2.3336,2.3193,2.3087,2.1313,2.0789,2.1053,1.9687,1.9447,2.0061,2.0618,2.0779,2.0803,2.163,2.1676,2.1199,2.0065,2.0323,0.0,0.0,2.0161,0.0,0.0,0.0,2.0005,0.0,2.0691,2.1337,2.1075,2.1782,2.2164,2.194,2.1196,2.0745,2.0715,2.0115,0.0,0.0,2.0289,2.1096,2.2459,0.0,0.0,0.0,0.0,0.0,0.0,0.0,0.0,0.0,2.4514,0.0,2.5036,2.5757,2.5517,2.4568,2.3405,2.2833,2.2579,2.2169,2.1321,2.0261,1.997,1.8975,1.778,1.778,1.772,1.7716,1.8033,1.8205,1.8513,1.9731,1.9743,1.9532,2.0508,2.074,2.0521,1.9903,2.0232,0.0,0.0,0.0,1.9497,0.0,0.0,0.0,0.0,0.0,0.0,0.0,0.0,0.0,0.0,0.0,0.0,0.0,0.0,0.0,0.0,0.0,0.0,0.0,0.0,0.0,0.0,2.832,2.873,2.8777,2.7295,2.6591,2.6749,2.4853,2.3928,2.3985,2.3539,2.3313,2.3313,2.3241,2.3109,2.2905,2.1452,2.0723,2.043,1.8874,1.8982,2.0023,1.9256,2.0264,2.2061,2.1713,2.1327,2.0921,2.02,2.0475,2.0939,0.0,2.0481,1.9413,0.0,0.0,0.0,0.0,2.1667,2.2216,2.1993,2.226,2.2384,2.2148,2.185,0.0,0.0,0.0,0.0,2.0096,2.0679,2.1504,2.2539,2.3056,2.3488,2.3853,0.0,0.0,2.336,0.0,0.0,0.0,0.0,0.0,2.6055,2.6812,2.6549,2.5602,2.5134,2.4171,2.2927,0.0,2.2317,2.1815,2.114,2.0729,2.0481,2.0376,2.0081,1.9772,2.0014,1.969,1.9356,1.9984,1.9966,1.9823,2.0237,2.0394,2.0407,2.0361,2.0578,2.0701,0.0,0.0,0.0,0.0,0.0,0.0,0.0,0.0,0.0,0.0,0.0,0.0,0.0,0.0,0.0,1.9271,0.0,0.0,0.0,0.0,0.0,0.0,0.0,0.0,0.0,0.0,2.7348,2.7285,2.6857,2.6927,2.7515,2.5837,2.516,2.5438,2.4226,2.3553,2.336,2.336,2.3023,2.2424,2.1462,2.0636,1.9938,1.8909,1.8612,1.8879,1.9694,2.0301,2.0756,2.1053,2.0992,2.0716,2.0498,2.0876,0.0,2.2546,0.0,0.0,2.0613,2.1363,0.0,2.1568,2.2654,0.0,2.3105,2.35,2.3667,2.3351,2.3003,0.0,2.1763,0.0,0.0,2.0388,2.0794,2.1521,2.2619,2.2995,0.0,2.3853,0.0,0.0,2.3448,0.0,0.0,0.0,0.0,2.6048,2.6523,2.7309,2.705,2.608,2.5596,2.4521,0.0,2.3045,2.2876,2.2651,2.2141,2.1711,2.1358,2.1288,2.082,2.0356,2.0788,2.0398,1.9974,2.096,2.0901,2.062,2.1113,2.1309,2.1349,2.1108,2.1447,2.1696,2.1118,2.0888,2.0686,0.0,1.9541,1.8994,0.0,0.0,0.0,0.0,0.0,0.0,0.0,0.0,0.0,0.0,1.9338,0.0,0.0,0.0,0.0,0.0,0.0,0.0,0.0,0.0,2.676,2.6659,2.6305,2.6261,2.6658,2.533,2.478,2.4995,2.4073,2.3571,2.343,2.3051,2.2647,2.2192,2.1064,2.0256,1.9679,1.8878,1.8656,1.8969,2.0385,2.0534,2.0062,2.0649,2.0441,1.9837,2.1216,2.1621,0.0,0.0,0.0,0.0,0.0,2.2476,0.0,2.2216,0.0,2.4555,2.4297,2.4948,2.5201,2.4902,0.0,2.3626,2.2729,2.2133,2.1494,2.0775,2.086,2.1488,2.2699,2.2857,2.3207,0.0,0.0,0.0,0.0,0.0,0.0,0.0,0.0,0.0,0.0,2.7555,2.7303,2.6435,2.5564,2.4568,2.3595,2.3478,2.3287,2.3052,2.2952,2.2263,2.1428,2.1392,2.0925,2.0458,2.11,2.0846,2.0594,2.2141,2.2002,2.1547,2.2304,2.2643,2.2617,2.1908,2.2503,2.2935,2.1643,2.1803,2.1976,2.1118,2.0365,1.9811,0.0,0.0,0.0,0.0,0.0,0.0,0.0,0.0,0.0,0.0,0.0,0.0,0.0,0.0,0.0,0.0,0.0,0.0,0.0,0.0,2.6386,2.6282,2.5544,2.5152,2.5178,2.4187,2.3754,2.3799,2.3445,2.3287,2.3298,2.2451,2.2007,2.1829,2.0494,1.9775,1.9497,1.8825,1.8921,1.966,2.09,2.07,1.9803,2.0385,1.9814,1.8771,2.3174,0.0,0.0,0.0,0.0,2.3783,2.3871,2.3487,2.3099,2.3007,2.4446,2.5431,2.5336,2.5524,2.553,2.5301,2.5189,0.0,0.0,0.0,0.0,2.1006,2.137,2.1991,2.2841,2.3325,2.3602,0.0,0.0,0.0,0.0,0.0,0.0,0.0,0.0,0.0,2.8629,2.8098,0.0,2.7537,2.6661,2.5688,2.4707,2.4617,2.4131,2.3481,2.3481,2.3087,2.2583,2.2479,2.234,2.2228,2.2312,2.217,2.2038,2.2347,2.213,2.1831,2.2062,2.233,2.2565,2.2513,2.3034,2.3491,2.3275,2.2787,2.2114,2.1327,2.0957,2.0377,1.9103,0.0,0.0,0.0,0.0,0.0,0.0,0.0,0.0,0.0,0.0,1.9087,0.0,0.0,0.0,0.0,0.0,0.0,0.0,0.0,2.4927,0.0,2.4466,0.0,0.0,0.0,2.3988,2.4415,2.3119,2.2473,2.2389,2.1633,2.0924,2.0285,2.0075,1.9535,1.878,1.8749,1.914,1.979,2.0076,2.0063,1.9888,1.9994,1.9452,1.8603,0.0,0.0,0.0,0.0,0.0,0.0,0.0,2.4419,2.4225,2.4207,2.5209,2.5954,2.5957,2.5994,2.5957,2.5795,2.5775,2.517,2.3716,2.3635,2.3014,2.1587,2.1735,2.2036,2.2368,2.2726,2.2971,2.3027,0.0,0.0,0.0,0.0,0.0,0.0,0.0,2.7963,0.0,0.0,0.0,2.7962,2.7511,2.6744,2.5771,2.5245,2.4777,2.431,2.3865,2.3567,2.3319,2.3052,2.2902,2.2842,2.2685,2.2605,2.2542,2.246,2.2332,2.2203,2.2158,2.2439,2.2772,2.2797,2.3248,2.3725,2.3728,2.344,2.3022,2.262,2.1801,2.0664,1.9037,1.8843,0.0,0.0,0.0,0.0,0.0,0.0,1.9227,0.0,0.0,0.0,0.0,0.0,0.0,0.0,0.0,2.2129,2.2406,0.0,2.456,0.0,0.0,0.0,2.4879,0.0,2.3576,2.3463,2.2638,2.2046,2.1676,2.0873,2.0321,1.993,1.9576,1.9146,1.8715,1.8769,1.9002,1.9379,1.9865,1.9849,1.9579,1.9938,1.9736,1.9224,0.0,2.4759,0.0,0.0,2.5261,2.4663,2.4978,2.5196,2.528,2.5129,2.5793,2.631,2.6382,2.6365,2.6349,2.6245,2.6314,2.5814,2.456,2.4293,2.3706,2.2635,2.2224,2.2111,2.2262,2.2276,2.2349,0.0,0.0,0.0,0.0,0.0,0.0,0.0,0.0,0.0,0.0,0.0,2.8849,2.8363,2.8155,2.7592,2.6809,2.5897,2.539,2.5072,2.4203,2.3868,2.3765,2.3435,2.3199,2.3045,2.2868,2.279,2.2738,2.2632,2.2596,2.2525,2.2426,2.2721,2.3045,2.2996,2.3414,2.3837,2.3876,2.3858,2.3801,2.3632,2.2251,2.0676,1.9344,1.9004,0.0,0.0,0.0,0.0,0.0,0.0,0.0,0.0,0.0,0.0,1.8931,0.0,0.0,0.0,0.0,2.2191,2.2719,2.3783,2.4468,0.0,0.0,2.4219,2.4485,0.0,2.3262,2.2339,2.2078,2.1601,2.0916,2.0091,1.9734,1.9716,1.9092,1.8824,1.8788,1.8824,1.8896,1.9054,1.9721,1.9664,1.9241,1.9739,1.983,1.9658,0.0,0.0,0.0,0.0,0.0,2.64,2.5561,2.5622,2.5607,2.5247,2.6,2.6572,2.6572,2.6607,2.6691,2.6741,2.6741,2.6452,2.5797,2.5094,2.468,2.456,2.3254,2.2826,2.3426,2.285,2.2569,0.0,0.0,2.3077,0.0,0.0,0.0,0.0,0.0,0.0,0.0,2.867,2.8745,2.9225,2.8538,2.8146,2.7863,2.6986,2.6168,2.5352,2.4483,2.4054,2.3876,2.371,2.3531,2.3313,2.3144,2.302,2.297,2.297,2.2816,2.2685,2.2738,2.295,2.3189,2.3236,2.361,2.4016,2.4133,2.4074,2.3777,2.3123,2.1589,2.0318,2.0102,1.9539,1.9166,0.0,0.0,0.0,0.0,0.0,1.9405,1.913,0.0,0.0,1.866,1.8697,0.0,0.0,2.0711,2.1849,2.1906,2.3453,2.4171,2.3822,2.4468,2.4369,2.3443,2.4129,2.3697,2.2117,2.1454,2.0756,2.0073,1.9215,1.8858,1.8895,1.8714,1.8698,1.8789,1.886,1.9034,1.9251,1.9292,1.9223,1.9099,1.9037,1.9003,1.9058,0.0,0.0,0.0,0.0,0.0,0.0,0.0,2.6733,2.6782,2.6607,2.6343,2.6226,2.6275,2.6732,2.7053,2.7166,2.7166,2.6919,2.6298,2.6022,2.5697,2.5234,2.4679,2.4443,2.4622,2.3873,2.3744,0.0,0.0,0.0,0.0,0.0,0.0,0.0,0.0,2.9137,2.9512,2.9288,2.9344,2.9551,2.9214,2.9064,2.8952,2.7997,2.7418,2.6934,2.5541,2.4966,2.4777,2.4142,2.3725,2.3448,2.3265,2.3193,2.3168,2.3077,2.3045,2.3035,2.3248,2.3446,2.3668,2.3912,2.4118,2.4319,2.4426,2.4339,2.4155,2.386,2.2409,2.102,2.0424,1.9776,1.9353,1.939,0.0,0.0,0.0,0.0,0.0,1.935,0.0,1.9097,0.0,1.8992,0.0,0.0,0.0,2.1534,2.1624,2.329,2.4316,2.4476,0.0,2.431,2.4064,2.3958,2.3035,2.1383,2.1005,2.0195,1.9021,1.876,1.8639,1.8642,1.8861,1.8895,1.8807,1.8999,1.9168,1.9301,1.9314,1.9214,1.9099,1.9081,1.9271,1.9542,2.6667,0.0,2.7701,0.0,2.7659,2.7572,2.726,2.7267,2.7256,2.7029,2.6533,2.6294,2.6511,2.7026,2.743,2.7539,2.7587,2.7449,2.7049,2.6869,2.664,2.6366,2.5949,0.0,2.5808,2.5033,2.491,2.5438,2.4555,0.0,0.0,0.0,0.0,0.0,2.9551,2.9645,2.9701,2.9808,2.9806,2.9699,2.9682,2.9683,2.9626,2.8652,2.8278,2.8054,2.6581,2.5968,2.5725,2.4835,2.4301,2.3965,2.3547,2.3407,2.336,2.3265,2.3265,2.3342,2.3592,2.3785,2.4004,2.4316,2.442,2.4489,2.4575,2.4513,2.4337,2.4113,2.308,2.1941,2.1062,2.0548,2.0266,2.0222,0.0,0.0,0.0,2.0263,0.0,2.0174,1.9644,1.9346,1.9507,1.9268,0.0,0.0,0.0,2.129,2.1571,2.3216,2.4293,0.0,0.0,0.0,2.4284,2.3743,2.2579,2.0824,2.0512,1.9685,1.8443,1.8617,1.8639,1.8623,1.8983,1.9051,1.8947,1.918,1.9326,1.9375,1.9431,1.9338,1.9164,1.9193,1.9444,1.9723,2.7713,2.7954,2.802,2.7829,2.8128,2.8013,2.6869,2.6827,2.6668,2.5938,2.6428,2.7065,2.7512,2.7701,2.7864,2.7968,2.8071,2.8136,2.8255,2.7607,2.7525,0.0,0.0,2.6441,2.6977,2.633,2.5886,2.5709,0.0,0.0,2.6326,0.0,2.8632,2.9608,2.9661,2.9769,2.9912,2.9975,2.9872,2.9717,2.9771,2.9808,2.9713,2.883,2.846,2.8277,2.7399,2.6954,2.6654,2.5782,2.5446,2.5179,2.4042,2.3652,2.3603,2.3585,2.3539,2.3544,2.3732,2.3896,2.4056,2.4247,2.4356,2.4442,2.4564,2.4495,2.4184,2.3452,2.3233,2.297,2.2223,2.2069,2.2102,2.2154,0.0,0.0,0.0,2.1498,0.0,2.1703,2.0246,1.9664,2.0856,1.9424,0.0,0.0,0.0,0.0,0.0,0.0,0.0,2.4014,2.457,0.0,2.3522,2.3571,2.2589,2.0598,1.9913,1.9222,1.8505,1.8769,1.886,1.8806,1.8949,1.9084,1.9209,1.9415,1.9509,1.9499,1.9572,1.9476,1.9289,1.9225,1.9193,1.9196,2.7864,2.7979,2.8035,2.7996,2.8109,2.8075,2.7705,2.7735,2.7718,2.7531,2.771,2.7933,2.8128,2.8146,2.8146,0.0,2.8327,2.8414,0.0,2.8384,2.8439,2.8725,2.8294,2.813,2.8294,2.7489,2.732,2.7815,0.0,0.0,0.0,2.889,2.9593,2.994,3.006,3.0104,3.0104,3.0138,3.0109,3.0034,2.9956,2.9943,2.9905,2.9574,2.9429,2.9317,2.8437,2.8116,2.7872,2.6349,2.5828,2.5718,2.5208,2.4494,2.381,2.375,2.3728,2.3795,2.4155,2.4351,2.4482,2.4762,2.4855,2.4879,2.4884,2.4794,2.4674,2.4444,2.3931,2.3455,2.3177,2.2669,2.2292,2.2276,2.2294,0.0,2.2271,0.0,2.157,2.1118,2.0974,2.0587,1.9777,1.9861,0.0,0.0,0.0,0.0,0.0,0.0,0.0,0.0,2.4468,0.0,2.2893,2.2955,2.2024,2.0111,1.9916,1.9403,1.8641,1.8771,1.8753,1.8619,1.9036,1.9086,1.8948,1.924,1.9398,1.9431,1.9564,1.9518,1.938,1.9446,1.9703,2.0018,2.7836,2.7979,2.8063,2.8136,2.8191,2.8219,2.8154,2.8182,2.8237,2.8353,2.838,2.8298,2.807,2.8084,0.0,2.8422,2.8569,2.8694,2.8791,2.8858,2.8947,2.9044,2.9044,2.9044,2.9007,2.8489,0.0,2.892,2.8133,2.8222,2.9117,2.9744,3.0083,3.019,3.0299,3.0318,3.0286,3.0279,3.0254,3.0188,3.0104,3.0079,3.0068,3.0007,2.9994,2.9902,2.9323,2.9181,2.8947,2.7145,2.6552,2.6456,2.5625,2.4864,2.4301,2.4406,2.4278,2.4174,2.4439,2.4582,2.4714,2.4987,2.505,2.5044,2.5006,2.4966,2.494,2.4953,2.4562,2.4208,2.4157,2.3721,2.3354,2.3332,2.3285,2.3258,2.3205,0.0,2.2476,0.0,0.0,0.0,0.0,2.0918,2.0939,0.0,0.0,0.0,0.0,0.0,0.0,2.4321,2.441,2.408,2.3287,2.2722,2.1771,2.046,1.9847,1.9235,1.8698,1.8842,1.8842,1.8734,1.9067,1.9135,1.9,1.9209,1.9353,1.9405,1.9564,1.9527,1.9456,1.9564,1.9948,2.0401,2.7683,2.7926,2.8093,0.0,2.8335,2.8388,2.8209,2.8182,2.8264,2.8484,2.851,2.8272,2.7652,2.7707,2.8027,2.8573,0.0,0.0,2.9089,2.9062,2.9108,2.9323,2.9323,2.9286,2.923,2.923,2.9191,2.9151,2.9418,2.9715,3.0117,3.0117,3.0204,3.0324,3.0386,3.0421,3.0402,3.0411,3.0348,3.0241,3.0209,3.0222,3.0213,3.0152,3.0123,3.0113,3.0049,3.0079,2.9856,2.8097,2.7608,2.7407,2.5646,2.5089,2.5146,2.5372,2.5054,2.461,2.4554,2.4617,2.4771,2.4947,2.5006,2.5019,2.5019,2.5019,2.5032,2.5019,2.5063,2.5106,2.5125,2.505,2.5013,2.5004,2.4964,2.4856,2.4723,2.4001,2.3715,0.0,0.0,0.0,2.3745,2.2405,2.1765,0.0,0.0,0.0,0.0,0.0,2.4321,2.4495,2.4459,2.4408,2.4319,2.2852,2.185,2.1352,1.972,1.8875,1.8753,1.8998,1.9099,1.9099,1.9099,1.9164,1.9274,1.9283,1.9316,1.9405,1.9536,1.955,1.9518,1.9629,2.0003,2.0477,0.0,0.0,2.7672,2.7789,2.7904,2.7989,2.8126,2.8126,2.8209,2.8406,2.8484,2.8471,2.8415,2.8059,2.7857,2.7995,2.8143,2.851,2.9212,2.9243,2.9304,2.951,2.9431,2.9451,2.9569,2.9531,2.957,2.9716,2.9769,2.9969,3.024,3.0312,3.0367,3.0447,3.0469,3.0501,3.0558,3.0492,3.0492,3.0501,3.0462,3.0432,3.0422,3.0362,3.0332,3.034,3.0306,3.034,3.022,2.9013,2.8747,2.8792,2.8195,2.7639,2.6891,2.5337,2.4825,2.4757,2.4723,2.4836,2.4949,2.513,2.5138,2.5171,2.5212,2.5222,2.5233,2.5225,2.5234,2.5252,2.525,2.5187,2.5118,2.5025,2.4991,2.4936,2.4806,2.4554,2.4211,0.0,2.3787,2.3531,2.2627,2.2637,2.2755,0.0,0.0,0.0,2.3971,2.4332,2.4528,2.4564,2.4645,2.4364,2.3652,2.3311,2.242,2.099,1.9885,1.9305,1.923,1.9135,1.9086,1.9086,1.8982,1.8965,1.8999,1.9046,1.9148,1.9266,1.9331,1.9419,1.9559,2.0096,2.0704,2.128,2.7181,2.7324,2.7496,2.763,2.7701,2.7818,2.8025,2.8071,2.8154,2.8406,2.851,2.8467,2.8209,2.7624,2.7255,2.7215,2.769,2.8223,2.8713,2.9101,2.9368,2.955,2.9472,2.9531,2.9701,2.9645,2.9771,2.9984,2.9984,3.0138,3.0379,3.0433,3.0469,3.054,3.0549,3.0574,3.0661,3.0642,3.0649,3.0649,3.0614,3.056,3.0543,3.0507,3.0498,3.049,3.0472,3.0488,3.0393,2.9458,2.8988,2.8696,2.8135,2.7682,2.7159,2.5926,2.5588,2.5531,2.5095,2.5084,2.5194,2.5274,2.5284,2.5303,2.534,2.534,2.534,2.536,2.536,2.5341,2.5302,2.5271,2.5217,2.5101,2.507,2.5018,2.4908,2.4861,2.4643,2.4088,2.4426,2.4332,2.3408,2.3633,2.383,2.3867,2.3867,0.0,2.4508,2.4654,2.4719,2.4695,2.4787,2.4591,2.408,2.3375,2.2311,2.0945,2.0055,1.9569,1.9431,1.9298,1.9219,1.917,1.9052,1.8966,1.8913,1.893,1.9034,1.9119,1.9214,1.9323,1.9479,2.0156,2.0789,2.1396,2.7166,2.7293,2.7452,2.7557,2.763,2.773,2.7968,2.8014,2.8136,2.844,2.8562,2.8408,2.7861,2.7057,2.6606,2.6673,2.7356,2.7869,2.8059,2.8857,2.9368,2.9492,2.9492,2.957,2.9717,2.9735,2.9872,3.0123,3.0123,3.0241,3.0519,3.0519,3.055,3.0613,3.0614,3.0644,3.073,3.0773,3.0773,3.071,3.0728,3.0684,3.0639,3.0639,3.0632,3.0613,3.0579,3.0587,3.0522,2.9758,2.909,2.8413,2.7408,2.7115,2.7096,2.6713,2.6621,2.6468,2.5782,2.5611,2.5586,2.5448,2.5418,2.5418,2.5426,2.5522,2.5564,2.5434,2.55,2.5578,2.5524,2.5398,2.5378,2.5558,2.5321,2.5126,2.5194,0.0,2.4953,2.4837,2.4898,2.4921,2.4845,2.4804,2.4823,2.4845,2.479,2.478,2.4832,2.4879,2.4889,2.4836,2.4889,2.4945,2.494,2.3398,2.2167,2.123,2.0395,1.9838,1.9555,1.946,1.939,1.9344,1.9186,1.9035,1.8895,1.8895,1.8931,1.8984,1.9104,1.9168,1.931,1.9989,2.0496,2.0986,2.7103,2.7215,2.7376,2.7496,2.7509,2.7647,2.794,2.8042,2.8191,2.8466,2.8612,2.8682,2.8699,2.7387,2.6783,2.7478,2.709,2.7156,2.7962,2.8817,2.9368,2.9492,2.9492,2.9589,2.9771,2.9841,3.0,3.0266,3.0209,3.0309,3.0588,3.0586,3.061,3.0683,3.0678,3.0724,3.0798,3.0794,3.0784,3.0769,3.0782,3.0786,3.0763,3.0763,3.0763,3.0763,3.0759,3.0751,3.0739,3.055,3.0443,3.0229,2.9214,2.8865,2.8548,2.7116,2.6683,2.6801,2.7354,2.7033,2.6405,2.5672,2.5531,2.5564,2.5577,2.6094,2.6371,2.5633,2.6037,2.65,2.6486,2.588,2.5813,2.7106,2.6125,2.5397,2.6013,0.0,2.4993,2.4966,2.5038,2.5061,2.5046,2.5141,2.5163,2.5072,2.5038,2.5018,2.4981,2.4974,2.4985,2.4983,2.5031,2.5107,2.5153,2.4159,2.3221,2.2345,2.1353,2.0526,1.9835,1.9596,1.9513,1.9532,1.9292,1.9101,1.8981,1.8931,1.8861,1.8824,1.8861,1.8878,1.8968,1.9702,1.9921,1.9995,2.7103,2.7166,2.7296,2.7421,2.7526,2.7689,2.7864,2.8025,2.8237,2.8406,2.8562,2.8669,2.8767,2.7775,2.7228,2.757,2.735,2.7361,2.7769,2.8753,2.9347,2.9433,2.9472,2.9608,2.9842,2.9907,3.0079,3.0299,3.0311,3.0417,3.0595,3.0645,3.0676,3.0704,3.0736,3.0759,3.0794,3.0802,3.0794,3.0801,3.0807,3.0791,3.0791,3.0836,3.0858,3.0858,3.0841,3.0845,3.0847,3.0819,3.0518,3.0076,2.9572,2.935,2.9164,2.8376,2.7489,2.673,2.6626,2.7077,2.7343,2.6431,2.6605,2.6998,2.6998,2.7252,2.7252,2.6377,2.6463,2.6566,2.6088,2.6043,2.6188,2.6427,2.6175,0.0,2.5734,2.539,2.5164,2.516,2.5224,2.5283,2.5316,2.5379,2.5387,2.531,2.5281,2.5226,2.5179,2.5134,2.5094,2.507,2.5069,2.5141,2.519,2.4415,2.3772,2.3271,2.1899,2.1026,2.0573,1.9988,1.9707,1.9695,1.9471,1.9289,1.9141,1.9049,1.9201,1.947,1.9058,1.9111,1.943,1.9726,1.9685,1.9638,2.7166,2.7261,2.7324,2.7452,2.7647,2.7789,2.7847,2.8081,2.8291,2.8406,2.8562,2.8662,2.8743,2.8057,2.7638,2.7773,2.772,2.7748,2.7861,2.8758,2.9326,2.9373,2.9512,2.9664,2.9893,3.0007,3.0138,3.0316,3.0383,3.0491,3.0626,3.0683,3.0717,3.073,3.0769,3.0808,3.0793,3.0801,3.0794,3.0796,3.0821,3.0823,3.0825,3.0888,3.0909,3.0889,3.0894,3.0895,3.0895,3.0895,3.0421,2.9804,2.9572,2.9445,2.9363,2.9169,2.8301,2.722,2.6359,2.7282,2.8285,2.7362,2.7671,2.8193,2.8196,2.8294,2.8159,2.7276,2.7226,2.7113,2.6459,2.655,2.6629,2.6323,0.0,2.614,2.5599,2.5417,2.5322,2.532,2.5379,2.5459,2.551,2.5515,2.5521,2.5517,2.5486,2.5426,2.5351,2.5274,2.5212,2.5141,2.5145,2.516,2.5233,2.4688,2.4245,2.3927,2.2633,2.1751,2.1251,2.056,2.0115,1.9866,1.9649,1.9462,1.9328,1.9378,1.9667,2.0009,1.9453,1.9505,1.981,1.9573,1.9276,1.9223,2.7465,2.7509,2.76,2.7672,2.7836,2.7996,2.8071,2.8246,2.8406,2.8466,2.8662,2.881,2.8881,2.8104,2.7898,2.864,2.8026,2.7916,2.864,2.9007,2.9243,2.9293,2.9608,2.9806,2.9907,3.0098,3.0253,3.0379,3.0462,3.0557,3.069,3.0704,3.0734,3.0799,3.0793,3.0806,3.0798,3.0807,3.0796,3.0801,3.0866,3.0889,3.0894,3.0894,3.0894,3.0894,3.0895,3.0896,3.0897,3.0897,3.0765,3.0494,2.9748,2.9445,2.9239,2.8424,2.8682,2.9035,2.8218,2.8695,2.9185,2.8325,2.8145,2.8193,2.8196,2.8773,2.9059,2.8184,2.8643,2.9179,2.9117,2.783,2.7265,2.8685,0.0,0.0,2.64,2.5861,2.5385,2.5383,2.5454,2.5526,2.56,2.5598,2.5586,2.5598,2.559,2.557,2.5488,2.5357,2.5293,2.5293,2.5292,2.5292,2.5284,2.5303,2.4898,2.4082,2.3909,2.2987,2.147,2.135,2.0852,2.0058,1.9804,1.958,1.9438,2.0051,2.0192,2.0007,1.9952,1.9836,1.9621,1.8796,1.8409,1.8358,2.7713,2.7806,2.7882,2.794,2.8081,2.8191,2.8219,2.838,2.8536,2.8562,2.8712,2.8834,2.8905,2.8589,2.8529,2.8839,2.8631,2.8617,2.8887,2.9044,2.9243,2.9491,2.9701,2.9874,3.0015,3.0133,3.0299,3.0469,3.052,3.0618,3.0697,3.0736,3.0784,3.0804,3.0802,3.0801,3.0794,3.0841,3.0866,3.085,3.0891,3.0894,3.0895,3.0896,3.0896,3.0897,3.0898,3.0898,3.0898,3.0898,3.0832,3.0713,3.0454,3.0283,3.0036,2.9206,2.9581,3.0073,2.9246,2.9643,3.0083,2.9162,2.9377,2.98,2.9763,2.9998,2.9959,2.9096,2.9179,2.9237,2.8689,2.8054,2.7625,2.7702,0.0,2.6184,2.5948,2.5645,2.5479,2.5517,2.5589,2.5636,2.5661,2.5664,2.5659,2.5654,2.5613,2.5579,2.5505,2.541,2.5387,2.5415,2.5423,2.5406,2.5361,2.5397,2.5232,2.4906,2.4338,2.3732,2.3097,2.2526,2.2058,2.1713,2.1533,2.1356,2.1209,2.1303,2.1478,2.1676,2.1131,2.0682,2.0315,2.0097,1.9443,1.8882,2.7971,2.8063,2.8109,2.8136,2.8273,2.8353,2.8327,2.851,2.8612,2.8612,2.8737,2.8858,2.8905,2.8905,2.8905,2.8905,2.8929,2.8952,2.8952,2.9085,2.9286,2.9588,2.9719,2.9874,3.0064,3.0174,3.0297,3.0462,3.0585,3.0676,3.0737,3.0773,3.0794,3.0793,3.079,3.0807,3.0801,3.0866,3.0891,3.0895,3.0895,3.1052,3.1307,3.1307,3.1464,3.1698,3.1699,3.1699,3.1641,3.1367,3.1247,3.1175,3.0971,3.0838,3.065,3.0099,3.0349,3.0677,3.0094,3.0356,3.0657,2.9995,3.0326,3.0794,3.0734,3.0736,3.0555,2.994,2.9809,2.9661,2.9065,2.8722,2.8346,2.7737,2.7421,2.7039,2.6429,2.6118,2.5965,2.6026,2.5849,2.5707,2.57,2.5699,2.5696,2.5707,2.5639,2.5586,2.5525,2.548,2.5456,2.5507,2.551,2.5468,2.5432,2.5437,2.5418,2.5385,2.4822,2.4405,2.4119,2.351,2.2908,2.2335,2.2471,2.2312,2.1932,2.2204,2.2514,2.2776,2.2134,2.1547,2.1061,2.0903,2.0194,1.9474,2.8219,2.8273,2.83,2.83,2.8414,2.8484,2.8406,2.8587,2.8687,2.8612,2.8785,2.8905,2.8905,2.8905,2.8905,2.8905,2.8905,2.8905,2.8905,2.9152,2.9388,2.9588,2.9719,2.9857,3.0007,3.0202,3.0333,3.0402,3.0599,3.0724,3.0803,3.0803,3.0808,3.0798,3.0798,3.0807,3.0801,3.0866,3.0891,3.0895,3.0916,3.1425,3.2207,3.2207,3.2715,3.3398,3.3398,3.3398,3.3262,3.2402,3.2107,3.1955,3.1146,3.0891,3.0909,3.0894,3.0852,3.0811,3.0874,3.0847,3.0807,3.0806,3.0802,3.0793,3.0794,3.0803,3.0784,3.0703,3.0753,3.0803,3.0803,3.0098,2.9494,2.9508,2.8763,2.8198,2.8198,2.7449,2.6926,2.6983,2.6234,2.5697,2.5702,2.5702,2.57,2.5709,2.5648,2.5609,2.5602,2.5543,2.551,2.5492,2.5493,2.5493,2.5499,2.5499,2.5464,2.5401,2.5471,2.5052,2.4215,2.4215,2.323,2.157,2.2297,2.2053,2.1237,2.2641,2.3081,2.2905,2.2756,2.2395,2.1779,2.0854,2.0305,2.0027,2.8458,2.8458,2.8458,2.851,2.8536,2.8562,2.8536,2.8619,2.8712,2.8737,2.8834,2.8929,2.897,2.8952,2.8952,2.8952,2.8952,2.8952,2.8952,2.9181,2.9351,2.9453,2.9626,2.9839,3.0064,3.0216,3.0359,3.0482,3.0622,3.0704,3.0728,3.0778,3.0808,3.0798,3.0798,3.0833,3.0871,3.0892,3.0896,3.0957,3.1562,3.1973,3.2266,3.2832,3.3183,3.3398,3.3398,3.3398,3.3359,3.3105,3.2615,3.196,3.1097,3.0864,3.0889,3.0835,3.0852,3.087,3.0895,3.085,3.0796,3.0794,3.0798,3.0798,3.0793,3.0804,3.0794,3.0769,3.0794,3.0799,3.0808,3.0087,2.9507,2.9503,2.8766,2.8217,2.8265,2.7521,2.6981,2.7001,2.6225,2.5702,2.5703,2.5702,2.5698,2.5707,2.5644,2.5609,2.5602,2.559,2.557,2.557,2.5562,2.5574,2.5565,2.5511,2.5512,2.5544,2.5518,2.5363,2.5104,2.5054,2.4748,2.4244,2.4368,2.4167,2.3801,2.4107,2.4089,2.3805,2.3709,2.3043,2.2162,2.2549,2.2113,2.142,2.8562,2.8562,2.8562,2.8587,2.8587,2.8587,2.8587,2.8662,2.8718,2.8761,2.8858,2.9057,2.9392,2.9177,2.9122,2.9457,2.9177,2.9017,2.904,2.9181,2.9291,2.9392,2.957,2.977,3.0019,3.0203,3.0348,3.0453,3.0622,3.0704,3.0734,3.0778,3.0804,3.0794,3.0798,3.0813,3.0889,3.1223,3.1363,3.1445,3.2324,3.2871,3.3242,3.373,3.4121,3.4433,3.4433,3.4433,3.4375,3.4023,3.3105,3.1947,3.1103,3.087,3.0892,3.0856,3.0874,3.0894,3.0896,3.0871,3.0845,3.0847,3.0816,3.0798,3.0794,3.079,3.081,3.081,3.0794,3.0798,3.0804,3.0395,3.0049,3.0018,2.9562,2.9247,2.9279,2.8557,2.7895,2.7553,2.6737,2.6074,2.5723,2.5703,2.5698,2.5659,2.5624,2.5593,2.5595,2.5589,2.5601,2.5609,2.562,2.5634,2.5648,2.5605,2.5585,2.5601,2.557,2.5538,2.5506,2.5449,2.5247,2.4906,2.5109,2.4908,2.4441,2.4647,2.4564,2.4266,2.4171,2.3503,2.2668,2.3216,2.2864,2.2216,2.8587,2.8641,2.8696,2.8696,2.8696,2.8714,2.8786,2.8753,2.8712,2.8785,2.887,2.9198,3.0027,2.9525,2.942,3.0136,2.9475,2.904,2.9108,2.9156,2.9265,2.9392,2.9511,2.9682,2.9891,3.0155,3.0371,3.0518,3.0704,3.0885,3.1017,3.1017,3.1028,3.1012,3.1024,3.1019,3.1075,3.188,3.2219,3.2284,3.3163,3.3984,3.4707,3.4785,3.5312,3.5996,3.5995,3.5996,3.5879,3.4999,3.3652,3.2186,3.1288,3.1014,3.0995,3.0917,3.0897,3.0897,3.0896,3.0892,3.0909,3.0894,3.085,3.0801,3.0816,3.0819,3.0801,3.0804,3.0808,3.0811,3.0792,3.0853,3.0874,3.0813,3.0811,3.081,3.0804,3.0105,2.9308,2.8511,2.7577,2.6699,2.5898,2.5742,2.5699,2.5717,2.5654,2.5643,2.5715,2.5632,2.5609,2.5609,2.5675,2.5707,2.5697,2.5697,2.5671,2.5607,2.5599,2.5562,2.5518,2.549,2.502,2.4248,2.4918,2.4675,2.386,2.4525,2.4631,2.4376,2.4228,2.3795,2.3253,2.3183,2.2898,2.2634,2.8587,2.9119,2.9536,2.9536,2.9483,2.97,3.0387,2.9383,2.883,2.9624,2.9193,2.9168,3.0094,3.0092,3.0055,3.0191,2.9475,2.904,2.9108,2.9156,2.9265,2.9392,2.9472,2.9608,2.9825,3.008,3.0605,3.1422,3.1562,3.2018,3.2753,3.2753,3.2752,3.2752,3.2757,3.2779,3.2851,3.3046,3.3115,3.3182,3.4079,3.453,3.4766,3.5468,3.584,3.5993,3.5995,3.5994,3.5877,3.5,3.4453,3.3866,3.2323,3.1835,3.1717,3.1074,3.0898,3.0897,3.0898,3.0898,3.0894,3.0896,3.0896,3.0874,3.0871,3.0871,3.0873,3.0875,3.0875,3.0857,3.082,3.0858,3.0897,3.0878,3.0876,3.0874,3.0875,3.0133,2.9529,2.9334,2.7949,2.6933,2.6738,2.6093,2.5968,2.6571,2.603,2.5946,2.6576,2.597,2.5624,2.5687,2.5697,2.5693,2.5707,2.5698,2.5681,2.5682,2.563,2.5585,2.5589,2.5524,2.5356,2.5114,2.5178,2.5019,2.4734,2.4718,2.4564,2.4303,2.4133,2.3894,2.366,2.3526,2.3435,2.3342,2.8612,2.9246,2.9816,2.9816,3.0089,3.0487,3.093,3.0252,2.9753,2.9919,2.9951,3.0173,3.0699,3.0833,3.0733,3.0323,2.9568,2.9277,2.9687,2.9425,2.9455,2.9951,2.9716,2.9626,2.9841,3.0052,3.0637,3.1653,3.1816,3.2357,3.325,3.325,3.3271,3.329,3.3307,3.3312,3.3379,3.3838,3.4027,3.4096,3.4975,3.533,3.5371,3.582,3.5996,3.5993,3.5995,3.5995,3.5877,3.498,3.4707,3.4394,3.2695,3.2148,3.1972,3.1152,3.0898,3.0897,3.0898,3.0897,3.0992,3.1385,3.1464,3.1365,3.0993,3.0897,3.0898,3.0898,3.0898,3.0898,3.0859,3.0879,3.0898,3.0898,3.0898,3.0897,3.0897,3.0507,3.0077,2.9647,2.8437,2.7283,2.6464,2.6347,2.6316,2.6328,2.6685,2.6704,2.6306,2.6247,2.6054,2.5707,2.5696,2.5705,2.5693,2.5707,2.5671,2.566,2.5648,2.56,2.555,2.5524,2.5464,2.5387,2.5273,2.5111,2.4942,2.4764,2.4547,2.4284,2.4114,2.3953,2.3804,2.3718,2.3629,2.3517,2.8637,2.9246,2.9852,2.9997,3.055,3.1093,3.1365,3.1166,3.0831,3.0384,3.0735,3.1185,3.1568,3.1575,3.1352,3.0886,2.998,2.9743,3.0413,2.9906,2.982,3.0443,2.9925,2.97,2.9905,3.0189,3.0828,3.1827,3.2019,3.2643,3.3627,3.3635,3.3677,3.3732,3.3743,3.3746,3.3804,3.4566,3.4914,3.4986,3.5712,3.5992,3.5995,3.5996,3.5995,3.5995,3.5994,3.5995,3.5898,3.5176,3.4922,3.4648,3.3105,3.2539,3.2266,3.1542,3.1229,3.1112,3.1111,3.1228,3.1424,3.1796,3.2109,3.2109,3.1307,3.1113,3.1073,3.0936,3.0896,3.0895,3.0895,3.0896,3.0897,3.0898,3.0898,3.0898,3.0898,3.0898,3.0625,2.9902,2.8925,2.7732,2.6287,2.6659,2.6823,2.6378,2.7511,2.7651,2.6334,2.6829,2.6828,2.6169,2.6134,2.6062,2.5929,2.5924,2.581,2.5601,2.5652,2.5625,2.5518,2.5483,2.544,2.5398,2.522,2.5063,2.4888,2.4734,2.4512,2.4266,2.4095,2.3953,2.3804,2.3761,2.3629,2.3448,2.8687,2.9297,3.0033,3.0793,3.0903,3.139,3.2868,3.189,3.1257,3.1965,3.1038,3.0889,3.236,3.2004,3.1932,3.2595,3.1299,3.0506,3.0727,3.0594,3.0337,2.9943,2.9775,2.977,2.9972,3.0858,3.1795,3.2805,3.2957,3.3838,3.5369,3.5426,3.5441,3.5468,3.5528,3.5541,3.5558,3.568,3.5775,3.5837,3.5949,3.6001,3.5995,3.5993,3.5996,3.5994,3.6003,3.601,3.5976,3.5859,3.582,3.5644,3.4668,3.3848,3.3203,3.3105,3.2578,3.2012,3.2012,3.2539,3.2734,3.1406,3.2148,3.3007,3.2207,3.2012,3.1816,3.1052,3.0895,3.0873,3.0825,3.085,3.0895,3.0896,3.0897,3.0897,3.0898,3.0897,3.0857,3.0739,2.9293,2.8218,2.7964,2.7363,2.7553,2.8886,2.8541,2.8489,2.8946,2.8427,2.8051,2.7949,2.7956,2.7586,2.6827,2.6817,2.6409,2.5601,2.561,2.5593,2.5577,2.5404,2.5351,2.5378,2.508,2.4929,2.4888,2.4623,2.4409,2.4192,2.3939,2.3831,2.3783,2.3607,2.3453,2.3313,2.941,3.0358,3.132,3.1656,3.2053,3.2549,3.3343,3.2835,3.2429,3.2501,3.2342,3.2397,3.2828,3.2674,3.2691,3.3086,3.2042,3.1395,3.148,3.1068,3.0941,3.1255,3.0366,3.0405,3.1532,3.1078,3.1564,3.3068,3.3596,3.4255,3.4991,3.5495,3.5765,3.5799,3.583,3.5833,3.5859,3.5889,3.5914,3.5951,3.5981,3.5999,3.5991,3.5993,3.5995,3.5996,3.5995,3.5996,3.5995,3.5995,3.5995,3.5859,3.4961,3.4433,3.4023,3.3535,3.3144,3.2754,3.2285,3.2754,3.3222,3.248,3.3222,3.4023,3.3671,3.3593,3.3359,3.2477,3.1906,3.155,3.1528,3.1181,3.0892,3.0894,3.0895,3.0896,3.0896,3.0895,3.0718,3.0227,2.9058,2.8298,2.8299,2.7949,2.8021,2.8771,2.9364,2.9429,2.8813,2.8895,2.8746,2.8252,2.8276,2.8103,2.7669,2.7186,2.6712,2.6262,2.5738,2.5511,2.5543,2.5404,2.5332,2.5273,2.505,2.4893,2.4779,2.4543,2.4338,2.4173,2.3998,2.3873,2.3783,2.3607,2.3383,2.3168]}]]